Wetterdaten: Samstag, 02.11.2019
Datum Zeit Temp. A. Feuchte A. Luftdruck Regen Wind Richtung Richtung Sonnenschein ET UV Solar Taupunkt Windchill Windböen
02.11.2019 00:00 8,4 °C 95 % 1004,0 hPa 0,0 mm 0,0 km/h (0 Bft) O 82 ° 0 min 0,000 mm 0,0 UV-I 0 W/m² 7,6 °C 8,4 °C 0,0 km/h (0 Bft)
02.11.2019 00:01 8,4 °C 95 % 1004,0 hPa 0,0 mm 0,0 km/h (0 Bft) O 82 ° 0 min 0,000 mm 0,0 UV-I 0 W/m² 7,6 °C 8,4 °C 0,0 km/h (0 Bft)
02.11.2019 00:02 8,4 °C 95 % 1004,0 hPa 0,0 mm 0,0 km/h (0 Bft) O 82 ° 0 min 0,000 mm 0,0 UV-I 0 W/m² 7,6 °C 8,4 °C 0,0 km/h (0 Bft)
02.11.2019 00:03 8,4 °C 95 % 1004,0 hPa 0,0 mm 0,0 km/h (0 Bft) O 82 ° 0 min 0,000 mm 0,0 UV-I 0 W/m² 7,6 °C 8,4 °C 0,0 km/h (0 Bft)
02.11.2019 00:04 8,4 °C 95 % 1004,0 hPa 0,0 mm 1,3 km/h (1 Bft) O 82 ° 0 min 0,000 mm 0,0 UV-I 0 W/m² 7,6 °C 8,4 °C 3,2 km/h (1 Bft)
02.11.2019 00:05 8,4 °C 95 % 1003,9 hPa 0,0 mm 1,1 km/h (1 Bft) O 82 ° 0 min 0,000 mm 0,0 UV-I 0 W/m² 7,6 °C 8,4 °C 3,2 km/h (1 Bft)
02.11.2019 00:06 8,4 °C 95 % 1003,8 hPa 0,0 mm 4,9 km/h (1 Bft) O 82 ° 0 min 0,000 mm 0,0 UV-I 0 W/m² 7,6 °C 8,0 °C 6,4 km/h (2 Bft)
02.11.2019 00:07 8,4 °C 95 % 1003,7 hPa 0,0 mm 3,3 km/h (1 Bft) O 82 ° 0 min 0,000 mm 0,0 UV-I 0 W/m² 7,6 °C 8,4 °C 4,8 km/h (1 Bft)
02.11.2019 00:08 8,4 °C 95 % 1003,7 hPa 0,0 mm 0,6 km/h (0 Bft) O 82 ° 0 min 0,000 mm 0,0 UV-I 0 W/m² 7,6 °C 8,4 °C 1,6 km/h (1 Bft)
02.11.2019 00:09 8,4 °C 95 % 1003,9 hPa 0,0 mm 5,8 km/h (2 Bft) O 82 ° 0 min 0,000 mm 0,0 UV-I 0 W/m² 7,6 °C 7,7 °C 8,0 km/h (2 Bft)
02.11.2019 00:10 8,4 °C 95 % 1003,9 hPa 0,0 mm 3,1 km/h (1 Bft) O 82 ° 0 min 0,000 mm 0,0 UV-I 0 W/m² 7,6 °C 8,4 °C 6,4 km/h (2 Bft)
02.11.2019 00:11 8,4 °C 95 % 1003,9 hPa 0,0 mm 0,2 km/h (0 Bft) O 82 ° 0 min 0,000 mm 0,0 UV-I 0 W/m² 7,6 °C 8,4 °C 1,6 km/h (1 Bft)
02.11.2019 00:12 8,4 °C 95 % 1003,8 hPa 0,0 mm 0,7 km/h (0 Bft) O 82 ° 0 min 0,000 mm 0,0 UV-I 0 W/m² 7,6 °C 8,4 °C 3,2 km/h (1 Bft)
02.11.2019 00:13 8,4 °C 95 % 1003,8 hPa 0,0 mm 2,1 km/h (1 Bft) O 82 ° 0 min 0,000 mm 0,0 UV-I 0 W/m² 7,6 °C 8,4 °C 3,2 km/h (1 Bft)
02.11.2019 00:14 8,4 °C 95 % 1003,7 hPa 0,0 mm 1,0 km/h (0 Bft) O 82 ° 0 min 0,000 mm 0,0 UV-I 0 W/m² 7,6 °C 8,4 °C 3,2 km/h (1 Bft)
02.11.2019 00:15 8,4 °C 95 % 1003,7 hPa 0,0 mm 0,0 km/h (0 Bft) O 82 ° 0 min 0,000 mm 0,0 UV-I 0 W/m² 7,6 °C 8,4 °C 0,0 km/h (0 Bft)
02.11.2019 00:16 8,4 °C 95 % 1003,7 hPa 0,0 mm 0,0 km/h (0 Bft) O 82 ° 0 min 0,000 mm 0,0 UV-I 0 W/m² 7,6 °C 8,4 °C 0,0 km/h (0 Bft)
02.11.2019 00:17 8,4 °C 95 % 1003,6 hPa 0,0 mm 0,0 km/h (0 Bft) O 82 ° 0 min 0,000 mm 0,0 UV-I 0 W/m² 7,6 °C 8,4 °C 0,0 km/h (0 Bft)
02.11.2019 00:18 8,4 °C 95 % 1003,6 hPa 0,0 mm 0,0 km/h (0 Bft) O 82 ° 0 min 0,000 mm 0,0 UV-I 0 W/m² 7,6 °C 8,4 °C 0,0 km/h (0 Bft)
02.11.2019 00:19 8,4 °C 95 % 1003,6 hPa 0,2 mm 0,0 km/h (0 Bft) O 82 ° 0 min 0,000 mm 0,0 UV-I 0 W/m² 7,6 °C 8,4 °C 0,0 km/h (0 Bft)
02.11.2019 00:20 8,4 °C 95 % 1003,6 hPa 0,0 mm 0,0 km/h (0 Bft) O 82 ° 0 min 0,000 mm 0,0 UV-I 0 W/m² 7,6 °C 8,4 °C 0,0 km/h (0 Bft)
02.11.2019 00:21 8,4 °C 95 % 1003,6 hPa 0,0 mm 0,0 km/h (0 Bft) O 82 ° 0 min 0,000 mm 0,0 UV-I 0 W/m² 7,6 °C 8,4 °C 0,0 km/h (0 Bft)
02.11.2019 00:22 8,3 °C 95 % 1003,5 hPa 0,0 mm 0,0 km/h (0 Bft) O 82 ° 0 min 0,000 mm 0,0 UV-I 0 W/m² 7,5 °C 8,3 °C 0,0 km/h (0 Bft)
02.11.2019 00:23 8,3 °C 95 % 1003,6 hPa 0,0 mm 0,0 km/h (0 Bft) O 82 ° 0 min 0,000 mm 0,0 UV-I 0 W/m² 7,5 °C 8,3 °C 0,0 km/h (0 Bft)
02.11.2019 00:24 8,3 °C 95 % 1003,5 hPa 0,0 mm 0,0 km/h (0 Bft) O 82 ° 0 min 0,000 mm 0,0 UV-I 0 W/m² 7,5 °C 8,3 °C 0,0 km/h (0 Bft)
02.11.2019 00:25 8,3 °C 95 % 1003,5 hPa 0,0 mm 0,0 km/h (0 Bft) O 82 ° 0 min 0,000 mm 0,0 UV-I 0 W/m² 7,5 °C 8,3 °C 0,0 km/h (0 Bft)
02.11.2019 00:26 8,3 °C 95 % 1003,5 hPa 0,0 mm 0,0 km/h (0 Bft) O 82 ° 0 min 0,000 mm 0,0 UV-I 0 W/m² 7,5 °C 8,3 °C 0,0 km/h (0 Bft)
02.11.2019 00:27 8,3 °C 95 % 1003,5 hPa 0,0 mm 0,0 km/h (0 Bft) O 82 ° 0 min 0,000 mm 0,0 UV-I 0 W/m² 7,5 °C 8,3 °C 0,0 km/h (0 Bft)
02.11.2019 00:28 8,3 °C 95 % 1003,5 hPa 0,0 mm 0,0 km/h (0 Bft) O 82 ° 0 min 0,000 mm 0,0 UV-I 0 W/m² 7,5 °C 8,3 °C 0,0 km/h (0 Bft)
02.11.2019 00:29 8,3 °C 95 % 1003,5 hPa 0,0 mm 0,0 km/h (0 Bft) O 82 ° 0 min 0,000 mm 0,0 UV-I 0 W/m² 7,5 °C 8,3 °C 0,0 km/h (0 Bft)
02.11.2019 00:30 8,3 °C 95 % 1003,6 hPa 0,0 mm 0,0 km/h (0 Bft) O 82 ° 0 min 0,000 mm 0,0 UV-I 0 W/m² 7,5 °C 8,3 °C 0,0 km/h (0 Bft)
02.11.2019 00:31 8,3 °C 95 % 1003,5 hPa 0,0 mm 0,0 km/h (0 Bft) O 82 ° 0 min 0,000 mm 0,0 UV-I 0 W/m² 7,5 °C 8,3 °C 0,0 km/h (0 Bft)
02.11.2019 00:32 8,3 °C 95 % 1003,5 hPa 0,0 mm 0,0 km/h (0 Bft) O 82 ° 0 min 0,000 mm 0,0 UV-I 0 W/m² 7,5 °C 8,3 °C 0,0 km/h (0 Bft)
02.11.2019 00:33 8,3 °C 95 % 1003,5 hPa 0,0 mm 0,0 km/h (0 Bft) O 82 ° 0 min 0,000 mm 0,0 UV-I 0 W/m² 7,5 °C 8,3 °C 0,0 km/h (0 Bft)
02.11.2019 00:34 8,3 °C 95 % 1003,5 hPa 0,0 mm 0,0 km/h (0 Bft) O 82 ° 0 min 0,000 mm 0,0 UV-I 0 W/m² 7,5 °C 8,3 °C 0,0 km/h (0 Bft)
02.11.2019 00:35 8,3 °C 95 % 1003,5 hPa 0,0 mm 0,0 km/h (0 Bft) O 82 ° 0 min 0,000 mm 0,0 UV-I 0 W/m² 7,5 °C 8,3 °C 0,0 km/h (0 Bft)
02.11.2019 00:36 8,3 °C 95 % 1003,5 hPa 0,0 mm 0,0 km/h (0 Bft) O 82 ° 0 min 0,000 mm 0,0 UV-I 0 W/m² 7,5 °C 8,3 °C 0,0 km/h (0 Bft)
02.11.2019 00:37 8,3 °C 95 % 1003,5 hPa 0,0 mm 0,0 km/h (0 Bft) O 82 ° 0 min 0,000 mm 0,0 UV-I 0 W/m² 7,5 °C 8,3 °C 0,0 km/h (0 Bft)
02.11.2019 00:38 8,3 °C 95 % 1003,5 hPa 0,0 mm 0,0 km/h (0 Bft) O 82 ° 0 min 0,000 mm 0,0 UV-I 0 W/m² 7,5 °C 8,3 °C 0,0 km/h (0 Bft)
02.11.2019 00:39 8,2 °C 95 % 1003,5 hPa 0,0 mm 0,0 km/h (0 Bft) O 82 ° 0 min 0,000 mm 0,0 UV-I 0 W/m² 7,4 °C 8,2 °C 0,0 km/h (0 Bft)
02.11.2019 00:40 8,2 °C 95 % 1003,5 hPa 0,0 mm 0,0 km/h (0 Bft) O 82 ° 0 min 0,000 mm 0,0 UV-I 0 W/m² 7,4 °C 8,2 °C 0,0 km/h (0 Bft)
02.11.2019 00:41 8,2 °C 95 % 1003,5 hPa 0,0 mm 0,0 km/h (0 Bft) O 82 ° 0 min 0,000 mm 0,0 UV-I 0 W/m² 7,4 °C 8,2 °C 0,0 km/h (0 Bft)
02.11.2019 00:42 8,2 °C 95 % 1003,5 hPa 0,0 mm 0,0 km/h (0 Bft) O 82 ° 0 min 0,000 mm 0,0 UV-I 0 W/m² 7,4 °C 8,2 °C 0,0 km/h (0 Bft)
02.11.2019 00:43 8,2 °C 95 % 1003,5 hPa 0,0 mm 0,0 km/h (0 Bft) O 82 ° 0 min 0,000 mm 0,0 UV-I 0 W/m² 7,4 °C 8,2 °C 0,0 km/h (0 Bft)
02.11.2019 00:44 8,2 °C 95 % 1003,6 hPa 0,0 mm 0,0 km/h (0 Bft) O 82 ° 0 min 0,000 mm 0,0 UV-I 0 W/m² 7,4 °C 8,2 °C 0,0 km/h (0 Bft)
02.11.2019 00:45 8,2 °C 95 % 1003,6 hPa 0,0 mm 0,0 km/h (0 Bft) O 82 ° 0 min 0,000 mm 0,0 UV-I 0 W/m² 7,4 °C 8,2 °C 0,0 km/h (0 Bft)
02.11.2019 00:46 8,2 °C 95 % 1003,6 hPa 0,0 mm 0,0 km/h (0 Bft) O 82 ° 0 min 0,000 mm 0,0 UV-I 0 W/m² 7,4 °C 8,2 °C 0,0 km/h (0 Bft)
02.11.2019 00:47 8,1 °C 95 % 1003,5 hPa 0,0 mm 0,0 km/h (0 Bft) O 82 ° 0 min 0,000 mm 0,0 UV-I 0 W/m² 7,3 °C 8,1 °C 0,0 km/h (0 Bft)
02.11.2019 00:48 8,1 °C 95 % 1003,5 hPa 0,0 mm 0,0 km/h (0 Bft) O 82 ° 0 min 0,000 mm 0,0 UV-I 0 W/m² 7,3 °C 8,1 °C 0,0 km/h (0 Bft)
02.11.2019 00:49 8,1 °C 95 % 1003,5 hPa 0,0 mm 0,0 km/h (0 Bft) O 82 ° 0 min 0,000 mm 0,0 UV-I 0 W/m² 7,3 °C 8,1 °C 0,0 km/h (0 Bft)
02.11.2019 00:50 8,1 °C 95 % 1003,5 hPa 0,0 mm 0,0 km/h (0 Bft) O 82 ° 0 min 0,000 mm 0,0 UV-I 0 W/m² 7,3 °C 8,1 °C 0,0 km/h (0 Bft)
02.11.2019 00:51 8,1 °C 95 % 1003,5 hPa 0,0 mm 0,0 km/h (0 Bft) O 82 ° 0 min 0,000 mm 0,0 UV-I 0 W/m² 7,3 °C 8,1 °C 0,0 km/h (0 Bft)
02.11.2019 00:52 8,1 °C 95 % 1003,4 hPa 0,0 mm 0,0 km/h (0 Bft) O 82 ° 0 min 0,000 mm 0,0 UV-I 0 W/m² 7,3 °C 8,1 °C 0,0 km/h (0 Bft)
02.11.2019 00:53 8,1 °C 95 % 1003,4 hPa 0,0 mm 0,0 km/h (0 Bft) O 82 ° 0 min 0,000 mm 0,0 UV-I 0 W/m² 7,3 °C 8,1 °C 0,0 km/h (0 Bft)
02.11.2019 00:54 8,1 °C 95 % 1003,3 hPa 0,0 mm 0,0 km/h (0 Bft) O 82 ° 0 min 0,000 mm 0,0 UV-I 0 W/m² 7,3 °C 8,1 °C 0,0 km/h (0 Bft)
02.11.2019 00:55 8,1 °C 95 % 1003,3 hPa 0,0 mm 0,0 km/h (0 Bft) O 82 ° 0 min 0,000 mm 0,0 UV-I 0 W/m² 7,3 °C 8,1 °C 0,0 km/h (0 Bft)
02.11.2019 00:56 8,0 °C 95 % 1003,4 hPa 0,0 mm 0,0 km/h (0 Bft) O 82 ° 0 min 0,000 mm 0,0 UV-I 0 W/m² 7,2 °C 8,0 °C 0,0 km/h (0 Bft)
02.11.2019 00:57 8,0 °C 95 % 1003,4 hPa 0,0 mm 2,5 km/h (1 Bft) O 82 ° 0 min 0,000 mm 0,0 UV-I 0 W/m² 7,2 °C 8,0 °C 4,8 km/h (1 Bft)
02.11.2019 00:58 7,9 °C 95 % 1003,3 hPa 0,0 mm 3,0 km/h (1 Bft) O 82 ° 0 min 0,000 mm 0,0 UV-I 0 W/m² 7,1 °C 7,9 °C 6,4 km/h (2 Bft)
02.11.2019 00:59 7,9 °C 95 % 1003,3 hPa 0,0 mm 2,0 km/h (1 Bft) W 271 ° 0 min 0,000 mm 0,0 UV-I 0 W/m² 7,1 °C 7,9 °C 4,8 km/h (1 Bft)
02.11.2019 01:00 7,9 °C 95 % 1003,3 hPa 0,0 mm 3,0 km/h (1 Bft) W 271 ° 0 min 0,000 mm 0,0 UV-I 0 W/m² 7,1 °C 7,9 °C 4,8 km/h (1 Bft)
02.11.2019 01:01 7,9 °C 95 % 1003,2 hPa 0,0 mm 0,4 km/h (0 Bft) W 271 ° 0 min 0,000 mm 0,0 UV-I 0 W/m² 7,1 °C 7,9 °C 1,6 km/h (1 Bft)
02.11.2019 01:02 7,8 °C 95 % 1003,2 hPa 0,0 mm 3,6 km/h (1 Bft) O-SO 119 ° 0 min 0,000 mm 0,0 UV-I 0 W/m² 7,0 °C 7,8 °C 4,8 km/h (1 Bft)
02.11.2019 01:03 7,9 °C 95 % 1003,2 hPa 0,0 mm 0,6 km/h (0 Bft) O-SO 119 ° 0 min 0,000 mm 0,0 UV-I 0 W/m² 7,1 °C 7,9 °C 3,2 km/h (1 Bft)
02.11.2019 01:04 7,8 °C 95 % 1003,3 hPa 0,0 mm 0,0 km/h (0 Bft) O-SO 119 ° 0 min 0,000 mm 0,0 UV-I 0 W/m² 7,0 °C 7,8 °C 0,0 km/h (0 Bft)
02.11.2019 01:05 7,8 °C 95 % 1003,3 hPa 0,0 mm 0,0 km/h (0 Bft) O-SO 119 ° 0 min 0,000 mm 0,0 UV-I 0 W/m² 7,0 °C 7,8 °C 0,0 km/h (0 Bft)
02.11.2019 01:06 7,8 °C 95 % 1003,2 hPa 0,0 mm 0,0 km/h (0 Bft) O-SO 119 ° 0 min 0,000 mm 0,0 UV-I 0 W/m² 7,0 °C 7,8 °C 0,0 km/h (0 Bft)
02.11.2019 01:07 7,8 °C 95 % 1003,2 hPa 0,0 mm 0,0 km/h (0 Bft) O-SO 119 ° 0 min 0,000 mm 0,0 UV-I 0 W/m² 7,0 °C 7,8 °C 0,0 km/h (0 Bft)
02.11.2019 01:08 7,8 °C 95 % 1003,2 hPa 0,0 mm 0,0 km/h (0 Bft) O-SO 119 ° 0 min 0,000 mm 0,0 UV-I 0 W/m² 7,0 °C 7,8 °C 0,0 km/h (0 Bft)
02.11.2019 01:09 7,7 °C 95 % 1003,2 hPa 0,0 mm 0,0 km/h (0 Bft) O-SO 119 ° 0 min 0,000 mm 0,0 UV-I 0 W/m² 7,0 °C 7,7 °C 0,0 km/h (0 Bft)
02.11.2019 01:10 7,7 °C 95 % 1003,1 hPa 0,0 mm 0,0 km/h (0 Bft) O-SO 119 ° 0 min 0,000 mm 0,0 UV-I 0 W/m² 7,0 °C 7,7 °C 0,0 km/h (0 Bft)
02.11.2019 01:11 7,7 °C 95 % 1003,1 hPa 0,0 mm 0,0 km/h (0 Bft) O-SO 119 ° 0 min 0,000 mm 0,0 UV-I 0 W/m² 7,0 °C 7,7 °C 0,0 km/h (0 Bft)
02.11.2019 01:12 7,7 °C 95 % 1003,1 hPa 0,0 mm 1,0 km/h (0 Bft) O-SO 119 ° 0 min 0,000 mm 0,0 UV-I 0 W/m² 7,0 °C 7,7 °C 3,2 km/h (1 Bft)
02.11.2019 01:13 7,7 °C 95 % 1003,0 hPa 0,0 mm 1,9 km/h (1 Bft) O-SO 119 ° 0 min 0,000 mm 0,0 UV-I 0 W/m² 7,0 °C 7,7 °C 3,2 km/h (1 Bft)
02.11.2019 01:14 7,7 °C 95 % 1003,1 hPa 0,0 mm 0,1 km/h (0 Bft) O-SO 119 ° 0 min 0,000 mm 0,0 UV-I 0 W/m² 7,0 °C 7,7 °C 1,6 km/h (1 Bft)
02.11.2019 01:15 7,7 °C 95 % 1003,1 hPa 0,0 mm 0,0 km/h (0 Bft) O-SO 119 ° 0 min 0,000 mm 0,0 UV-I 0 W/m² 7,0 °C 7,7 °C 0,0 km/h (0 Bft)
02.11.2019 01:16 7,6 °C 95 % 1003,0 hPa 0,0 mm 0,0 km/h (0 Bft) O-SO 119 ° 0 min 0,000 mm 0,0 UV-I 0 W/m² 6,9 °C 7,6 °C 0,0 km/h (0 Bft)
02.11.2019 01:17 7,6 °C 95 % 1003,0 hPa 0,0 mm 2,1 km/h (1 Bft) O-SO 119 ° 0 min 0,000 mm 0,0 UV-I 0 W/m² 6,9 °C 7,6 °C 3,2 km/h (1 Bft)
02.11.2019 01:18 7,5 °C 95 % 1003,1 hPa 0,0 mm 0,7 km/h (0 Bft) O-SO 119 ° 0 min 0,000 mm 0,0 UV-I 0 W/m² 6,8 °C 7,5 °C 1,6 km/h (1 Bft)
02.11.2019 01:19 7,5 °C 95 % 1003,1 hPa 0,0 mm 2,3 km/h (1 Bft) O-SO 119 ° 0 min 0,000 mm 0,0 UV-I 0 W/m² 6,8 °C 7,5 °C 3,2 km/h (1 Bft)
02.11.2019 01:20 7,4 °C 95 % 1003,0 hPa 0,0 mm 1,1 km/h (1 Bft) O-SO 119 ° 0 min 0,000 mm 0,0 UV-I 0 W/m² 6,7 °C 7,4 °C 3,2 km/h (1 Bft)
02.11.2019 01:21 7,4 °C 95 % 1003,0 hPa 0,0 mm 0,0 km/h (0 Bft) O-SO 119 ° 0 min 0,000 mm 0,0 UV-I 0 W/m² 6,7 °C 7,4 °C 0,0 km/h (0 Bft)
02.11.2019 01:22 7,4 °C 95 % 1003,0 hPa 0,0 mm 0,9 km/h (0 Bft) O-SO 119 ° 0 min 0,000 mm 0,0 UV-I 0 W/m² 6,7 °C 7,4 °C 3,2 km/h (1 Bft)
02.11.2019 01:23 7,4 °C 95 % 1002,9 hPa 0,0 mm 1,9 km/h (1 Bft) O-SO 119 ° 0 min 0,000 mm 0,0 UV-I 0 W/m² 6,7 °C 7,4 °C 3,2 km/h (1 Bft)
02.11.2019 01:24 7,4 °C 95 % 1002,9 hPa 0,0 mm 0,3 km/h (0 Bft) O-SO 119 ° 0 min 0,000 mm 0,0 UV-I 0 W/m² 6,7 °C 7,4 °C 1,6 km/h (1 Bft)
02.11.2019 01:25 7,4 °C 95 % 1002,9 hPa 0,0 mm 0,0 km/h (0 Bft) O-SO 119 ° 0 min 0,000 mm 0,0 UV-I 0 W/m² 6,7 °C 7,4 °C 0,0 km/h (0 Bft)
02.11.2019 01:26 7,4 °C 95 % 1002,9 hPa 0,0 mm 0,0 km/h (0 Bft) O-SO 119 ° 0 min 0,000 mm 0,0 UV-I 0 W/m² 6,7 °C 7,4 °C 0,0 km/h (0 Bft)
02.11.2019 01:27 7,3 °C 95 % 1002,9 hPa 0,0 mm 0,0 km/h (0 Bft) O-SO 119 ° 0 min 0,000 mm 0,0 UV-I 0 W/m² 6,6 °C 7,3 °C 0,0 km/h (0 Bft)
02.11.2019 01:28 7,3 °C 95 % 1002,9 hPa 0,0 mm 0,0 km/h (0 Bft) O-SO 119 ° 0 min 0,000 mm 0,0 UV-I 0 W/m² 6,6 °C 7,3 °C 0,0 km/h (0 Bft)
02.11.2019 01:29 7,3 °C 95 % 1002,9 hPa 0,0 mm 0,0 km/h (0 Bft) O-SO 119 ° 0 min 0,000 mm 0,0 UV-I 0 W/m² 6,6 °C 7,3 °C 0,0 km/h (0 Bft)
02.11.2019 01:30 7,3 °C 95 % 1002,9 hPa 0,0 mm 0,0 km/h (0 Bft) O-SO 119 ° 0 min 0,000 mm 0,0 UV-I 0 W/m² 6,6 °C 7,3 °C 0,0 km/h (0 Bft)
02.11.2019 01:31 7,3 °C 95 % 1002,9 hPa 0,0 mm 0,0 km/h (0 Bft) O-SO 119 ° 0 min 0,000 mm 0,0 UV-I 0 W/m² 6,6 °C 7,3 °C 0,0 km/h (0 Bft)
02.11.2019 01:32 7,3 °C 95 % 1002,9 hPa 0,0 mm 0,0 km/h (0 Bft) O-SO 119 ° 0 min 0,000 mm 0,0 UV-I 0 W/m² 6,6 °C 7,3 °C 0,0 km/h (0 Bft)
02.11.2019 01:33 7,3 °C 95 % 1002,8 hPa 0,0 mm 0,0 km/h (0 Bft) O-SO 119 ° 0 min 0,000 mm 0,0 UV-I 0 W/m² 6,6 °C 7,3 °C 0,0 km/h (0 Bft)
02.11.2019 01:34 7,3 °C 95 % 1002,8 hPa 0,0 mm 0,0 km/h (0 Bft) O-SO 119 ° 0 min 0,000 mm 0,0 UV-I 0 W/m² 6,6 °C 7,3 °C 0,0 km/h (0 Bft)
02.11.2019 01:35 7,2 °C 95 % 1002,8 hPa 0,0 mm 0,0 km/h (0 Bft) O-SO 119 ° 0 min 0,000 mm 0,0 UV-I 0 W/m² 6,5 °C 7,2 °C 0,0 km/h (0 Bft)
02.11.2019 01:36 7,2 °C 95 % 1002,8 hPa 0,0 mm 0,0 km/h (0 Bft) O-SO 119 ° 0 min 0,000 mm 0,0 UV-I 0 W/m² 6,5 °C 7,2 °C 0,0 km/h (0 Bft)
02.11.2019 01:37 7,2 °C 95 % 1002,8 hPa 0,0 mm 0,0 km/h (0 Bft) O-SO 119 ° 0 min 0,000 mm 0,0 UV-I 0 W/m² 6,5 °C 7,2 °C 0,0 km/h (0 Bft)
02.11.2019 01:38 7,2 °C 95 % 1002,8 hPa 0,0 mm 0,0 km/h (0 Bft) O-SO 119 ° 0 min 0,000 mm 0,0 UV-I 0 W/m² 6,5 °C 7,2 °C 0,0 km/h (0 Bft)
02.11.2019 01:39 7,2 °C 95 % 1002,8 hPa 0,0 mm 0,0 km/h (0 Bft) O-SO 119 ° 0 min 0,000 mm 0,0 UV-I 0 W/m² 6,5 °C 7,2 °C 0,0 km/h (0 Bft)
02.11.2019 01:40 7,2 °C 95 % 1002,8 hPa 0,0 mm 0,0 km/h (0 Bft) O-SO 119 ° 0 min 0,000 mm 0,0 UV-I 0 W/m² 6,5 °C 7,2 °C 0,0 km/h (0 Bft)
02.11.2019 01:41 7,1 °C 95 % 1002,8 hPa 0,0 mm 0,0 km/h (0 Bft) O-SO 119 ° 0 min 0,000 mm 0,0 UV-I 0 W/m² 6,4 °C 7,1 °C 0,0 km/h (0 Bft)
02.11.2019 01:42 7,2 °C 95 % 1002,9 hPa 0,0 mm 0,0 km/h (0 Bft) O-SO 119 ° 0 min 0,000 mm 0,0 UV-I 0 W/m² 6,5 °C 7,2 °C 0,0 km/h (0 Bft)
02.11.2019 01:43 7,2 °C 95 % 1002,9 hPa 0,0 mm 0,0 km/h (0 Bft) O-SO 119 ° 0 min 0,000 mm 0,0 UV-I 0 W/m² 6,5 °C 7,2 °C 0,0 km/h (0 Bft)
02.11.2019 01:44 7,2 °C 95 % 1002,8 hPa 0,0 mm 0,0 km/h (0 Bft) O-SO 119 ° 0 min 0,000 mm 0,0 UV-I 0 W/m² 6,5 °C 7,2 °C 0,0 km/h (0 Bft)
02.11.2019 01:45 7,2 °C 95 % 1002,8 hPa 0,0 mm 0,0 km/h (0 Bft) O-SO 119 ° 0 min 0,000 mm 0,0 UV-I 0 W/m² 6,5 °C 7,2 °C 0,0 km/h (0 Bft)
02.11.2019 01:46 7,2 °C 95 % 1002,8 hPa 0,0 mm 0,0 km/h (0 Bft) O-SO 119 ° 0 min 0,000 mm 0,0 UV-I 0 W/m² 6,5 °C 7,2 °C 0,0 km/h (0 Bft)
02.11.2019 01:47 7,1 °C 95 % 1002,8 hPa 0,0 mm 0,0 km/h (0 Bft) O-SO 119 ° 0 min 0,000 mm 0,0 UV-I 0 W/m² 6,4 °C 7,1 °C 0,0 km/h (0 Bft)
02.11.2019 01:48 7,2 °C 95 % 1002,8 hPa 0,0 mm 0,0 km/h (0 Bft) O-SO 119 ° 0 min 0,000 mm 0,0 UV-I 0 W/m² 6,5 °C 7,2 °C 0,0 km/h (0 Bft)
02.11.2019 01:49 7,1 °C 95 % 1002,8 hPa 0,0 mm 0,0 km/h (0 Bft) O-SO 119 ° 0 min 0,000 mm 0,0 UV-I 0 W/m² 6,4 °C 7,1 °C 0,0 km/h (0 Bft)
02.11.2019 01:50 7,2 °C 95 % 1002,8 hPa 0,0 mm 0,0 km/h (0 Bft) O-SO 119 ° 0 min 0,000 mm 0,0 UV-I 0 W/m² 6,5 °C 7,2 °C 0,0 km/h (0 Bft)
02.11.2019 01:51 7,1 °C 95 % 1002,8 hPa 0,0 mm 0,0 km/h (0 Bft) O-SO 119 ° 0 min 0,000 mm 0,0 UV-I 0 W/m² 6,4 °C 7,1 °C 0,0 km/h (0 Bft)
02.11.2019 01:52 7,1 °C 95 % 1002,8 hPa 0,0 mm 0,0 km/h (0 Bft) O-SO 119 ° 0 min 0,000 mm 0,0 UV-I 0 W/m² 6,4 °C 7,1 °C 0,0 km/h (0 Bft)
02.11.2019 01:53 7,2 °C 95 % 1002,8 hPa 0,0 mm 0,0 km/h (0 Bft) O-SO 119 ° 0 min 0,000 mm 0,0 UV-I 0 W/m² 6,5 °C 7,2 °C 0,0 km/h (0 Bft)
02.11.2019 01:54 7,2 °C 95 % 1002,8 hPa 0,0 mm 0,0 km/h (0 Bft) O-SO 119 ° 0 min 0,000 mm 0,0 UV-I 0 W/m² 6,5 °C 7,2 °C 0,0 km/h (0 Bft)
02.11.2019 01:55 7,1 °C 95 % 1002,8 hPa 0,0 mm 0,0 km/h (0 Bft) O-SO 119 ° 0 min 0,000 mm 0,0 UV-I 0 W/m² 6,4 °C 7,1 °C 0,0 km/h (0 Bft)
02.11.2019 01:56 7,2 °C 95 % 1002,8 hPa 0,0 mm 0,0 km/h (0 Bft) O-SO 119 ° 0 min 0,000 mm 0,0 UV-I 0 W/m² 6,5 °C 7,2 °C 0,0 km/h (0 Bft)
02.11.2019 01:57 7,2 °C 95 % 1002,8 hPa 0,0 mm 0,0 km/h (0 Bft) O-SO 119 ° 0 min 0,000 mm 0,0 UV-I 0 W/m² 6,5 °C 7,2 °C 0,0 km/h (0 Bft)
02.11.2019 01:58 7,2 °C 95 % 1002,9 hPa 0,0 mm 0,0 km/h (0 Bft) O-SO 119 ° 0 min 0,000 mm 0,0 UV-I 0 W/m² 6,5 °C 7,2 °C 0,0 km/h (0 Bft)
02.11.2019 01:59 7,1 °C 95 % 1002,9 hPa 0,0 mm 0,0 km/h (0 Bft) O-SO 119 ° 0 min 0,000 mm 0,0 UV-I 0 W/m² 6,4 °C 7,1 °C 0,0 km/h (0 Bft)
02.11.2019 02:00 7,1 °C 95 % 1002,8 hPa 0,0 mm 0,0 km/h (0 Bft) O-SO 119 ° 0 min 0,000 mm 0,0 UV-I 0 W/m² 6,4 °C 7,1 °C 0,0 km/h (0 Bft)
02.11.2019 02:01 7,1 °C 95 % 1002,8 hPa 0,0 mm 0,0 km/h (0 Bft) O-SO 119 ° 0 min 0,000 mm 0,0 UV-I 0 W/m² 6,4 °C 7,1 °C 0,0 km/h (0 Bft)
02.11.2019 02:02 7,1 °C 95 % 1002,8 hPa 0,0 mm 0,0 km/h (0 Bft) O-SO 119 ° 0 min 0,000 mm 0,0 UV-I 0 W/m² 6,4 °C 7,1 °C 0,0 km/h (0 Bft)
02.11.2019 02:03 7,1 °C 95 % 1002,8 hPa 0,0 mm 0,0 km/h (0 Bft) O-SO 119 ° 0 min 0,000 mm 0,0 UV-I 0 W/m² 6,4 °C 7,1 °C 0,0 km/h (0 Bft)
02.11.2019 02:04 7,1 °C 95 % 1002,7 hPa 0,0 mm 0,0 km/h (0 Bft) O-SO 119 ° 0 min 0,000 mm 0,0 UV-I 0 W/m² 6,4 °C 7,1 °C 0,0 km/h (0 Bft)
02.11.2019 02:05 7,1 °C 95 % 1002,8 hPa 0,0 mm 0,0 km/h (0 Bft) O-SO 119 ° 0 min 0,000 mm 0,0 UV-I 0 W/m² 6,4 °C 7,1 °C 0,0 km/h (0 Bft)
02.11.2019 02:06 7,1 °C 95 % 1002,8 hPa 0,0 mm 0,0 km/h (0 Bft) O-SO 119 ° 0 min 0,000 mm 0,0 UV-I 0 W/m² 6,4 °C 7,1 °C 0,0 km/h (0 Bft)
02.11.2019 02:07 7,1 °C 95 % 1002,8 hPa 0,0 mm 0,0 km/h (0 Bft) O-SO 119 ° 0 min 0,000 mm 0,0 UV-I 0 W/m² 6,4 °C 7,1 °C 0,0 km/h (0 Bft)
02.11.2019 02:08 7,1 °C 95 % 1002,8 hPa 0,0 mm 0,0 km/h (0 Bft) O-SO 119 ° 0 min 0,000 mm 0,0 UV-I 0 W/m² 6,4 °C 7,1 °C 0,0 km/h (0 Bft)
02.11.2019 02:09 7,1 °C 95 % 1002,8 hPa 0,0 mm 0,0 km/h (0 Bft) O-SO 119 ° 0 min 0,000 mm 0,0 UV-I 0 W/m² 6,4 °C 7,1 °C 0,0 km/h (0 Bft)
02.11.2019 02:10 7,1 °C 95 % 1002,8 hPa 0,0 mm 0,0 km/h (0 Bft) O-SO 119 ° 0 min 0,000 mm 0,0 UV-I 0 W/m² 6,4 °C 7,1 °C 0,0 km/h (0 Bft)
02.11.2019 02:11 7,1 °C 95 % 1002,8 hPa 0,0 mm 0,0 km/h (0 Bft) O-SO 119 ° 0 min 0,000 mm 0,0 UV-I 0 W/m² 6,4 °C 7,1 °C 0,0 km/h (0 Bft)
02.11.2019 02:12 7,1 °C 95 % 1002,8 hPa 0,0 mm 0,0 km/h (0 Bft) O-SO 119 ° 0 min 0,000 mm 0,0 UV-I 0 W/m² 6,4 °C 7,1 °C 0,0 km/h (0 Bft)
02.11.2019 02:13 7,0 °C 95 % 1002,8 hPa 0,0 mm 0,0 km/h (0 Bft) O-SO 119 ° 0 min 0,000 mm 0,0 UV-I 0 W/m² 6,3 °C 7,0 °C 0,0 km/h (0 Bft)
02.11.2019 02:14 7,0 °C 95 % 1002,8 hPa 0,0 mm 0,0 km/h (0 Bft) O-SO 119 ° 0 min 0,000 mm 0,0 UV-I 0 W/m² 6,3 °C 7,0 °C 0,0 km/h (0 Bft)
02.11.2019 02:15 7,0 °C 95 % 1002,8 hPa 0,0 mm 0,0 km/h (0 Bft) O-SO 119 ° 0 min 0,000 mm 0,0 UV-I 0 W/m² 6,3 °C 7,0 °C 0,0 km/h (0 Bft)
02.11.2019 02:16 7,1 °C 95 % 1002,8 hPa 0,0 mm 0,0 km/h (0 Bft) O-SO 119 ° 0 min 0,000 mm 0,0 UV-I 0 W/m² 6,4 °C 7,1 °C 0,0 km/h (0 Bft)
02.11.2019 02:17 7,1 °C 95 % 1002,8 hPa 0,0 mm 0,0 km/h (0 Bft) O-SO 119 ° 0 min 0,000 mm 0,0 UV-I 0 W/m² 6,4 °C 7,1 °C 0,0 km/h (0 Bft)
02.11.2019 02:18 7,1 °C 95 % 1002,8 hPa 0,0 mm 0,0 km/h (0 Bft) O-SO 119 ° 0 min 0,000 mm 0,0 UV-I 0 W/m² 6,4 °C 7,1 °C 0,0 km/h (0 Bft)
02.11.2019 02:19 7,1 °C 95 % 1002,7 hPa 0,0 mm 0,0 km/h (0 Bft) O-SO 119 ° 0 min 0,000 mm 0,0 UV-I 0 W/m² 6,4 °C 7,1 °C 0,0 km/h (0 Bft)
02.11.2019 02:20 7,1 °C 95 % 1002,7 hPa 0,0 mm 1,2 km/h (1 Bft) O-SO 119 ° 0 min 0,000 mm 0,0 UV-I 0 W/m² 6,4 °C 7,1 °C 3,2 km/h (1 Bft)
02.11.2019 02:21 7,1 °C 95 % 1002,7 hPa 0,0 mm 3,1 km/h (1 Bft) O-SO 119 ° 0 min 0,000 mm 0,0 UV-I 0 W/m² 6,4 °C 7,1 °C 4,8 km/h (1 Bft)
02.11.2019 02:22 7,1 °C 95 % 1002,6 hPa 0,0 mm 3,8 km/h (1 Bft) O-SO 119 ° 0 min 0,000 mm 0,0 UV-I 0 W/m² 6,4 °C 7,1 °C 4,8 km/h (1 Bft)
02.11.2019 02:23 7,1 °C 95 % 1002,6 hPa 0,0 mm 1,7 km/h (1 Bft) O-SO 119 ° 0 min 0,000 mm 0,0 UV-I 0 W/m² 6,4 °C 7,1 °C 3,2 km/h (1 Bft)
02.11.2019 02:24 7,1 °C 95 % 1002,6 hPa 0,0 mm 1,5 km/h (1 Bft) O-SO 119 ° 0 min 0,000 mm 0,0 UV-I 0 W/m² 6,4 °C 7,1 °C 3,2 km/h (1 Bft)
02.11.2019 02:25 7,1 °C 95 % 1002,6 hPa 0,0 mm 1,5 km/h (1 Bft) O-SO 119 ° 0 min 0,000 mm 0,0 UV-I 0 W/m² 6,4 °C 7,1 °C 1,6 km/h (1 Bft)
02.11.2019 02:26 7,1 °C 95 % 1002,6 hPa 0,0 mm 1,1 km/h (1 Bft) O-SO 119 ° 0 min 0,000 mm 0,0 UV-I 0 W/m² 6,4 °C 7,1 °C 1,6 km/h (1 Bft)
02.11.2019 02:27 7,2 °C 95 % 1002,6 hPa 0,0 mm 1,8 km/h (1 Bft) O-SO 119 ° 0 min 0,000 mm 0,0 UV-I 0 W/m² 6,5 °C 7,2 °C 3,2 km/h (1 Bft)
02.11.2019 02:28 7,2 °C 95 % 1002,5 hPa 0,0 mm 2,1 km/h (1 Bft) O-SO 119 ° 0 min 0,000 mm 0,0 UV-I 0 W/m² 6,5 °C 7,2 °C 3,2 km/h (1 Bft)
02.11.2019 02:29 7,2 °C 95 % 1002,5 hPa 0,0 mm 1,9 km/h (1 Bft) O-SO 119 ° 0 min 0,000 mm 0,0 UV-I 0 W/m² 6,5 °C 7,2 °C 3,2 km/h (1 Bft)
02.11.2019 02:30 7,2 °C 95 % 1002,4 hPa 0,0 mm 1,9 km/h (1 Bft) O-SO 119 ° 0 min 0,000 mm 0,0 UV-I 0 W/m² 6,5 °C 7,2 °C 3,2 km/h (1 Bft)
02.11.2019 02:31 7,2 °C 95 % 1002,4 hPa 0,0 mm 1,4 km/h (1 Bft) O-SO 119 ° 0 min 0,000 mm 0,0 UV-I 0 W/m² 6,5 °C 7,2 °C 3,2 km/h (1 Bft)
02.11.2019 02:32 7,2 °C 95 % 1002,4 hPa 0,0 mm 0,4 km/h (0 Bft) O-SO 119 ° 0 min 0,000 mm 0,0 UV-I 0 W/m² 6,5 °C 7,2 °C 1,6 km/h (1 Bft)
02.11.2019 02:33 7,3 °C 95 % 1002,4 hPa 0,0 mm 0,0 km/h (0 Bft) O-SO 119 ° 0 min 0,000 mm 0,0 UV-I 0 W/m² 6,6 °C 7,3 °C 0,0 km/h (0 Bft)
02.11.2019 02:34 7,3 °C 95 % 1002,4 hPa 0,0 mm 1,5 km/h (1 Bft) O-SO 119 ° 0 min 0,000 mm 0,0 UV-I 0 W/m² 6,6 °C 7,3 °C 3,2 km/h (1 Bft)
02.11.2019 02:35 7,3 °C 95 % 1002,4 hPa 0,0 mm 1,1 km/h (1 Bft) O-SO 119 ° 0 min 0,000 mm 0,0 UV-I 0 W/m² 6,6 °C 7,3 °C 3,2 km/h (1 Bft)
02.11.2019 02:36 7,3 °C 95 % 1002,4 hPa 0,0 mm 0,0 km/h (0 Bft) O-SO 119 ° 0 min 0,000 mm 0,0 UV-I 0 W/m² 6,6 °C 7,3 °C 0,0 km/h (0 Bft)
02.11.2019 02:37 7,3 °C 95 % 1002,4 hPa 0,0 mm 1,9 km/h (1 Bft) O-SO 119 ° 0 min 0,000 mm 0,0 UV-I 0 W/m² 6,6 °C 7,3 °C 3,2 km/h (1 Bft)
02.11.2019 02:38 7,3 °C 95 % 1002,4 hPa 0,0 mm 3,9 km/h (1 Bft) O-SO 119 ° 0 min 0,000 mm 0,0 UV-I 0 W/m² 6,6 °C 7,3 °C 4,8 km/h (1 Bft)
02.11.2019 02:39 7,3 °C 95 % 1002,5 hPa 0,0 mm 2,8 km/h (1 Bft) O-SO 119 ° 0 min 0,000 mm 0,0 UV-I 0 W/m² 6,6 °C 7,3 °C 3,2 km/h (1 Bft)
02.11.2019 02:40 7,3 °C 95 % 1002,5 hPa 0,0 mm 1,3 km/h (1 Bft) O-SO 119 ° 0 min 0,000 mm 0,0 UV-I 0 W/m² 6,6 °C 7,3 °C 3,2 km/h (1 Bft)
02.11.2019 02:41 7,3 °C 95 % 1002,5 hPa 0,0 mm 0,3 km/h (0 Bft) O-SO 119 ° 0 min 0,000 mm 0,0 UV-I 0 W/m² 6,6 °C 7,3 °C 1,6 km/h (1 Bft)
02.11.2019 02:42 7,4 °C 95 % 1002,4 hPa 0,0 mm 0,8 km/h (0 Bft) O-SO 119 ° 0 min 0,000 mm 0,0 UV-I 0 W/m² 6,7 °C 7,4 °C 4,8 km/h (1 Bft)
02.11.2019 02:43 7,4 °C 95 % 1002,3 hPa 0,0 mm 4,1 km/h (1 Bft) O-SO 119 ° 0 min 0,000 mm 0,0 UV-I 0 W/m² 6,7 °C 7,4 °C 4,8 km/h (1 Bft)
02.11.2019 02:44 7,4 °C 95 % 1002,3 hPa 0,0 mm 4,1 km/h (1 Bft) O-SO 119 ° 0 min 0,000 mm 0,0 UV-I 0 W/m² 6,7 °C 7,4 °C 4,8 km/h (1 Bft)
02.11.2019 02:45 7,4 °C 95 % 1002,4 hPa 0,0 mm 3,1 km/h (1 Bft) O-SO 119 ° 0 min 0,000 mm 0,0 UV-I 0 W/m² 6,7 °C 7,4 °C 4,8 km/h (1 Bft)
02.11.2019 02:46 7,4 °C 95 % 1002,4 hPa 0,0 mm 2,3 km/h (1 Bft) O-SO 119 ° 0 min 0,000 mm 0,0 UV-I 0 W/m² 6,7 °C 7,4 °C 3,2 km/h (1 Bft)
02.11.2019 02:47 7,4 °C 95 % 1002,4 hPa 0,0 mm 3,0 km/h (1 Bft) O-SO 119 ° 0 min 0,000 mm 0,0 UV-I 0 W/m² 6,7 °C 7,4 °C 4,8 km/h (1 Bft)
02.11.2019 02:48 7,4 °C 95 % 1002,4 hPa 0,0 mm 3,4 km/h (1 Bft) O-SO 119 ° 0 min 0,000 mm 0,0 UV-I 0 W/m² 6,7 °C 7,4 °C 4,8 km/h (1 Bft)
02.11.2019 02:49 7,4 °C 95 % 1002,4 hPa 0,0 mm 3,1 km/h (1 Bft) O-SO 119 ° 0 min 0,000 mm 0,0 UV-I 0 W/m² 6,7 °C 7,4 °C 4,8 km/h (1 Bft)
02.11.2019 02:50 7,4 °C 95 % 1002,3 hPa 0,0 mm 3,4 km/h (1 Bft) O-SO 119 ° 0 min 0,000 mm 0,0 UV-I 0 W/m² 6,7 °C 7,4 °C 4,8 km/h (1 Bft)
02.11.2019 02:51 7,6 °C 96 % 1002,3 hPa 0,0 mm 2,5 km/h (1 Bft) O-SO 119 ° 0 min 0,000 mm 0,0 UV-I 0 W/m² 7,0 °C 7,6 °C 3,2 km/h (1 Bft)
02.11.2019 02:52 7,6 °C 96 % 1002,3 hPa 0,0 mm 1,4 km/h (1 Bft) O-SO 119 ° 0 min 0,000 mm 0,0 UV-I 0 W/m² 7,0 °C 7,6 °C 3,2 km/h (1 Bft)
02.11.2019 02:53 7,7 °C 96 % 1002,3 hPa 0,0 mm 2,7 km/h (1 Bft) O-SO 119 ° 0 min 0,000 mm 0,0 UV-I 0 W/m² 7,1 °C 7,7 °C 4,8 km/h (1 Bft)
02.11.2019 02:54 7,8 °C 96 % 1002,3 hPa 0,0 mm 4,3 km/h (1 Bft) S-SW 202 ° 0 min 0,000 mm 0,0 UV-I 0 W/m² 7,2 °C 7,8 °C 6,4 km/h (2 Bft)
02.11.2019 02:55 7,8 °C 96 % 1002,3 hPa 0,0 mm 2,5 km/h (1 Bft) S-SW 202 ° 0 min 0,000 mm 0,0 UV-I 0 W/m² 7,2 °C 7,8 °C 3,2 km/h (1 Bft)
02.11.2019 02:56 7,8 °C 96 % 1002,2 hPa 0,0 mm 2,6 km/h (1 Bft) S-SW 202 ° 0 min 0,000 mm 0,0 UV-I 0 W/m² 7,2 °C 7,8 °C 4,8 km/h (1 Bft)
02.11.2019 02:57 7,8 °C 96 % 1002,2 hPa 0,0 mm 3,2 km/h (1 Bft) S-SW 202 ° 0 min 0,000 mm 0,0 UV-I 0 W/m² 7,2 °C 7,8 °C 4,8 km/h (1 Bft)
02.11.2019 02:58 7,8 °C 96 % 1002,2 hPa 0,0 mm 2,0 km/h (1 Bft) S-SW 202 ° 0 min 0,000 mm 0,0 UV-I 0 W/m² 7,2 °C 7,8 °C 3,2 km/h (1 Bft)
02.11.2019 02:59 7,9 °C 96 % 1002,2 hPa 0,0 mm 0,8 km/h (0 Bft) S-SW 202 ° 0 min 0,000 mm 0,0 UV-I 0 W/m² 7,3 °C 7,9 °C 1,6 km/h (1 Bft)
02.11.2019 03:00 7,9 °C 96 % 1002,2 hPa 0,0 mm 0,0 km/h (0 Bft) S-SW 202 ° 0 min 0,000 mm 0,0 UV-I 0 W/m² 7,3 °C 7,9 °C 0,0 km/h (0 Bft)
02.11.2019 03:01 7,9 °C 96 % 1002,2 hPa 0,0 mm 0,6 km/h (0 Bft) S-SW 202 ° 0 min 0,000 mm 0,0 UV-I 0 W/m² 7,3 °C 7,9 °C 3,2 km/h (1 Bft)
02.11.2019 03:02 7,9 °C 96 % 1002,2 hPa 0,0 mm 0,7 km/h (0 Bft) S-SW 202 ° 0 min 0,000 mm 0,0 UV-I 0 W/m² 7,3 °C 7,9 °C 3,2 km/h (1 Bft)
02.11.2019 03:03 7,9 °C 96 % 1002,2 hPa 0,0 mm 0,0 km/h (0 Bft) S-SW 202 ° 0 min 0,000 mm 0,0 UV-I 0 W/m² 7,3 °C 7,9 °C 0,0 km/h (0 Bft)
02.11.2019 03:04 7,9 °C 96 % 1002,2 hPa 0,0 mm 1,1 km/h (1 Bft) S-SW 202 ° 0 min 0,000 mm 0,0 UV-I 0 W/m² 7,3 °C 7,9 °C 1,6 km/h (1 Bft)
02.11.2019 03:05 7,9 °C 96 % 1002,2 hPa 0,0 mm 0,1 km/h (0 Bft) S-SW 202 ° 0 min 0,000 mm 0,0 UV-I 0 W/m² 7,3 °C 7,9 °C 1,6 km/h (1 Bft)
02.11.2019 03:06 7,9 °C 96 % 1002,2 hPa 0,0 mm 0,0 km/h (0 Bft) S-SW 202 ° 0 min 0,000 mm 0,0 UV-I 0 W/m² 7,3 °C 7,9 °C 0,0 km/h (0 Bft)
02.11.2019 03:07 7,9 °C 95 % 1002,2 hPa 0,0 mm 0,0 km/h (0 Bft) S-SW 202 ° 0 min 0,000 mm 0,0 UV-I 0 W/m² 7,1 °C 7,9 °C 0,0 km/h (0 Bft)
02.11.2019 03:08 7,9 °C 95 % 1002,2 hPa 0,0 mm 0,0 km/h (0 Bft) S-SW 202 ° 0 min 0,000 mm 0,0 UV-I 0 W/m² 7,1 °C 7,9 °C 0,0 km/h (0 Bft)
02.11.2019 03:09 8,0 °C 95 % 1002,2 hPa 0,0 mm 0,0 km/h (0 Bft) S-SW 202 ° 0 min 0,000 mm 0,0 UV-I 0 W/m² 7,2 °C 8,0 °C 0,0 km/h (0 Bft)
02.11.2019 03:10 8,0 °C 95 % 1002,1 hPa 0,0 mm 0,0 km/h (0 Bft) S-SW 202 ° 0 min 0,000 mm 0,0 UV-I 0 W/m² 7,2 °C 8,0 °C 0,0 km/h (0 Bft)
02.11.2019 03:11 8,0 °C 95 % 1002,1 hPa 0,0 mm 0,0 km/h (0 Bft) S-SW 202 ° 0 min 0,000 mm 0,0 UV-I 0 W/m² 7,2 °C 8,0 °C 0,0 km/h (0 Bft)
02.11.2019 03:12 8,0 °C 95 % 1002,1 hPa 0,0 mm 0,0 km/h (0 Bft) S-SW 202 ° 0 min 0,000 mm 0,0 UV-I 0 W/m² 7,2 °C 8,0 °C 0,0 km/h (0 Bft)
02.11.2019 03:13 8,0 °C 95 % 1002,1 hPa 0,0 mm 0,0 km/h (0 Bft) S-SW 202 ° 0 min 0,000 mm 0,0 UV-I 0 W/m² 7,2 °C 8,0 °C 0,0 km/h (0 Bft)
02.11.2019 03:14 8,0 °C 95 % 1002,1 hPa 0,0 mm 0,0 km/h (0 Bft) S-SW 202 ° 0 min 0,000 mm 0,0 UV-I 0 W/m² 7,2 °C 8,0 °C 0,0 km/h (0 Bft)
02.11.2019 03:15 8,0 °C 95 % 1002,1 hPa 0,0 mm 0,0 km/h (0 Bft) S-SW 202 ° 0 min 0,000 mm 0,0 UV-I 0 W/m² 7,2 °C 8,0 °C 0,0 km/h (0 Bft)
02.11.2019 03:16 8,0 °C 95 % 1002,0 hPa 0,0 mm 0,0 km/h (0 Bft) S-SW 202 ° 0 min 0,000 mm 0,0 UV-I 0 W/m² 7,2 °C 8,0 °C 0,0 km/h (0 Bft)
02.11.2019 03:17 8,0 °C 95 % 1002,0 hPa 0,0 mm 0,0 km/h (0 Bft) S-SW 202 ° 0 min 0,000 mm 0,0 UV-I 0 W/m² 7,2 °C 8,0 °C 0,0 km/h (0 Bft)
02.11.2019 03:18 8,0 °C 95 % 1002,1 hPa 0,0 mm 0,0 km/h (0 Bft) S-SW 202 ° 0 min 0,000 mm 0,0 UV-I 0 W/m² 7,2 °C 8,0 °C 0,0 km/h (0 Bft)
02.11.2019 03:19 8,0 °C 95 % 1002,0 hPa 0,0 mm 0,0 km/h (0 Bft) S-SW 202 ° 0 min 0,000 mm 0,0 UV-I 0 W/m² 7,2 °C 8,0 °C 0,0 km/h (0 Bft)
02.11.2019 03:20 8,0 °C 95 % 1001,9 hPa 0,0 mm 0,0 km/h (0 Bft) S-SW 202 ° 0 min 0,000 mm 0,0 UV-I 0 W/m² 7,2 °C 8,0 °C 0,0 km/h (0 Bft)
02.11.2019 03:21 8,0 °C 95 % 1001,9 hPa 0,0 mm 0,0 km/h (0 Bft) S-SW 202 ° 0 min 0,000 mm 0,0 UV-I 0 W/m² 7,2 °C 8,0 °C 0,0 km/h (0 Bft)
02.11.2019 03:22 8,0 °C 95 % 1001,9 hPa 0,0 mm 0,0 km/h (0 Bft) S-SW 202 ° 0 min 0,000 mm 0,0 UV-I 0 W/m² 7,2 °C 8,0 °C 0,0 km/h (0 Bft)
02.11.2019 03:23 8,0 °C 95 % 1001,8 hPa 0,0 mm 1,2 km/h (1 Bft) S-SW 202 ° 0 min 0,000 mm 0,0 UV-I 0 W/m² 7,2 °C 8,0 °C 1,6 km/h (1 Bft)
02.11.2019 03:24 8,0 °C 95 % 1001,8 hPa 0,0 mm 1,8 km/h (1 Bft) S-SW 202 ° 0 min 0,000 mm 0,0 UV-I 0 W/m² 7,2 °C 8,0 °C 3,2 km/h (1 Bft)
02.11.2019 03:25 8,1 °C 95 % 1001,7 hPa 0,0 mm 2,3 km/h (1 Bft) S-SW 202 ° 0 min 0,000 mm 0,0 UV-I 0 W/m² 7,3 °C 8,1 °C 3,2 km/h (1 Bft)
02.11.2019 03:26 8,0 °C 95 % 1001,7 hPa 0,0 mm 2,1 km/h (1 Bft) S-SW 202 ° 0 min 0,000 mm 0,0 UV-I 0 W/m² 7,2 °C 8,0 °C 3,2 km/h (1 Bft)
02.11.2019 03:27 8,0 °C 95 % 1001,6 hPa 0,0 mm 0,4 km/h (0 Bft) S-SW 202 ° 0 min 0,000 mm 0,0 UV-I 0 W/m² 7,2 °C 8,0 °C 1,6 km/h (1 Bft)
02.11.2019 03:28 8,1 °C 95 % 1001,6 hPa 0,0 mm 0,0 km/h (0 Bft) S-SW 202 ° 0 min 0,000 mm 0,0 UV-I 0 W/m² 7,3 °C 8,1 °C 0,0 km/h (0 Bft)
02.11.2019 03:29 8,1 °C 95 % 1001,6 hPa 0,0 mm 0,0 km/h (0 Bft) S-SW 202 ° 0 min 0,000 mm 0,0 UV-I 0 W/m² 7,3 °C 8,1 °C 0,0 km/h (0 Bft)
02.11.2019 03:30 8,1 °C 95 % 1001,6 hPa 0,0 mm 0,0 km/h (0 Bft) S-SW 202 ° 0 min 0,000 mm 0,0 UV-I 0 W/m² 7,3 °C 8,1 °C 0,0 km/h (0 Bft)
02.11.2019 03:31 8,1 °C 95 % 1001,6 hPa 0,0 mm 0,0 km/h (0 Bft) S-SW 202 ° 0 min 0,000 mm 0,0 UV-I 0 W/m² 7,3 °C 8,1 °C 0,0 km/h (0 Bft)
02.11.2019 03:32 8,1 °C 95 % 1001,6 hPa 0,0 mm 0,0 km/h (0 Bft) S-SW 202 ° 0 min 0,000 mm 0,0 UV-I 0 W/m² 7,3 °C 8,1 °C 0,0 km/h (0 Bft)
02.11.2019 03:33 8,1 °C 95 % 1001,7 hPa 0,0 mm 0,7 km/h (0 Bft) S-SW 202 ° 0 min 0,000 mm 0,0 UV-I 0 W/m² 7,3 °C 8,1 °C 3,2 km/h (1 Bft)
02.11.2019 03:34 8,1 °C 95 % 1001,6 hPa 0,0 mm 0,1 km/h (0 Bft) S-SW 202 ° 0 min 0,000 mm 0,0 UV-I 0 W/m² 7,3 °C 8,1 °C 1,6 km/h (1 Bft)
02.11.2019 03:35 8,1 °C 95 % 1001,6 hPa 0,0 mm 0,0 km/h (0 Bft) S-SW 202 ° 0 min 0,000 mm 0,0 UV-I 0 W/m² 7,3 °C 8,1 °C 0,0 km/h (0 Bft)
02.11.2019 03:36 8,1 °C 95 % 1001,6 hPa 0,0 mm 0,0 km/h (0 Bft) S-SW 202 ° 0 min 0,000 mm 0,0 UV-I 0 W/m² 7,3 °C 8,1 °C 0,0 km/h (0 Bft)
02.11.2019 03:37 8,1 °C 95 % 1001,6 hPa 0,0 mm 0,0 km/h (0 Bft) S-SW 202 ° 0 min 0,000 mm 0,0 UV-I 0 W/m² 7,3 °C 8,1 °C 0,0 km/h (0 Bft)
02.11.2019 03:38 8,1 °C 95 % 1001,6 hPa 0,0 mm 0,0 km/h (0 Bft) S-SW 202 ° 0 min 0,000 mm 0,0 UV-I 0 W/m² 7,3 °C 8,1 °C 0,0 km/h (0 Bft)
02.11.2019 03:39 8,1 °C 95 % 1001,6 hPa 0,0 mm 0,0 km/h (0 Bft) S-SW 202 ° 0 min 0,000 mm 0,0 UV-I 0 W/m² 7,3 °C 8,1 °C 0,0 km/h (0 Bft)
02.11.2019 03:40 8,1 °C 96 % 1001,5 hPa 0,0 mm 0,0 km/h (0 Bft) S-SW 202 ° 0 min 0,000 mm 0,0 UV-I 0 W/m² 7,5 °C 8,1 °C 0,0 km/h (0 Bft)
02.11.2019 03:41 8,1 °C 96 % 1001,5 hPa 0,0 mm 0,0 km/h (0 Bft) S-SW 202 ° 0 min 0,000 mm 0,0 UV-I 0 W/m² 7,5 °C 8,1 °C 0,0 km/h (0 Bft)
02.11.2019 03:42 8,1 °C 95 % 1001,5 hPa 0,0 mm 0,0 km/h (0 Bft) S-SW 202 ° 0 min 0,000 mm 0,0 UV-I 0 W/m² 7,3 °C 8,1 °C 0,0 km/h (0 Bft)
02.11.2019 03:43 8,1 °C 96 % 1001,4 hPa 0,0 mm 0,0 km/h (0 Bft) S-SW 202 ° 0 min 0,000 mm 0,0 UV-I 0 W/m² 7,5 °C 8,1 °C 0,0 km/h (0 Bft)
02.11.2019 03:44 8,1 °C 96 % 1001,4 hPa 0,0 mm 0,0 km/h (0 Bft) S-SW 202 ° 0 min 0,000 mm 0,0 UV-I 0 W/m² 7,5 °C 8,1 °C 0,0 km/h (0 Bft)
02.11.2019 03:45 8,1 °C 96 % 1001,3 hPa 0,0 mm 0,0 km/h (0 Bft) S-SW 202 ° 0 min 0,000 mm 0,0 UV-I 0 W/m² 7,5 °C 8,1 °C 0,0 km/h (0 Bft)
02.11.2019 03:46 8,1 °C 96 % 1001,3 hPa 0,0 mm 0,2 km/h (0 Bft) S-SW 202 ° 0 min 0,000 mm 0,0 UV-I 0 W/m² 7,5 °C 8,1 °C 1,6 km/h (1 Bft)
02.11.2019 03:47 8,1 °C 96 % 1001,4 hPa 0,0 mm 0,0 km/h (0 Bft) S-SW 202 ° 0 min 0,000 mm 0,0 UV-I 0 W/m² 7,5 °C 8,1 °C 0,0 km/h (0 Bft)
02.11.2019 03:48 8,1 °C 96 % 1001,4 hPa 0,0 mm 0,0 km/h (0 Bft) S-SW 202 ° 0 min 0,000 mm 0,0 UV-I 0 W/m² 7,5 °C 8,1 °C 0,0 km/h (0 Bft)
02.11.2019 03:49 8,1 °C 95 % 1001,4 hPa 0,0 mm 0,0 km/h (0 Bft) S-SW 202 ° 0 min 0,000 mm 0,0 UV-I 0 W/m² 7,3 °C 8,1 °C 0,0 km/h (0 Bft)
02.11.2019 03:50 8,1 °C 95 % 1001,4 hPa 0,0 mm 0,0 km/h (0 Bft) S-SW 202 ° 0 min 0,000 mm 0,0 UV-I 0 W/m² 7,3 °C 8,1 °C 0,0 km/h (0 Bft)
02.11.2019 03:51 8,1 °C 96 % 1001,4 hPa 0,0 mm 0,0 km/h (0 Bft) S-SW 202 ° 0 min 0,000 mm 0,0 UV-I 0 W/m² 7,5 °C 8,1 °C 0,0 km/h (0 Bft)
02.11.2019 03:52 8,1 °C 95 % 1001,4 hPa 0,0 mm 0,0 km/h (0 Bft) S-SW 202 ° 0 min 0,000 mm 0,0 UV-I 0 W/m² 7,3 °C 8,1 °C 0,0 km/h (0 Bft)
02.11.2019 03:53 8,0 °C 95 % 1001,5 hPa 0,0 mm 0,0 km/h (0 Bft) S-SW 202 ° 0 min 0,000 mm 0,0 UV-I 0 W/m² 7,2 °C 8,0 °C 0,0 km/h (0 Bft)
02.11.2019 03:54 8,1 °C 95 % 1001,5 hPa 0,0 mm 0,0 km/h (0 Bft) S-SW 202 ° 0 min 0,000 mm 0,0 UV-I 0 W/m² 7,3 °C 8,1 °C 0,0 km/h (0 Bft)
02.11.2019 03:55 8,1 °C 95 % 1001,4 hPa 0,0 mm 0,0 km/h (0 Bft) S-SW 202 ° 0 min 0,000 mm 0,0 UV-I 0 W/m² 7,3 °C 8,1 °C 0,0 km/h (0 Bft)
02.11.2019 03:56 8,1 °C 95 % 1001,3 hPa 0,0 mm 0,0 km/h (0 Bft) S-SW 202 ° 0 min 0,000 mm 0,0 UV-I 0 W/m² 7,3 °C 8,1 °C 0,0 km/h (0 Bft)
02.11.2019 03:57 8,1 °C 95 % 1001,3 hPa 0,0 mm 0,0 km/h (0 Bft) S-SW 202 ° 0 min 0,000 mm 0,0 UV-I 0 W/m² 7,3 °C 8,1 °C 0,0 km/h (0 Bft)
02.11.2019 03:58 8,1 °C 95 % 1001,2 hPa 0,0 mm 0,0 km/h (0 Bft) S-SW 202 ° 0 min 0,000 mm 0,0 UV-I 0 W/m² 7,3 °C 8,1 °C 0,0 km/h (0 Bft)
02.11.2019 03:59 8,1 °C 95 % 1001,2 hPa 0,0 mm 0,0 km/h (0 Bft) S-SW 202 ° 0 min 0,000 mm 0,0 UV-I 0 W/m² 7,3 °C 8,1 °C 0,0 km/h (0 Bft)
02.11.2019 04:00 8,1 °C 95 % 1001,2 hPa 0,0 mm 0,0 km/h (0 Bft) S-SW 202 ° 0 min 0,000 mm 0,0 UV-I 0 W/m² 7,3 °C 8,1 °C 0,0 km/h (0 Bft)
02.11.2019 04:01 8,1 °C 96 % 1001,2 hPa 0,0 mm 0,7 km/h (0 Bft) O-NO 69 ° 0 min 0,000 mm 0,0 UV-I 0 W/m² 7,5 °C 8,1 °C 4,8 km/h (1 Bft)
02.11.2019 04:02 8,1 °C 95 % 1001,1 hPa 0,0 mm 2,4 km/h (1 Bft) O-NO 69 ° 0 min 0,000 mm 0,0 UV-I 0 W/m² 7,3 °C 8,1 °C 3,2 km/h (1 Bft)
02.11.2019 04:03 8,1 °C 96 % 1001,1 hPa 0,0 mm 2,1 km/h (1 Bft) O-NO 69 ° 0 min 0,000 mm 0,0 UV-I 0 W/m² 7,5 °C 8,1 °C 3,2 km/h (1 Bft)
02.11.2019 04:04 8,1 °C 95 % 1001,0 hPa 0,0 mm 1,1 km/h (1 Bft) O-NO 69 ° 0 min 0,000 mm 0,0 UV-I 0 W/m² 7,3 °C 8,1 °C 3,2 km/h (1 Bft)
02.11.2019 04:05 8,1 °C 96 % 1001,1 hPa 0,0 mm 0,0 km/h (0 Bft) O-NO 69 ° 0 min 0,000 mm 0,0 UV-I 0 W/m² 7,5 °C 8,1 °C 0,0 km/h (0 Bft)
02.11.2019 04:06 8,1 °C 96 % 1001,2 hPa 0,0 mm 4,1 km/h (1 Bft) W-NW 299 ° 0 min 0,000 mm 0,0 UV-I 0 W/m² 7,5 °C 8,1 °C 6,4 km/h (2 Bft)
02.11.2019 04:07 8,1 °C 96 % 1001,2 hPa 0,0 mm 3,8 km/h (1 Bft) W-NW 285 ° 0 min 0,000 mm 0,0 UV-I 0 W/m² 7,5 °C 8,1 °C 4,8 km/h (1 Bft)
02.11.2019 04:08 8,1 °C 96 % 1001,2 hPa 0,0 mm 3,3 km/h (1 Bft) W-NW 291 ° 0 min 0,000 mm 0,0 UV-I 0 W/m² 7,5 °C 8,1 °C 4,8 km/h (1 Bft)
02.11.2019 04:09 8,1 °C 96 % 1001,2 hPa 0,0 mm 3,4 km/h (1 Bft) W-NW 291 ° 0 min 0,000 mm 0,0 UV-I 0 W/m² 7,5 °C 8,1 °C 4,8 km/h (1 Bft)
02.11.2019 04:10 8,1 °C 96 % 1001,2 hPa 0,0 mm 3,5 km/h (1 Bft) W-NW 291 ° 0 min 0,000 mm 0,0 UV-I 0 W/m² 7,5 °C 8,1 °C 6,4 km/h (2 Bft)
02.11.2019 04:11 8,1 °C 96 % 1001,2 hPa 0,0 mm 1,3 km/h (1 Bft) W-NW 291 ° 0 min 0,000 mm 0,0 UV-I 0 W/m² 7,5 °C 8,1 °C 1,6 km/h (1 Bft)
02.11.2019 04:12 8,1 °C 96 % 1001,2 hPa 0,0 mm 0,0 km/h (0 Bft) W-NW 291 ° 0 min 0,000 mm 0,0 UV-I 0 W/m² 7,5 °C 8,1 °C 0,0 km/h (0 Bft)
02.11.2019 04:13 8,1 °C 96 % 1001,2 hPa 0,0 mm 0,1 km/h (0 Bft) W-NW 291 ° 0 min 0,000 mm 0,0 UV-I 0 W/m² 7,5 °C 8,1 °C 1,6 km/h (1 Bft)
02.11.2019 04:14 8,1 °C 96 % 1001,2 hPa 0,0 mm 1,9 km/h (1 Bft) W-NW 291 ° 0 min 0,000 mm 0,0 UV-I 0 W/m² 7,5 °C 8,1 °C 3,2 km/h (1 Bft)
02.11.2019 04:15 8,1 °C 96 % 1001,2 hPa 0,0 mm 1,5 km/h (1 Bft) W-NW 291 ° 0 min 0,000 mm 0,0 UV-I 0 W/m² 7,5 °C 8,1 °C 3,2 km/h (1 Bft)
02.11.2019 04:16 8,1 °C 96 % 1001,2 hPa 0,0 mm 0,7 km/h (0 Bft) W-NW 291 ° 0 min 0,000 mm 0,0 UV-I 0 W/m² 7,5 °C 8,1 °C 3,2 km/h (1 Bft)
02.11.2019 04:17 8,1 °C 96 % 1001,2 hPa 0,0 mm 0,0 km/h (0 Bft) W-NW 291 ° 0 min 0,000 mm 0,0 UV-I 0 W/m² 7,5 °C 8,1 °C 0,0 km/h (0 Bft)
02.11.2019 04:18 8,2 °C 96 % 1001,2 hPa 0,0 mm 0,0 km/h (0 Bft) W-NW 291 ° 0 min 0,000 mm 0,0 UV-I 0 W/m² 7,6 °C 8,2 °C 0,0 km/h (0 Bft)
02.11.2019 04:19 8,1 °C 96 % 1001,0 hPa 0,0 mm 0,4 km/h (0 Bft) O 97 ° 0 min 0,000 mm 0,0 UV-I 0 W/m² 7,5 °C 8,1 °C 3,2 km/h (1 Bft)
02.11.2019 04:20 8,1 °C 96 % 1001,0 hPa 0,0 mm 3,9 km/h (1 Bft) O-NO 68 ° 0 min 0,000 mm 0,0 UV-I 0 W/m² 7,5 °C 8,1 °C 4,8 km/h (1 Bft)
02.11.2019 04:21 8,2 °C 96 % 1000,9 hPa 0,0 mm 2,5 km/h (1 Bft) O-NO 68 ° 0 min 0,000 mm 0,0 UV-I 0 W/m² 7,6 °C 8,2 °C 4,8 km/h (1 Bft)
02.11.2019 04:22 8,1 °C 96 % 1000,9 hPa 0,0 mm 0,5 km/h (0 Bft) O-NO 68 ° 0 min 0,000 mm 0,0 UV-I 0 W/m² 7,5 °C 8,1 °C 1,6 km/h (1 Bft)
02.11.2019 04:23 8,2 °C 96 % 1000,9 hPa 0,0 mm 0,0 km/h (0 Bft) O-NO 68 ° 0 min 0,000 mm 0,0 UV-I 0 W/m² 7,6 °C 8,2 °C 0,0 km/h (0 Bft)
02.11.2019 04:24 8,1 °C 96 % 1000,9 hPa 0,0 mm 0,0 km/h (0 Bft) O-NO 68 ° 0 min 0,000 mm 0,0 UV-I 0 W/m² 7,5 °C 8,1 °C 0,0 km/h (0 Bft)
02.11.2019 04:25 8,1 °C 96 % 1000,9 hPa 0,0 mm 0,0 km/h (0 Bft) O-NO 68 ° 0 min 0,000 mm 0,0 UV-I 0 W/m² 7,5 °C 8,1 °C 0,0 km/h (0 Bft)
02.11.2019 04:26 8,2 °C 96 % 1000,9 hPa 0,0 mm 0,0 km/h (0 Bft) O-NO 68 ° 0 min 0,000 mm 0,0 UV-I 0 W/m² 7,6 °C 8,2 °C 0,0 km/h (0 Bft)
02.11.2019 04:27 8,2 °C 96 % 1000,9 hPa 0,0 mm 0,0 km/h (0 Bft) O-NO 68 ° 0 min 0,000 mm 0,0 UV-I 0 W/m² 7,6 °C 8,2 °C 0,0 km/h (0 Bft)
02.11.2019 04:28 8,1 °C 96 % 1000,9 hPa 0,0 mm 0,6 km/h (0 Bft) O-NO 68 ° 0 min 0,000 mm 0,0 UV-I 0 W/m² 7,5 °C 8,1 °C 1,6 km/h (1 Bft)
02.11.2019 04:29 8,2 °C 96 % 1000,9 hPa 0,0 mm 0,0 km/h (0 Bft) O-NO 68 ° 0 min 0,000 mm 0,0 UV-I 0 W/m² 7,6 °C 8,2 °C 0,0 km/h (0 Bft)
02.11.2019 04:30 8,1 °C 96 % 1000,8 hPa 0,0 mm 1,1 km/h (1 Bft) O-NO 68 ° 0 min 0,000 mm 0,0 UV-I 0 W/m² 7,5 °C 8,1 °C 3,2 km/h (1 Bft)
02.11.2019 04:31 8,2 °C 96 % 1000,8 hPa 0,0 mm 1,5 km/h (1 Bft) O-NO 68 ° 0 min 0,000 mm 0,0 UV-I 0 W/m² 7,6 °C 8,2 °C 3,2 km/h (1 Bft)
02.11.2019 04:32 8,2 °C 96 % 1000,8 hPa 0,0 mm 0,6 km/h (0 Bft) O-NO 68 ° 0 min 0,000 mm 0,0 UV-I 0 W/m² 7,6 °C 8,2 °C 1,6 km/h (1 Bft)
02.11.2019 04:33 8,1 °C 96 % 1000,9 hPa 0,0 mm 0,0 km/h (0 Bft) O-NO 68 ° 0 min 0,000 mm 0,0 UV-I 0 W/m² 7,5 °C 8,1 °C 0,0 km/h (0 Bft)
02.11.2019 04:34 8,2 °C 96 % 1000,9 hPa 0,0 mm 0,0 km/h (0 Bft) O-NO 68 ° 0 min 0,000 mm 0,0 UV-I 0 W/m² 7,6 °C 8,2 °C 0,0 km/h (0 Bft)
02.11.2019 04:35 8,2 °C 96 % 1000,9 hPa 0,0 mm 0,0 km/h (0 Bft) O-NO 68 ° 0 min 0,000 mm 0,0 UV-I 0 W/m² 7,6 °C 8,2 °C 0,0 km/h (0 Bft)
02.11.2019 04:36 8,2 °C 96 % 1000,9 hPa 0,0 mm 0,0 km/h (0 Bft) O-NO 68 ° 0 min 0,000 mm 0,0 UV-I 0 W/m² 7,6 °C 8,2 °C 0,0 km/h (0 Bft)
02.11.2019 04:37 8,2 °C 96 % 1000,8 hPa 0,0 mm 0,0 km/h (0 Bft) O-NO 68 ° 0 min 0,000 mm 0,0 UV-I 0 W/m² 7,6 °C 8,2 °C 0,0 km/h (0 Bft)
02.11.2019 04:38 8,1 °C 96 % 1000,8 hPa 0,0 mm 0,0 km/h (0 Bft) O-NO 68 ° 0 min 0,000 mm 0,0 UV-I 0 W/m² 7,5 °C 8,1 °C 0,0 km/h (0 Bft)
02.11.2019 04:39 8,2 °C 96 % 1000,9 hPa 0,0 mm 0,0 km/h (0 Bft) O-NO 68 ° 0 min 0,000 mm 0,0 UV-I 0 W/m² 7,6 °C 8,2 °C 0,0 km/h (0 Bft)
02.11.2019 04:40 8,2 °C 96 % 1000,8 hPa 0,0 mm 0,0 km/h (0 Bft) O-NO 68 ° 0 min 0,000 mm 0,0 UV-I 0 W/m² 7,6 °C 8,2 °C 0,0 km/h (0 Bft)
02.11.2019 04:41 8,1 °C 96 % 1000,8 hPa 0,0 mm 0,0 km/h (0 Bft) O-NO 68 ° 0 min 0,000 mm 0,0 UV-I 0 W/m² 7,5 °C 8,1 °C 0,0 km/h (0 Bft)
02.11.2019 04:42 8,1 °C 96 % 1000,8 hPa 0,0 mm 0,0 km/h (0 Bft) O-NO 68 ° 0 min 0,000 mm 0,0 UV-I 0 W/m² 7,5 °C 8,1 °C 0,0 km/h (0 Bft)
02.11.2019 04:43 8,1 °C 96 % 1000,8 hPa 0,0 mm 0,0 km/h (0 Bft) O-NO 68 ° 0 min 0,000 mm 0,0 UV-I 0 W/m² 7,5 °C 8,1 °C 0,0 km/h (0 Bft)
02.11.2019 04:44 8,1 °C 96 % 1000,8 hPa 0,0 mm 0,0 km/h (0 Bft) O-NO 68 ° 0 min 0,000 mm 0,0 UV-I 0 W/m² 7,5 °C 8,1 °C 0,0 km/h (0 Bft)
02.11.2019 04:45 8,1 °C 96 % 1000,8 hPa 0,0 mm 0,0 km/h (0 Bft) O-NO 68 ° 0 min 0,000 mm 0,0 UV-I 0 W/m² 7,5 °C 8,1 °C 0,0 km/h (0 Bft)
02.11.2019 04:46 8,1 °C 96 % 1000,7 hPa 0,0 mm 0,0 km/h (0 Bft) O-NO 68 ° 0 min 0,000 mm 0,0 UV-I 0 W/m² 7,5 °C 8,1 °C 0,0 km/h (0 Bft)
02.11.2019 04:47 8,1 °C 96 % 1000,8 hPa 0,0 mm 0,9 km/h (0 Bft) O-NO 68 ° 0 min 0,000 mm 0,0 UV-I 0 W/m² 7,5 °C 8,1 °C 1,6 km/h (1 Bft)
02.11.2019 04:48 8,1 °C 96 % 1000,7 hPa 0,0 mm 0,3 km/h (0 Bft) O-NO 68 ° 0 min 0,000 mm 0,0 UV-I 0 W/m² 7,5 °C 8,1 °C 1,6 km/h (1 Bft)
02.11.2019 04:49 8,1 °C 96 % 1000,7 hPa 0,0 mm 1,9 km/h (1 Bft) O-NO 68 ° 0 min 0,000 mm 0,0 UV-I 0 W/m² 7,5 °C 8,1 °C 3,2 km/h (1 Bft)
02.11.2019 04:50 8,1 °C 96 % 1000,7 hPa 0,0 mm 0,2 km/h (0 Bft) O-NO 68 ° 0 min 0,000 mm 0,0 UV-I 0 W/m² 7,5 °C 8,1 °C 1,6 km/h (1 Bft)
02.11.2019 04:51 8,1 °C 96 % 1000,7 hPa 0,0 mm 0,0 km/h (0 Bft) O-NO 68 ° 0 min 0,000 mm 0,0 UV-I 0 W/m² 7,5 °C 8,1 °C 0,0 km/h (0 Bft)
02.11.2019 04:52 8,1 °C 96 % 1000,7 hPa 0,0 mm 0,0 km/h (0 Bft) O-NO 68 ° 0 min 0,000 mm 0,0 UV-I 0 W/m² 7,5 °C 8,1 °C 0,0 km/h (0 Bft)
02.11.2019 04:53 8,1 °C 96 % 1000,7 hPa 0,0 mm 0,0 km/h (0 Bft) O-NO 68 ° 0 min 0,000 mm 0,0 UV-I 0 W/m² 7,5 °C 8,1 °C 0,0 km/h (0 Bft)
02.11.2019 04:54 8,1 °C 95 % 1000,7 hPa 0,0 mm 0,0 km/h (0 Bft) O-NO 68 ° 0 min 0,000 mm 0,0 UV-I 0 W/m² 7,3 °C 8,1 °C 0,0 km/h (0 Bft)
02.11.2019 04:55 8,1 °C 95 % 1000,7 hPa 0,0 mm 0,0 km/h (0 Bft) O-NO 68 ° 0 min 0,000 mm 0,0 UV-I 0 W/m² 7,3 °C 8,1 °C 0,0 km/h (0 Bft)
02.11.2019 04:56 8,1 °C 95 % 1000,7 hPa 0,0 mm 0,0 km/h (0 Bft) O-NO 68 ° 0 min 0,000 mm 0,0 UV-I 0 W/m² 7,3 °C 8,1 °C 0,0 km/h (0 Bft)
02.11.2019 04:57 8,1 °C 95 % 1000,6 hPa 0,0 mm 0,0 km/h (0 Bft) O-NO 68 ° 0 min 0,000 mm 0,0 UV-I 0 W/m² 7,3 °C 8,1 °C 0,0 km/h (0 Bft)
02.11.2019 04:58 8,1 °C 95 % 1000,6 hPa 0,0 mm 0,0 km/h (0 Bft) O-NO 68 ° 0 min 0,000 mm 0,0 UV-I 0 W/m² 7,3 °C 8,1 °C 0,0 km/h (0 Bft)
02.11.2019 04:59 8,1 °C 96 % 1000,7 hPa 0,0 mm 0,0 km/h (0 Bft) O-NO 68 ° 0 min 0,000 mm 0,0 UV-I 0 W/m² 7,5 °C 8,1 °C 0,0 km/h (0 Bft)
02.11.2019 05:00 8,1 °C 96 % 1000,7 hPa 0,0 mm 0,0 km/h (0 Bft) O-NO 68 ° 0 min 0,000 mm 0,0 UV-I 0 W/m² 7,5 °C 8,1 °C 0,0 km/h (0 Bft)
02.11.2019 05:01 8,1 °C 95 % 1000,7 hPa 0,0 mm 0,0 km/h (0 Bft) O-NO 68 ° 0 min 0,000 mm 0,0 UV-I 0 W/m² 7,3 °C 8,1 °C 0,0 km/h (0 Bft)
02.11.2019 05:02 8,1 °C 96 % 1000,7 hPa 0,0 mm 0,0 km/h (0 Bft) O-NO 68 ° 0 min 0,000 mm 0,0 UV-I 0 W/m² 7,5 °C 8,1 °C 0,0 km/h (0 Bft)
02.11.2019 05:03 8,0 °C 95 % 1000,7 hPa 0,0 mm 0,3 km/h (0 Bft) O-NO 68 ° 0 min 0,000 mm 0,0 UV-I 0 W/m² 7,2 °C 8,0 °C 1,6 km/h (1 Bft)
02.11.2019 05:04 8,0 °C 96 % 1000,6 hPa 0,0 mm 0,0 km/h (0 Bft) O-NO 68 ° 0 min 0,000 mm 0,0 UV-I 0 W/m² 7,4 °C 8,0 °C 0,0 km/h (0 Bft)
02.11.2019 05:05 8,0 °C 95 % 1000,6 hPa 0,0 mm 0,0 km/h (0 Bft) O-NO 68 ° 0 min 0,000 mm 0,0 UV-I 0 W/m² 7,2 °C 8,0 °C 0,0 km/h (0 Bft)
02.11.2019 05:06 8,0 °C 96 % 1000,7 hPa 0,0 mm 0,0 km/h (0 Bft) O-NO 68 ° 0 min 0,000 mm 0,0 UV-I 0 W/m² 7,4 °C 8,0 °C 0,0 km/h (0 Bft)
02.11.2019 05:07 8,0 °C 96 % 1000,5 hPa 0,0 mm 0,0 km/h (0 Bft) O-NO 68 ° 0 min 0,000 mm 0,0 UV-I 0 W/m² 7,4 °C 8,0 °C 0,0 km/h (0 Bft)
02.11.2019 05:08 8,0 °C 96 % 1000,6 hPa 0,0 mm 0,0 km/h (0 Bft) O-NO 68 ° 0 min 0,000 mm 0,0 UV-I 0 W/m² 7,4 °C 8,0 °C 0,0 km/h (0 Bft)
02.11.2019 05:09 8,0 °C 96 % 1000,6 hPa 0,0 mm 0,1 km/h (0 Bft) O-NO 68 ° 0 min 0,000 mm 0,0 UV-I 0 W/m² 7,4 °C 8,0 °C 1,6 km/h (1 Bft)
02.11.2019 05:10 8,0 °C 96 % 1000,6 hPa 0,0 mm 1,1 km/h (1 Bft) O-NO 68 ° 0 min 0,000 mm 0,0 UV-I 0 W/m² 7,4 °C 8,0 °C 1,6 km/h (1 Bft)
02.11.2019 05:11 8,0 °C 96 % 1000,7 hPa 0,0 mm 0,0 km/h (0 Bft) O-NO 68 ° 0 min 0,000 mm 0,0 UV-I 0 W/m² 7,4 °C 8,0 °C 0,0 km/h (0 Bft)
02.11.2019 05:12 8,0 °C 96 % 1000,8 hPa 0,0 mm 0,1 km/h (0 Bft) O-NO 68 ° 0 min 0,000 mm 0,0 UV-I 0 W/m² 7,4 °C 8,0 °C 1,6 km/h (1 Bft)
02.11.2019 05:13 8,0 °C 96 % 1000,7 hPa 0,0 mm 0,1 km/h (0 Bft) O-NO 68 ° 0 min 0,000 mm 0,0 UV-I 0 W/m² 7,4 °C 8,0 °C 1,6 km/h (1 Bft)
02.11.2019 05:14 8,0 °C 96 % 1000,8 hPa 0,0 mm 0,0 km/h (0 Bft) O-NO 68 ° 0 min 0,000 mm 0,0 UV-I 0 W/m² 7,4 °C 8,0 °C 0,0 km/h (0 Bft)
02.11.2019 05:15 7,9 °C 96 % 1000,7 hPa 0,0 mm 0,0 km/h (0 Bft) O-NO 68 ° 0 min 0,000 mm 0,0 UV-I 0 W/m² 7,3 °C 7,9 °C 0,0 km/h (0 Bft)
02.11.2019 05:16 7,9 °C 96 % 1000,7 hPa 0,0 mm 0,0 km/h (0 Bft) O-NO 68 ° 0 min 0,000 mm 0,0 UV-I 0 W/m² 7,3 °C 7,9 °C 0,0 km/h (0 Bft)
02.11.2019 05:17 8,0 °C 96 % 1000,6 hPa 0,0 mm 0,0 km/h (0 Bft) O-NO 68 ° 0 min 0,000 mm 0,0 UV-I 0 W/m² 7,4 °C 8,0 °C 0,0 km/h (0 Bft)
02.11.2019 05:18 8,0 °C 96 % 1000,6 hPa 0,0 mm 0,0 km/h (0 Bft) O-NO 68 ° 0 min 0,000 mm 0,0 UV-I 0 W/m² 7,4 °C 8,0 °C 0,0 km/h (0 Bft)
02.11.2019 05:19 8,0 °C 96 % 1000,6 hPa 0,0 mm 1,7 km/h (1 Bft) O-NO 68 ° 0 min 0,000 mm 0,0 UV-I 0 W/m² 7,4 °C 8,0 °C 3,2 km/h (1 Bft)
02.11.2019 05:20 7,9 °C 96 % 1000,6 hPa 0,0 mm 1,3 km/h (1 Bft) SO 128 ° 0 min 0,000 mm 0,0 UV-I 0 W/m² 7,3 °C 7,9 °C 4,8 km/h (1 Bft)
02.11.2019 05:21 8,0 °C 96 % 1000,6 hPa 0,0 mm 1,1 km/h (1 Bft) SO 128 ° 0 min 0,000 mm 0,0 UV-I 0 W/m² 7,4 °C 8,0 °C 4,8 km/h (1 Bft)
02.11.2019 05:22 7,9 °C 96 % 1000,7 hPa 0,0 mm 1,2 km/h (1 Bft) W-SW 256 ° 0 min 0,000 mm 0,0 UV-I 0 W/m² 7,3 °C 7,9 °C 3,2 km/h (1 Bft)
02.11.2019 05:23 7,9 °C 96 % 1000,7 hPa 0,0 mm 2,7 km/h (1 Bft) W 269 ° 0 min 0,000 mm 0,0 UV-I 0 W/m² 7,3 °C 7,9 °C 4,8 km/h (1 Bft)
02.11.2019 05:24 7,9 °C 96 % 1000,6 hPa 0,0 mm 0,3 km/h (0 Bft) W 269 ° 0 min 0,000 mm 0,0 UV-I 0 W/m² 7,3 °C 7,9 °C 1,6 km/h (1 Bft)
02.11.2019 05:25 8,0 °C 96 % 1000,5 hPa 0,0 mm 0,0 km/h (0 Bft) W 269 ° 0 min 0,000 mm 0,0 UV-I 0 W/m² 7,4 °C 8,0 °C 0,0 km/h (0 Bft)
02.11.2019 05:26 7,9 °C 96 % 1000,5 hPa 0,0 mm 0,0 km/h (0 Bft) W 269 ° 0 min 0,000 mm 0,0 UV-I 0 W/m² 7,3 °C 7,9 °C 0,0 km/h (0 Bft)
02.11.2019 05:27 7,9 °C 96 % 1000,5 hPa 0,0 mm 0,0 km/h (0 Bft) W 269 ° 0 min 0,000 mm 0,0 UV-I 0 W/m² 7,3 °C 7,9 °C 0,0 km/h (0 Bft)
02.11.2019 05:28 7,9 °C 96 % 1000,5 hPa 0,0 mm 0,0 km/h (0 Bft) W 269 ° 0 min 0,000 mm 0,0 UV-I 0 W/m² 7,3 °C 7,9 °C 0,0 km/h (0 Bft)
02.11.2019 05:29 7,9 °C 96 % 1000,5 hPa 0,0 mm 0,0 km/h (0 Bft) W 269 ° 0 min 0,000 mm 0,0 UV-I 0 W/m² 7,3 °C 7,9 °C 0,0 km/h (0 Bft)
02.11.2019 05:30 7,9 °C 96 % 1000,5 hPa 0,0 mm 0,0 km/h (0 Bft) W 269 ° 0 min 0,000 mm 0,0 UV-I 0 W/m² 7,3 °C 7,9 °C 0,0 km/h (0 Bft)
02.11.2019 05:31 7,9 °C 96 % 1000,6 hPa 0,0 mm 0,0 km/h (0 Bft) W 269 ° 0 min 0,000 mm 0,0 UV-I 0 W/m² 7,3 °C 7,9 °C 0,0 km/h (0 Bft)
02.11.2019 05:32 8,0 °C 96 % 1000,5 hPa 0,0 mm 0,0 km/h (0 Bft) W 269 ° 0 min 0,000 mm 0,0 UV-I 0 W/m² 7,4 °C 8,0 °C 0,0 km/h (0 Bft)
02.11.2019 05:33 7,9 °C 96 % 1000,5 hPa 0,0 mm 0,0 km/h (0 Bft) W 269 ° 0 min 0,000 mm 0,0 UV-I 0 W/m² 7,3 °C 7,9 °C 0,0 km/h (0 Bft)
02.11.2019 05:34 7,9 °C 96 % 1000,5 hPa 0,0 mm 0,0 km/h (0 Bft) W 269 ° 0 min 0,000 mm 0,0 UV-I 0 W/m² 7,3 °C 7,9 °C 0,0 km/h (0 Bft)
02.11.2019 05:35 7,9 °C 96 % 1000,5 hPa 0,0 mm 0,0 km/h (0 Bft) W 269 ° 0 min 0,000 mm 0,0 UV-I 0 W/m² 7,3 °C 7,9 °C 0,0 km/h (0 Bft)
02.11.2019 05:36 7,9 °C 96 % 1000,5 hPa 0,0 mm 0,0 km/h (0 Bft) W 269 ° 0 min 0,000 mm 0,0 UV-I 0 W/m² 7,3 °C 7,9 °C 0,0 km/h (0 Bft)
02.11.2019 05:37 8,0 °C 96 % 1000,5 hPa 0,0 mm 1,2 km/h (1 Bft) W 269 ° 0 min 0,000 mm 0,0 UV-I 0 W/m² 7,4 °C 8,0 °C 3,2 km/h (1 Bft)
02.11.2019 05:38 8,0 °C 96 % 1000,5 hPa 0,0 mm 4,8 km/h (1 Bft) S-SW 212 ° 0 min 0,000 mm 0,0 UV-I 0 W/m² 7,4 °C 7,6 °C 6,4 km/h (2 Bft)
02.11.2019 05:39 8,0 °C 96 % 1000,5 hPa 0,0 mm 3,0 km/h (1 Bft) S-SW 212 ° 0 min 0,000 mm 0,0 UV-I 0 W/m² 7,4 °C 8,0 °C 6,4 km/h (2 Bft)
02.11.2019 05:40 8,0 °C 96 % 1000,5 hPa 0,0 mm 2,9 km/h (1 Bft) S-SW 212 ° 0 min 0,000 mm 0,0 UV-I 0 W/m² 7,4 °C 8,0 °C 3,2 km/h (1 Bft)
02.11.2019 05:41 8,1 °C 96 % 1000,5 hPa 0,0 mm 3,0 km/h (1 Bft) S-SW 212 ° 0 min 0,000 mm 0,0 UV-I 0 W/m² 7,5 °C 8,1 °C 4,8 km/h (1 Bft)
02.11.2019 05:42 8,1 °C 96 % 1000,5 hPa 0,0 mm 2,2 km/h (1 Bft) S-SW 212 ° 0 min 0,000 mm 0,0 UV-I 0 W/m² 7,5 °C 8,1 °C 3,2 km/h (1 Bft)
02.11.2019 05:43 8,1 °C 96 % 1000,6 hPa 0,0 mm 0,5 km/h (0 Bft) S-SW 212 ° 0 min 0,000 mm 0,0 UV-I 0 W/m² 7,5 °C 8,1 °C 1,6 km/h (1 Bft)
02.11.2019 05:44 8,1 °C 96 % 1000,6 hPa 0,0 mm 1,7 km/h (1 Bft) W-SW 247 ° 0 min 0,000 mm 0,0 UV-I 0 W/m² 7,5 °C 8,1 °C 4,8 km/h (1 Bft)
02.11.2019 05:45 8,1 °C 96 % 1000,6 hPa 0,0 mm 0,9 km/h (0 Bft) W-SW 247 ° 0 min 0,000 mm 0,0 UV-I 0 W/m² 7,5 °C 8,1 °C 3,2 km/h (1 Bft)
02.11.2019 05:46 8,1 °C 96 % 1000,7 hPa 0,0 mm 0,0 km/h (0 Bft) W-SW 247 ° 0 min 0,000 mm 0,0 UV-I 0 W/m² 7,5 °C 8,1 °C 0,0 km/h (0 Bft)
02.11.2019 05:47 8,1 °C 96 % 1000,6 hPa 0,0 mm 0,0 km/h (0 Bft) W-SW 247 ° 0 min 0,000 mm 0,0 UV-I 0 W/m² 7,5 °C 8,1 °C 0,0 km/h (0 Bft)
02.11.2019 05:48 8,1 °C 96 % 1000,7 hPa 0,0 mm 0,0 km/h (0 Bft) W-SW 247 ° 0 min 0,000 mm 0,0 UV-I 0 W/m² 7,5 °C 8,1 °C 0,0 km/h (0 Bft)
02.11.2019 05:49 8,1 °C 96 % 1000,7 hPa 0,0 mm 0,0 km/h (0 Bft) W-SW 247 ° 0 min 0,000 mm 0,0 UV-I 0 W/m² 7,5 °C 8,1 °C 0,0 km/h (0 Bft)
02.11.2019 05:50 8,2 °C 96 % 1000,8 hPa 0,0 mm 0,0 km/h (0 Bft) W-SW 247 ° 0 min 0,000 mm 0,0 UV-I 0 W/m² 7,6 °C 8,2 °C 0,0 km/h (0 Bft)
02.11.2019 05:51 8,2 °C 96 % 1000,8 hPa 0,0 mm 0,0 km/h (0 Bft) W-SW 247 ° 0 min 0,000 mm 0,0 UV-I 0 W/m² 7,6 °C 8,2 °C 0,0 km/h (0 Bft)
02.11.2019 05:52 8,2 °C 96 % 1000,9 hPa 0,0 mm 0,0 km/h (0 Bft) W-SW 247 ° 0 min 0,000 mm 0,0 UV-I 0 W/m² 7,6 °C 8,2 °C 0,0 km/h (0 Bft)
02.11.2019 05:53 8,2 °C 96 % 1000,8 hPa 0,0 mm 0,0 km/h (0 Bft) W-SW 247 ° 0 min 0,000 mm 0,0 UV-I 0 W/m² 7,6 °C 8,2 °C 0,0 km/h (0 Bft)
02.11.2019 05:54 8,3 °C 96 % 1000,8 hPa 0,0 mm 2,1 km/h (1 Bft) W-SW 246 ° 0 min 0,000 mm 0,0 UV-I 0 W/m² 7,7 °C 8,3 °C 4,8 km/h (1 Bft)
02.11.2019 05:55 8,3 °C 96 % 1000,8 hPa 0,0 mm 2,5 km/h (1 Bft) W-SW 246 ° 0 min 0,000 mm 0,0 UV-I 0 W/m² 7,7 °C 8,3 °C 3,2 km/h (1 Bft)
02.11.2019 05:56 8,3 °C 96 % 1000,8 hPa 0,0 mm 0,1 km/h (0 Bft) W-SW 246 ° 0 min 0,000 mm 0,0 UV-I 0 W/m² 7,7 °C 8,3 °C 1,6 km/h (1 Bft)
02.11.2019 05:57 8,3 °C 96 % 1000,8 hPa 0,0 mm 0,3 km/h (0 Bft) W-SW 246 ° 0 min 0,000 mm 0,0 UV-I 0 W/m² 7,7 °C 8,3 °C 1,6 km/h (1 Bft)
02.11.2019 05:58 8,3 °C 96 % 1000,8 hPa 0,0 mm 1,3 km/h (1 Bft) W-SW 246 ° 0 min 0,000 mm 0,0 UV-I 0 W/m² 7,7 °C 8,3 °C 4,8 km/h (1 Bft)
02.11.2019 05:59 8,3 °C 96 % 1000,7 hPa 0,0 mm 1,2 km/h (1 Bft) W-SW 246 ° 0 min 0,000 mm 0,0 UV-I 0 W/m² 7,7 °C 8,3 °C 3,2 km/h (1 Bft)
02.11.2019 06:00 8,3 °C 96 % 1000,7 hPa 0,0 mm 0,8 km/h (0 Bft) S-SW 201 ° 0 min 0,000 mm 0,0 UV-I 0 W/m² 7,7 °C 8,3 °C 3,2 km/h (1 Bft)
02.11.2019 06:01 8,3 °C 96 % 1000,7 hPa 0,0 mm 0,6 km/h (0 Bft) S-SW 201 ° 0 min 0,000 mm 0,0 UV-I 0 W/m² 7,7 °C 8,3 °C 1,6 km/h (1 Bft)
02.11.2019 06:02 8,3 °C 96 % 1000,7 hPa 0,0 mm 2,0 km/h (1 Bft) S-SW 200 ° 0 min 0,000 mm 0,0 UV-I 0 W/m² 7,7 °C 8,3 °C 4,8 km/h (1 Bft)
02.11.2019 06:03 8,3 °C 96 % 1000,7 hPa 0,0 mm 3,6 km/h (1 Bft) S-SW 200 ° 0 min 0,000 mm 0,0 UV-I 0 W/m² 7,7 °C 8,3 °C 4,8 km/h (1 Bft)
02.11.2019 06:04 8,4 °C 96 % 1000,7 hPa 0,0 mm 3,2 km/h (1 Bft) S-SW 200 ° 0 min 0,000 mm 0,0 UV-I 0 W/m² 7,8 °C 8,4 °C 4,8 km/h (1 Bft)
02.11.2019 06:05 8,4 °C 96 % 1000,7 hPa 0,0 mm 3,0 km/h (1 Bft) S-SW 200 ° 0 min 0,000 mm 0,0 UV-I 0 W/m² 7,8 °C 8,4 °C 3,2 km/h (1 Bft)
02.11.2019 06:06 8,4 °C 96 % 1000,7 hPa 0,0 mm 3,1 km/h (1 Bft) S-SW 200 ° 0 min 0,000 mm 0,0 UV-I 0 W/m² 7,8 °C 8,4 °C 3,2 km/h (1 Bft)
02.11.2019 06:07 8,4 °C 96 % 1000,6 hPa 0,0 mm 3,1 km/h (1 Bft) S-SW 200 ° 0 min 0,000 mm 0,0 UV-I 0 W/m² 7,8 °C 8,4 °C 4,8 km/h (1 Bft)
02.11.2019 06:08 8,4 °C 96 % 1000,6 hPa 0,0 mm 2,9 km/h (1 Bft) S 178 ° 0 min 0,000 mm 0,0 UV-I 0 W/m² 7,8 °C 8,4 °C 4,8 km/h (1 Bft)
02.11.2019 06:09 8,4 °C 96 % 1000,6 hPa 0,0 mm 3,2 km/h (1 Bft) S 178 ° 0 min 0,000 mm 0,0 UV-I 0 W/m² 7,8 °C 8,4 °C 4,8 km/h (1 Bft)
02.11.2019 06:10 8,4 °C 96 % 1000,6 hPa 0,0 mm 3,2 km/h (1 Bft) S 178 ° 0 min 0,000 mm 0,0 UV-I 0 W/m² 7,8 °C 8,4 °C 4,8 km/h (1 Bft)
02.11.2019 06:11 8,4 °C 96 % 1000,6 hPa 0,0 mm 1,9 km/h (1 Bft) S 178 ° 0 min 0,000 mm 0,0 UV-I 0 W/m² 7,8 °C 8,4 °C 3,2 km/h (1 Bft)
02.11.2019 06:12 8,4 °C 96 % 1000,6 hPa 0,0 mm 1,6 km/h (1 Bft) S 178 ° 0 min 0,000 mm 0,0 UV-I 0 W/m² 7,8 °C 8,4 °C 3,2 km/h (1 Bft)
02.11.2019 06:13 8,4 °C 96 % 1000,5 hPa 0,0 mm 1,1 km/h (1 Bft) S 178 ° 0 min 0,000 mm 0,0 UV-I 0 W/m² 7,8 °C 8,4 °C 3,2 km/h (1 Bft)
02.11.2019 06:14 8,4 °C 96 % 1000,6 hPa 0,0 mm 0,3 km/h (0 Bft) S 178 ° 0 min 0,000 mm 0,0 UV-I 0 W/m² 7,8 °C 8,4 °C 3,2 km/h (1 Bft)
02.11.2019 06:15 8,4 °C 96 % 1000,5 hPa 0,0 mm 2,9 km/h (1 Bft) S 178 ° 0 min 0,000 mm 0,0 UV-I 0 W/m² 7,8 °C 8,4 °C 4,8 km/h (1 Bft)
02.11.2019 06:16 8,4 °C 96 % 1000,5 hPa 0,0 mm 0,6 km/h (0 Bft) S 178 ° 0 min 0,000 mm 0,0 UV-I 0 W/m² 7,8 °C 8,4 °C 3,2 km/h (1 Bft)
02.11.2019 06:17 8,5 °C 96 % 1000,6 hPa 0,0 mm 0,0 km/h (0 Bft) S 178 ° 0 min 0,000 mm 0,0 UV-I 0 W/m² 7,9 °C 8,5 °C 0,0 km/h (0 Bft)
02.11.2019 06:18 8,5 °C 96 % 1000,6 hPa 0,0 mm 0,0 km/h (0 Bft) S 178 ° 0 min 0,000 mm 0,0 UV-I 0 W/m² 7,9 °C 8,5 °C 0,0 km/h (0 Bft)
02.11.2019 06:19 8,5 °C 96 % 1000,6 hPa 0,0 mm 0,1 km/h (0 Bft) S 178 ° 0 min 0,000 mm 0,0 UV-I 0 W/m² 7,9 °C 8,5 °C 1,6 km/h (1 Bft)
02.11.2019 06:20 8,6 °C 96 % 1000,6 hPa 0,0 mm 0,9 km/h (0 Bft) SW 227 ° 0 min 0,000 mm 0,0 UV-I 0 W/m² 8,0 °C 8,6 °C 6,4 km/h (2 Bft)
02.11.2019 06:21 8,6 °C 96 % 1000,6 hPa 0,0 mm 1,0 km/h (0 Bft) SW 226 ° 0 min 0,000 mm 0,0 UV-I 0 W/m² 8,0 °C 8,6 °C 4,8 km/h (1 Bft)
02.11.2019 06:22 8,6 °C 96 % 1000,6 hPa 0,0 mm 0,4 km/h (0 Bft) SW 226 ° 0 min 0,000 mm 0,0 UV-I 0 W/m² 8,0 °C 8,6 °C 1,6 km/h (1 Bft)
02.11.2019 06:23 8,6 °C 96 % 1000,6 hPa 0,0 mm 1,6 km/h (1 Bft) SW 225 ° 0 min 0,000 mm 0,0 UV-I 0 W/m² 8,0 °C 8,6 °C 3,2 km/h (1 Bft)
02.11.2019 06:24 8,6 °C 96 % 1000,6 hPa 0,0 mm 0,7 km/h (0 Bft) SW 225 ° 0 min 0,000 mm 0,0 UV-I 0 W/m² 8,0 °C 8,6 °C 3,2 km/h (1 Bft)
02.11.2019 06:25 8,6 °C 96 % 1000,6 hPa 0,0 mm 0,3 km/h (0 Bft) SW 225 ° 0 min 0,000 mm 0,0 UV-I 0 W/m² 8,0 °C 8,6 °C 1,6 km/h (1 Bft)
02.11.2019 06:26 8,6 °C 96 % 1000,6 hPa 0,0 mm 0,7 km/h (0 Bft) SW 225 ° 0 min 0,000 mm 0,0 UV-I 0 W/m² 8,0 °C 8,6 °C 3,2 km/h (1 Bft)
02.11.2019 06:27 8,6 °C 96 % 1000,6 hPa 0,0 mm 0,0 km/h (0 Bft) SW 225 ° 0 min 0,000 mm 0,0 UV-I 0 W/m² 8,0 °C 8,6 °C 0,0 km/h (0 Bft)
02.11.2019 06:28 8,6 °C 96 % 1000,6 hPa 0,0 mm 0,0 km/h (0 Bft) SW 225 ° 0 min 0,000 mm 0,0 UV-I 0 W/m² 8,0 °C 8,6 °C 0,0 km/h (0 Bft)
02.11.2019 06:29 8,6 °C 96 % 1000,6 hPa 0,0 mm 0,0 km/h (0 Bft) SW 225 ° 0 min 0,000 mm 0,0 UV-I 0 W/m² 8,0 °C 8,6 °C 0,0 km/h (0 Bft)
02.11.2019 06:30 8,6 °C 96 % 1000,6 hPa 0,0 mm 0,0 km/h (0 Bft) SW 225 ° 0 min 0,000 mm 0,0 UV-I 0 W/m² 8,0 °C 8,6 °C 0,0 km/h (0 Bft)
02.11.2019 06:31 8,6 °C 96 % 1000,5 hPa 0,0 mm 0,0 km/h (0 Bft) SW 225 ° 0 min 0,000 mm 0,0 UV-I 0 W/m² 8,0 °C 8,6 °C 0,0 km/h (0 Bft)
02.11.2019 06:32 8,6 °C 96 % 1000,5 hPa 0,0 mm 0,0 km/h (0 Bft) SW 225 ° 0 min 0,000 mm 0,0 UV-I 0 W/m² 8,0 °C 8,6 °C 0,0 km/h (0 Bft)
02.11.2019 06:33 8,6 °C 96 % 1000,5 hPa 0,0 mm 1,5 km/h (1 Bft) SW 225 ° 0 min 0,000 mm 0,0 UV-I 0 W/m² 8,0 °C 8,6 °C 3,2 km/h (1 Bft)
02.11.2019 06:34 8,6 °C 96 % 1000,5 hPa 0,0 mm 0,0 km/h (0 Bft) SW 225 ° 0 min 0,000 mm 0,0 UV-I 0 W/m² 8,0 °C 8,6 °C 0,0 km/h (0 Bft)
02.11.2019 06:35 8,6 °C 96 % 1000,4 hPa 0,0 mm 0,3 km/h (0 Bft) SW 225 ° 0 min 0,000 mm 0,0 UV-I 0 W/m² 8,0 °C 8,6 °C 1,6 km/h (1 Bft)
02.11.2019 06:36 8,6 °C 96 % 1000,4 hPa 0,0 mm 0,2 km/h (0 Bft) SW 225 ° 0 min 0,000 mm 0,0 UV-I 0 W/m² 8,0 °C 8,6 °C 1,6 km/h (1 Bft)
02.11.2019 06:37 8,6 °C 96 % 1000,4 hPa 0,0 mm 0,0 km/h (0 Bft) SW 225 ° 0 min 0,000 mm 0,0 UV-I 0 W/m² 8,0 °C 8,6 °C 0,0 km/h (0 Bft)
02.11.2019 06:38 8,6 °C 96 % 1000,3 hPa 0,0 mm 0,7 km/h (0 Bft) SW 225 ° 0 min 0,000 mm 0,0 UV-I 0 W/m² 8,0 °C 8,6 °C 3,2 km/h (1 Bft)
02.11.2019 06:39 8,6 °C 96 % 1000,2 hPa 0,0 mm 0,0 km/h (0 Bft) SW 225 ° 0 min 0,000 mm 0,0 UV-I 0 W/m² 8,0 °C 8,6 °C 0,0 km/h (0 Bft)
02.11.2019 06:40 8,6 °C 96 % 1000,3 hPa 0,0 mm 0,0 km/h (0 Bft) SW 225 ° 0 min 0,000 mm 0,0 UV-I 0 W/m² 8,0 °C 8,6 °C 0,0 km/h (0 Bft)
02.11.2019 06:41 8,6 °C 96 % 1000,2 hPa 0,0 mm 0,0 km/h (0 Bft) SW 225 ° 0 min 0,000 mm 0,0 UV-I 0 W/m² 8,0 °C 8,6 °C 0,0 km/h (0 Bft)
02.11.2019 06:42 8,6 °C 96 % 1000,2 hPa 0,0 mm 0,0 km/h (0 Bft) SW 225 ° 0 min 0,000 mm 0,0 UV-I 0 W/m² 8,0 °C 8,6 °C 0,0 km/h (0 Bft)
02.11.2019 06:43 8,7 °C 96 % 1000,1 hPa 0,0 mm 0,0 km/h (0 Bft) SW 225 ° 0 min 0,000 mm 0,0 UV-I 0 W/m² 8,1 °C 8,7 °C 0,0 km/h (0 Bft)
02.11.2019 06:44 8,6 °C 96 % 1000,1 hPa 0,0 mm 0,0 km/h (0 Bft) SW 225 ° 0 min 0,000 mm 0,0 UV-I 0 W/m² 8,0 °C 8,6 °C 0,0 km/h (0 Bft)
02.11.2019 06:45 8,6 °C 96 % 1000,0 hPa 0,0 mm 0,0 km/h (0 Bft) SW 225 ° 0 min 0,000 mm 0,0 UV-I 0 W/m² 8,0 °C 8,6 °C 0,0 km/h (0 Bft)
02.11.2019 06:46 8,6 °C 96 % 1000,0 hPa 0,0 mm 0,0 km/h (0 Bft) SW 225 ° 0 min 0,000 mm 0,0 UV-I 0 W/m² 8,0 °C 8,6 °C 0,0 km/h (0 Bft)
02.11.2019 06:47 8,6 °C 96 % 1000,0 hPa 0,0 mm 0,0 km/h (0 Bft) SW 225 ° 0 min 0,000 mm 0,0 UV-I 0 W/m² 8,0 °C 8,6 °C 0,0 km/h (0 Bft)
02.11.2019 06:48 8,6 °C 96 % 1000,0 hPa 0,0 mm 0,0 km/h (0 Bft) SW 225 ° 0 min 0,000 mm 0,0 UV-I 0 W/m² 8,0 °C 8,6 °C 0,0 km/h (0 Bft)
02.11.2019 06:49 8,7 °C 96 % 1000,0 hPa 0,0 mm 0,0 km/h (0 Bft) SW 225 ° 0 min 0,000 mm 0,0 UV-I 0 W/m² 8,1 °C 8,7 °C 0,0 km/h (0 Bft)
02.11.2019 06:50 8,6 °C 96 % 999,9 hPa 0,0 mm 0,0 km/h (0 Bft) SW 226 ° 0 min 0,000 mm 0,0 UV-I 0 W/m² 8,0 °C 8,6 °C 0,0 km/h (0 Bft)
02.11.2019 06:51 8,7 °C 96 % 999,9 hPa 0,0 mm 0,0 km/h (0 Bft) SW 226 ° 0 min 0,000 mm 0,0 UV-I 0 W/m² 8,1 °C 8,7 °C 0,0 km/h (0 Bft)
02.11.2019 06:52 8,6 °C 96 % 999,9 hPa 0,0 mm 0,0 km/h (0 Bft) SW 226 ° 0 min 0,000 mm 0,0 UV-I 0 W/m² 8,0 °C 8,6 °C 0,0 km/h (0 Bft)
02.11.2019 06:53 8,7 °C 96 % 1000,0 hPa 0,0 mm 0,0 km/h (0 Bft) SW 226 ° 0 min 0,000 mm 0,0 UV-I 0 W/m² 8,1 °C 8,7 °C 0,0 km/h (0 Bft)
02.11.2019 06:54 8,6 °C 96 % 1000,0 hPa 0,0 mm 0,0 km/h (0 Bft) SW 226 ° 0 min 0,000 mm 0,0 UV-I 0 W/m² 8,0 °C 8,6 °C 0,0 km/h (0 Bft)
02.11.2019 06:55 8,7 °C 96 % 1000,0 hPa 0,0 mm 0,0 km/h (0 Bft) SW 226 ° 0 min 0,000 mm 0,0 UV-I 0 W/m² 8,1 °C 8,7 °C 0,0 km/h (0 Bft)
02.11.2019 06:56 8,7 °C 96 % 999,9 hPa 0,0 mm 1,5 km/h (1 Bft) N 9 ° 0 min 0,000 mm 0,0 UV-I 0 W/m² 8,1 °C 8,7 °C 4,8 km/h (1 Bft)
02.11.2019 06:57 8,6 °C 96 % 999,9 hPa 0,0 mm 0,9 km/h (0 Bft) N 9 ° 0 min 0,000 mm 0,0 UV-I 0 W/m² 8,0 °C 8,6 °C 3,2 km/h (1 Bft)
02.11.2019 06:58 8,6 °C 96 % 999,9 hPa 0,0 mm 1,3 km/h (1 Bft) O-NO 59 ° 0 min 0,000 mm 0,0 UV-I 0 W/m² 8,0 °C 8,6 °C 3,2 km/h (1 Bft)
02.11.2019 06:59 8,6 °C 96 % 1000,0 hPa 0,0 mm 1,7 km/h (1 Bft) O-NO 59 ° 0 min 0,000 mm 0,0 UV-I 0 W/m² 8,0 °C 8,6 °C 3,2 km/h (1 Bft)
02.11.2019 07:00 8,6 °C 96 % 999,9 hPa 0,0 mm 1,3 km/h (1 Bft) O-NO 59 ° 0 min 0,000 mm 0,0 UV-I 0 W/m² 8,0 °C 8,6 °C 3,2 km/h (1 Bft)
02.11.2019 07:01 8,6 °C 96 % 1000,0 hPa 0,0 mm 0,0 km/h (0 Bft) O-NO 59 ° 0 min 0,000 mm 0,0 UV-I 0 W/m² 8,0 °C 8,6 °C 0,0 km/h (0 Bft)
02.11.2019 07:02 8,6 °C 96 % 1000,0 hPa 0,0 mm 0,0 km/h (0 Bft) O-NO 59 ° 0 min 0,000 mm 0,0 UV-I 0 W/m² 8,0 °C 8,6 °C 0,0 km/h (0 Bft)
02.11.2019 07:03 8,6 °C 96 % 1000,0 hPa 0,0 mm 2,8 km/h (1 Bft) O-SO 107 ° 0 min 0,000 mm 0,0 UV-I 0 W/m² 8,0 °C 8,6 °C 6,4 km/h (2 Bft)
02.11.2019 07:04 8,6 °C 96 % 999,9 hPa 0,0 mm 1,7 km/h (1 Bft) O-SO 107 ° 0 min 0,000 mm 0,0 UV-I 0 W/m² 8,0 °C 8,6 °C 3,2 km/h (1 Bft)
02.11.2019 07:05 8,6 °C 96 % 999,9 hPa 0,0 mm 2,1 km/h (1 Bft) O-SO 107 ° 0 min 0,000 mm 0,0 UV-I 0 W/m² 8,0 °C 8,6 °C 3,2 km/h (1 Bft)
02.11.2019 07:06 8,6 °C 96 % 999,9 hPa 0,0 mm 2,3 km/h (1 Bft) O-SO 107 ° 0 min 0,000 mm 0,0 UV-I 0 W/m² 8,0 °C 8,6 °C 3,2 km/h (1 Bft)
02.11.2019 07:07 8,6 °C 96 % 999,9 hPa 0,0 mm 1,9 km/h (1 Bft) O-SO 107 ° 0 min 0,000 mm 0,0 UV-I 0 W/m² 8,0 °C 8,6 °C 3,2 km/h (1 Bft)
02.11.2019 07:08 8,6 °C 96 % 1000,0 hPa 0,0 mm 1,7 km/h (1 Bft) O-SO 107 ° 0 min 0,000 mm 0,0 UV-I 0 W/m² 8,0 °C 8,6 °C 3,2 km/h (1 Bft)
02.11.2019 07:09 8,6 °C 96 % 1000,0 hPa 0,0 mm 0,7 km/h (0 Bft) O-SO 107 ° 0 min 0,000 mm 0,0 UV-I 0 W/m² 8,0 °C 8,6 °C 3,2 km/h (1 Bft)
02.11.2019 07:10 8,6 °C 96 % 1000,0 hPa 0,0 mm 0,0 km/h (0 Bft) O-SO 107 ° 0 min 0,000 mm 0,0 UV-I 0 W/m² 8,0 °C 8,6 °C 0,0 km/h (0 Bft)
02.11.2019 07:11 8,6 °C 96 % 1000,0 hPa 0,0 mm 0,0 km/h (0 Bft) O-SO 107 ° 0 min 0,000 mm 0,0 UV-I 0 W/m² 8,0 °C 8,6 °C 0,0 km/h (0 Bft)
02.11.2019 07:12 8,6 °C 96 % 1000,0 hPa 0,0 mm 0,0 km/h (0 Bft) O-SO 107 ° 0 min 0,000 mm 0,0 UV-I 0 W/m² 8,0 °C 8,6 °C 0,0 km/h (0 Bft)
02.11.2019 07:13 8,6 °C 96 % 1000,0 hPa 0,0 mm 0,0 km/h (0 Bft) O-SO 107 ° 0 min 0,000 mm 0,0 UV-I 0 W/m² 8,0 °C 8,6 °C 0,0 km/h (0 Bft)
02.11.2019 07:14 8,6 °C 96 % 1000,0 hPa 0,0 mm 0,0 km/h (0 Bft) O-SO 107 ° 0 min 0,000 mm 0,0 UV-I 0 W/m² 8,0 °C 8,6 °C 0,0 km/h (0 Bft)
02.11.2019 07:15 8,6 °C 96 % 999,9 hPa 0,0 mm 0,0 km/h (0 Bft) O-SO 107 ° 0 min 0,000 mm 0,0 UV-I 0 W/m² 8,0 °C 8,6 °C 0,0 km/h (0 Bft)
02.11.2019 07:16 8,6 °C 96 % 999,9 hPa 0,0 mm 0,0 km/h (0 Bft) O-SO 107 ° 0 min 0,000 mm 0,0 UV-I 5 W/m² 8,0 °C 8,6 °C 0,0 km/h (0 Bft)
02.11.2019 07:17 8,6 °C 96 % 999,9 hPa 0,0 mm 0,0 km/h (0 Bft) O-SO 107 ° 0 min 0,000 mm 0,0 UV-I 5 W/m² 8,0 °C 8,6 °C 0,0 km/h (0 Bft)
02.11.2019 07:18 8,6 °C 96 % 1000,0 hPa 0,0 mm 0,0 km/h (0 Bft) O-SO 107 ° 0 min 0,000 mm 0,0 UV-I 7 W/m² 8,0 °C 8,6 °C 0,0 km/h (0 Bft)
02.11.2019 07:19 8,6 °C 96 % 1000,0 hPa 0,0 mm 0,0 km/h (0 Bft) O-SO 107 ° 0 min 0,000 mm 0,0 UV-I 7 W/m² 8,0 °C 8,6 °C 0,0 km/h (0 Bft)
02.11.2019 07:20 8,6 °C 96 % 999,9 hPa 0,0 mm 0,0 km/h (0 Bft) O-SO 107 ° 0 min 0,000 mm 0,0 UV-I 9 W/m² 8,0 °C 8,6 °C 0,0 km/h (0 Bft)
02.11.2019 07:21 8,6 °C 96 % 999,9 hPa 0,0 mm 0,0 km/h (0 Bft) O-SO 107 ° 0 min 0,000 mm 0,0 UV-I 9 W/m² 8,0 °C 8,6 °C 0,0 km/h (0 Bft)
02.11.2019 07:22 8,6 °C 96 % 999,9 hPa 0,0 mm 0,0 km/h (0 Bft) O-SO 107 ° 0 min 0,000 mm 0,0 UV-I 11 W/m² 8,0 °C 8,6 °C 0,0 km/h (0 Bft)
02.11.2019 07:23 8,6 °C 96 % 999,9 hPa 0,0 mm 0,0 km/h (0 Bft) O-SO 107 ° 0 min 0,000 mm 0,0 UV-I 11 W/m² 8,0 °C 8,6 °C 0,0 km/h (0 Bft)
02.11.2019 07:24 8,6 °C 96 % 999,9 hPa 0,0 mm 0,0 km/h (0 Bft) O-SO 107 ° 0 min 0,000 mm 0,0 UV-I 12 W/m² 8,0 °C 8,6 °C 0,0 km/h (0 Bft)
02.11.2019 07:25 8,6 °C 96 % 999,9 hPa 0,0 mm 0,0 km/h (0 Bft) O-SO 107 ° 0 min 0,000 mm 0,0 UV-I 12 W/m² 8,0 °C 8,6 °C 0,0 km/h (0 Bft)
02.11.2019 07:26 8,6 °C 96 % 999,9 hPa 0,0 mm 0,0 km/h (0 Bft) O-SO 107 ° 0 min 0,000 mm 0,0 UV-I 12 W/m² 8,0 °C 8,6 °C 0,0 km/h (0 Bft)
02.11.2019 07:27 8,6 °C 96 % 1000,0 hPa 0,0 mm 0,0 km/h (0 Bft) O-SO 107 ° 0 min 0,000 mm 0,0 UV-I 12 W/m² 8,0 °C 8,6 °C 0,0 km/h (0 Bft)
02.11.2019 07:28 8,6 °C 96 % 1000,0 hPa 0,0 mm 0,0 km/h (0 Bft) O-SO 107 ° 0 min 0,000 mm 0,0 UV-I 12 W/m² 8,0 °C 8,6 °C 0,0 km/h (0 Bft)
02.11.2019 07:29 8,6 °C 96 % 1000,0 hPa 0,0 mm 0,0 km/h (0 Bft) O-SO 107 ° 0 min 0,000 mm 0,0 UV-I 12 W/m² 8,0 °C 8,6 °C 0,0 km/h (0 Bft)
02.11.2019 07:30 8,6 °C 96 % 999,9 hPa 0,0 mm 0,0 km/h (0 Bft) O-SO 107 ° 0 min 0,000 mm 0,0 UV-I 12 W/m² 8,0 °C 8,6 °C 0,0 km/h (0 Bft)
02.11.2019 07:31 8,6 °C 96 % 999,9 hPa 0,0 mm 0,0 km/h (0 Bft) O-SO 107 ° 0 min 0,000 mm 0,0 UV-I 12 W/m² 8,0 °C 8,6 °C 0,0 km/h (0 Bft)
02.11.2019 07:32 8,6 °C 96 % 999,9 hPa 0,0 mm 0,0 km/h (0 Bft) O-SO 107 ° 0 min 0,000 mm 0,0 UV-I 12 W/m² 8,0 °C 8,6 °C 0,0 km/h (0 Bft)
02.11.2019 07:33 8,6 °C 96 % 999,9 hPa 0,0 mm 0,0 km/h (0 Bft) O-SO 107 ° 0 min 0,000 mm 0,0 UV-I 12 W/m² 8,0 °C 8,6 °C 0,0 km/h (0 Bft)
02.11.2019 07:34 8,6 °C 96 % 999,9 hPa 0,0 mm 0,0 km/h (0 Bft) O-SO 107 ° 0 min 0,000 mm 0,0 UV-I 12 W/m² 8,0 °C 8,6 °C 0,0 km/h (0 Bft)
02.11.2019 07:35 8,6 °C 96 % 1000,0 hPa 0,0 mm 0,0 km/h (0 Bft) O-SO 107 ° 0 min 0,000 mm 0,0 UV-I 12 W/m² 8,0 °C 8,6 °C 0,0 km/h (0 Bft)
02.11.2019 07:36 8,6 °C 96 % 1000,0 hPa 0,0 mm 0,0 km/h (0 Bft) O-SO 107 ° 0 min 0,000 mm 0,0 UV-I 14 W/m² 8,0 °C 8,6 °C 0,0 km/h (0 Bft)
02.11.2019 07:37 8,6 °C 96 % 1000,0 hPa 0,0 mm 0,0 km/h (0 Bft) O-SO 107 ° 0 min 0,000 mm 0,0 UV-I 16 W/m² 8,0 °C 8,6 °C 0,0 km/h (0 Bft)
02.11.2019 07:38 8,6 °C 96 % 1000,0 hPa 0,0 mm 0,0 km/h (0 Bft) O-SO 107 ° 0 min 0,000 mm 0,0 UV-I 18 W/m² 8,0 °C 8,6 °C 0,0 km/h (0 Bft)
02.11.2019 07:39 8,6 °C 96 % 1000,0 hPa 0,0 mm 0,0 km/h (0 Bft) O-SO 107 ° 0 min 0,000 mm 0,0 UV-I 18 W/m² 8,0 °C 8,6 °C 0,0 km/h (0 Bft)
02.11.2019 07:40 8,6 °C 96 % 1000,1 hPa 0,0 mm 0,0 km/h (0 Bft) O-SO 107 ° 0 min 0,000 mm 0,0 UV-I 19 W/m² 8,0 °C 8,6 °C 0,0 km/h (0 Bft)
02.11.2019 07:41 8,6 °C 96 % 1000,1 hPa 0,0 mm 0,0 km/h (0 Bft) O-SO 107 ° 0 min 0,000 mm 0,0 UV-I 21 W/m² 8,0 °C 8,6 °C 0,0 km/h (0 Bft)
02.11.2019 07:42 8,6 °C 96 % 1000,1 hPa 0,0 mm 0,0 km/h (0 Bft) O-SO 107 ° 0 min 0,000 mm 0,0 UV-I 21 W/m² 8,0 °C 8,6 °C 0,0 km/h (0 Bft)
02.11.2019 07:43 8,6 °C 96 % 1000,1 hPa 0,0 mm 0,0 km/h (0 Bft) O-SO 107 ° 0 min 0,000 mm 0,0 UV-I 23 W/m² 8,0 °C 8,6 °C 0,0 km/h (0 Bft)
02.11.2019 07:44 8,6 °C 96 % 1000,0 hPa 0,0 mm 0,0 km/h (0 Bft) O-SO 107 ° 0 min 0,000 mm 0,0 UV-I 25 W/m² 8,0 °C 8,6 °C 0,0 km/h (0 Bft)
02.11.2019 07:45 8,6 °C 96 % 1000,1 hPa 0,0 mm 0,0 km/h (0 Bft) O-SO 107 ° 0 min 0,000 mm 0,0 UV-I 26 W/m² 8,0 °C 8,6 °C 0,0 km/h (0 Bft)
02.11.2019 07:46 8,7 °C 96 % 1000,0 hPa 0,0 mm 0,0 km/h (0 Bft) O-SO 107 ° 0 min 0,000 mm 0,0 UV-I 26 W/m² 8,1 °C 8,7 °C 0,0 km/h (0 Bft)
02.11.2019 07:47 8,6 °C 96 % 1000,0 hPa 0,0 mm 0,0 km/h (0 Bft) O-SO 107 ° 0 min 0,000 mm 0,0 UV-I 28 W/m² 8,0 °C 8,6 °C 0,0 km/h (0 Bft)
02.11.2019 07:48 8,6 °C 96 % 1000,0 hPa 0,0 mm 0,0 km/h (0 Bft) O-SO 107 ° 0 min 0,000 mm 0,0 UV-I 28 W/m² 8,0 °C 8,6 °C 0,0 km/h (0 Bft)
02.11.2019 07:49 8,6 °C 96 % 1000,0 hPa 0,0 mm 0,0 km/h (0 Bft) O-SO 107 ° 0 min 0,000 mm 0,0 UV-I 26 W/m² 8,0 °C 8,6 °C 0,0 km/h (0 Bft)
02.11.2019 07:50 8,7 °C 96 % 1000,0 hPa 0,0 mm 0,0 km/h (0 Bft) O-SO 107 ° 0 min 0,000 mm 0,0 UV-I 26 W/m² 8,1 °C 8,7 °C 0,0 km/h (0 Bft)
02.11.2019 07:51 8,7 °C 96 % 1000,0 hPa 0,0 mm 0,0 km/h (0 Bft) O-SO 107 ° 0 min 0,000 mm 0,0 UV-I 25 W/m² 8,1 °C 8,7 °C 0,0 km/h (0 Bft)
02.11.2019 07:52 8,7 °C 96 % 999,9 hPa 0,0 mm 0,0 km/h (0 Bft) O-SO 107 ° 0 min 0,000 mm 0,0 UV-I 23 W/m² 8,1 °C 8,7 °C 0,0 km/h (0 Bft)
02.11.2019 07:53 8,7 °C 96 % 999,9 hPa 0,0 mm 0,0 km/h (0 Bft) O-SO 107 ° 0 min 0,000 mm 0,0 UV-I 23 W/m² 8,1 °C 8,7 °C 0,0 km/h (0 Bft)
02.11.2019 07:54 8,7 °C 96 % 1000,0 hPa 0,0 mm 0,0 km/h (0 Bft) O-SO 107 ° 0 min 0,000 mm 0,0 UV-I 21 W/m² 8,1 °C 8,7 °C 0,0 km/h (0 Bft)
02.11.2019 07:55 8,7 °C 96 % 999,9 hPa 0,0 mm 0,0 km/h (0 Bft) O-SO 107 ° 0 min 0,000 mm 0,0 UV-I 21 W/m² 8,1 °C 8,7 °C 0,0 km/h (0 Bft)
02.11.2019 07:56 8,6 °C 96 % 999,9 hPa 0,0 mm 0,0 km/h (0 Bft) O-SO 107 ° 0 min 0,000 mm 0,0 UV-I 23 W/m² 8,0 °C 8,6 °C 0,0 km/h (0 Bft)
02.11.2019 07:57 8,7 °C 96 % 999,9 hPa 0,0 mm 0,0 km/h (0 Bft) O-SO 107 ° 0 min 0,000 mm 0,0 UV-I 23 W/m² 8,1 °C 8,7 °C 0,0 km/h (0 Bft)
02.11.2019 07:58 8,7 °C 96 % 999,9 hPa 0,0 mm 0,0 km/h (0 Bft) O-SO 107 ° 0 min 0,000 mm 0,0 UV-I 25 W/m² 8,1 °C 8,7 °C 0,0 km/h (0 Bft)
02.11.2019 07:59 8,7 °C 96 % 999,9 hPa 0,0 mm 0,0 km/h (0 Bft) O-SO 107 ° 0 min 0,000 mm 0,0 UV-I 25 W/m² 8,1 °C 8,7 °C 0,0 km/h (0 Bft)
02.11.2019 08:00 8,7 °C 96 % 999,9 hPa 0,0 mm 0,0 km/h (0 Bft) O-SO 107 ° 0 min 0,000 mm 0,0 UV-I 25 W/m² 8,1 °C 8,7 °C 0,0 km/h (0 Bft)
02.11.2019 08:01 8,7 °C 96 % 999,9 hPa 0,0 mm 0,0 km/h (0 Bft) O-SO 107 ° 0 min 0,000 mm 0,0 UV-I 25 W/m² 8,1 °C 8,7 °C 0,0 km/h (0 Bft)
02.11.2019 08:02 8,7 °C 96 % 999,9 hPa 0,0 mm 0,0 km/h (0 Bft) O-SO 107 ° 0 min 0,000 mm 0,0 UV-I 26 W/m² 8,1 °C 8,7 °C 0,0 km/h (0 Bft)
02.11.2019 08:03 8,7 °C 96 % 999,9 hPa 0,0 mm 0,0 km/h (0 Bft) O-SO 107 ° 0 min 0,000 mm 0,0 UV-I 28 W/m² 8,1 °C 8,7 °C 0,0 km/h (0 Bft)
02.11.2019 08:04 8,7 °C 96 % 1000,0 hPa 0,0 mm 0,0 km/h (0 Bft) O-SO 107 ° 0 min 0,000 mm 0,0 UV-I 32 W/m² 8,1 °C 8,7 °C 0,0 km/h (0 Bft)
02.11.2019 08:05 8,7 °C 96 % 999,9 hPa 0,0 mm 0,0 km/h (0 Bft) O-SO 107 ° 0 min 0,000 mm 0,0 UV-I 33 W/m² 8,1 °C 8,7 °C 0,0 km/h (0 Bft)
02.11.2019 08:06 8,7 °C 96 % 999,9 hPa 0,0 mm 0,0 km/h (0 Bft) O-SO 107 ° 0 min 0,000 mm 0,0 UV-I 37 W/m² 8,1 °C 8,7 °C 0,0 km/h (0 Bft)
02.11.2019 08:07 8,7 °C 96 % 999,9 hPa 0,0 mm 0,0 km/h (0 Bft) O-SO 107 ° 0 min 0,000 mm 0,0 UV-I 39 W/m² 8,1 °C 8,7 °C 0,0 km/h (0 Bft)
02.11.2019 08:08 8,7 °C 96 % 999,9 hPa 0,0 mm 0,0 km/h (0 Bft) O-SO 107 ° 0 min 0,000 mm 0,0 UV-I 42 W/m² 8,1 °C 8,7 °C 0,0 km/h (0 Bft)
02.11.2019 08:09 8,7 °C 96 % 999,9 hPa 0,0 mm 0,0 km/h (0 Bft) O-SO 107 ° 0 min 0,000 mm 0,0 UV-I 44 W/m² 8,1 °C 8,7 °C 0,0 km/h (0 Bft)
02.11.2019 08:10 8,7 °C 96 % 999,9 hPa 0,0 mm 0,0 km/h (0 Bft) O-SO 107 ° 0 min 0,000 mm 0,0 UV-I 44 W/m² 8,1 °C 8,7 °C 0,0 km/h (0 Bft)
02.11.2019 08:11 8,7 °C 96 % 1000,0 hPa 0,0 mm 0,0 km/h (0 Bft) O-SO 107 ° 0 min 0,000 mm 0,0 UV-I 44 W/m² 8,1 °C 8,7 °C 0,0 km/h (0 Bft)
02.11.2019 08:12 8,7 °C 96 % 1000,0 hPa 0,0 mm 0,0 km/h (0 Bft) O-SO 107 ° 0 min 0,000 mm 0,0 UV-I 42 W/m² 8,1 °C 8,7 °C 0,0 km/h (0 Bft)
02.11.2019 08:13 8,7 °C 96 % 1000,0 hPa 0,0 mm 0,0 km/h (0 Bft) O-SO 107 ° 0 min 0,000 mm 0,0 UV-I 42 W/m² 8,1 °C 8,7 °C 0,0 km/h (0 Bft)
02.11.2019 08:14 8,8 °C 96 % 1000,0 hPa 0,0 mm 0,0 km/h (0 Bft) O-SO 107 ° 0 min 0,000 mm 0,0 UV-I 42 W/m² 8,2 °C 8,8 °C 0,0 km/h (0 Bft)
02.11.2019 08:15 8,7 °C 96 % 1000,0 hPa 0,0 mm 0,0 km/h (0 Bft) O-SO 107 ° 0 min 0,000 mm 0,0 UV-I 42 W/m² 8,1 °C 8,7 °C 0,0 km/h (0 Bft)
02.11.2019 08:16 8,8 °C 96 % 1000,1 hPa 0,0 mm 0,0 km/h (0 Bft) O-SO 107 ° 0 min 0,000 mm 0,0 UV-I 42 W/m² 8,2 °C 8,8 °C 0,0 km/h (0 Bft)
02.11.2019 08:17 8,8 °C 96 % 1000,0 hPa 0,0 mm 0,0 km/h (0 Bft) O-SO 107 ° 0 min 0,000 mm 0,0 UV-I 42 W/m² 8,2 °C 8,8 °C 0,0 km/h (0 Bft)
02.11.2019 08:18 8,8 °C 96 % 999,9 hPa 0,0 mm 0,0 km/h (0 Bft) O-SO 107 ° 0 min 0,000 mm 0,0 UV-I 42 W/m² 8,2 °C 8,8 °C 0,0 km/h (0 Bft)
02.11.2019 08:19 8,8 °C 96 % 999,9 hPa 0,0 mm 0,0 km/h (0 Bft) O-SO 107 ° 0 min 0,000 mm 0,0 UV-I 42 W/m² 8,2 °C 8,8 °C 0,0 km/h (0 Bft)
02.11.2019 08:20 8,8 °C 96 % 999,9 hPa 0,0 mm 0,0 km/h (0 Bft) O-SO 107 ° 0 min 0,000 mm 0,0 UV-I 40 W/m² 8,2 °C 8,8 °C 0,0 km/h (0 Bft)
02.11.2019 08:21 8,8 °C 96 % 999,9 hPa 0,0 mm 0,0 km/h (0 Bft) O-SO 107 ° 0 min 0,000 mm 0,0 UV-I 40 W/m² 8,2 °C 8,8 °C 0,0 km/h (0 Bft)
02.11.2019 08:22 8,8 °C 96 % 1000,0 hPa 0,0 mm 0,0 km/h (0 Bft) O-SO 107 ° 0 min 0,000 mm 0,0 UV-I 42 W/m² 8,2 °C 8,8 °C 0,0 km/h (0 Bft)
02.11.2019 08:23 8,8 °C 96 % 1000,0 hPa 0,0 mm 0,0 km/h (0 Bft) O-SO 107 ° 0 min 0,000 mm 0,0 UV-I 42 W/m² 8,2 °C 8,8 °C 0,0 km/h (0 Bft)
02.11.2019 08:24 8,9 °C 96 % 999,9 hPa 0,0 mm 1,1 km/h (1 Bft) O-SO 107 ° 0 min 0,000 mm 0,0 UV-I 44 W/m² 8,3 °C 8,9 °C 3,2 km/h (1 Bft)
02.11.2019 08:25 8,9 °C 96 % 999,9 hPa 0,0 mm 0,2 km/h (0 Bft) O-SO 107 ° 0 min 0,000 mm 0,0 UV-I 46 W/m² 8,3 °C 8,9 °C 1,6 km/h (1 Bft)
02.11.2019 08:26 8,9 °C 96 % 1000,0 hPa 0,0 mm 1,3 km/h (1 Bft) O-SO 107 ° 0 min 0,000 mm 0,0 UV-I 47 W/m² 8,3 °C 8,9 °C 3,2 km/h (1 Bft)
02.11.2019 08:27 8,9 °C 96 % 1000,0 hPa 0,0 mm 0,0 km/h (0 Bft) O-SO 107 ° 0 min 0,000 mm 0,0 UV-I 53 W/m² 8,3 °C 8,9 °C 0,0 km/h (0 Bft)
02.11.2019 08:28 8,9 °C 96 % 1000,0 hPa 0,0 mm 0,0 km/h (0 Bft) O-SO 107 ° 0 min 0,000 mm 0,0 UV-I 54 W/m² 8,3 °C 8,9 °C 0,0 km/h (0 Bft)
02.11.2019 08:29 8,9 °C 96 % 1000,0 hPa 0,0 mm 0,0 km/h (0 Bft) O-SO 107 ° 0 min 0,000 mm 0,0 UV-I 56 W/m² 8,3 °C 8,9 °C 0,0 km/h (0 Bft)
02.11.2019 08:30 8,9 °C 96 % 1000,0 hPa 0,0 mm 0,0 km/h (0 Bft) O-SO 107 ° 0 min 0,000 mm 0,0 UV-I 58 W/m² 8,3 °C 8,9 °C 0,0 km/h (0 Bft)
02.11.2019 08:31 8,9 °C 96 % 1000,1 hPa 0,0 mm 0,0 km/h (0 Bft) O-SO 107 ° 0 min 0,000 mm 0,0 UV-I 60 W/m² 8,3 °C 8,9 °C 0,0 km/h (0 Bft)
02.11.2019 08:32 9,0 °C 96 % 1000,1 hPa 0,0 mm 0,1 km/h (0 Bft) O-SO 107 ° 0 min 0,000 mm 0,0 UV-I 60 W/m² 8,4 °C 9,0 °C 1,6 km/h (1 Bft)
02.11.2019 08:33 8,9 °C 96 % 1000,1 hPa 0,0 mm 0,0 km/h (0 Bft) O-SO 107 ° 0 min 0,000 mm 0,0 UV-I 62 W/m² 8,3 °C 8,9 °C 0,0 km/h (0 Bft)
02.11.2019 08:34 9,0 °C 96 % 1000,1 hPa 0,0 mm 0,0 km/h (0 Bft) O-SO 107 ° 0 min 0,000 mm 0,0 UV-I 62 W/m² 8,4 °C 9,0 °C 0,0 km/h (0 Bft)
02.11.2019 08:35 9,0 °C 96 % 1000,1 hPa 0,0 mm 0,1 km/h (0 Bft) O-SO 107 ° 0 min 0,000 mm 0,0 UV-I 63 W/m² 8,4 °C 9,0 °C 1,6 km/h (1 Bft)
02.11.2019 08:36 9,1 °C 96 % 1000,1 hPa 0,0 mm 1,5 km/h (1 Bft) O-SO 107 ° 0 min 0,000 mm 0,0 UV-I 65 W/m² 8,5 °C 9,1 °C 3,2 km/h (1 Bft)
02.11.2019 08:37 9,1 °C 96 % 1000,1 hPa 0,0 mm 0,0 km/h (0 Bft) O-SO 107 ° 0 min 0,000 mm 0,0 UV-I 65 W/m² 8,5 °C 9,1 °C 0,0 km/h (0 Bft)
02.11.2019 08:38 9,1 °C 96 % 1000,1 hPa 0,0 mm 0,0 km/h (0 Bft) O-SO 107 ° 0 min 0,000 mm 0,0 UV-I 67 W/m² 8,5 °C 9,1 °C 0,0 km/h (0 Bft)
02.11.2019 08:39 9,1 °C 96 % 1000,1 hPa 0,0 mm 0,0 km/h (0 Bft) O-SO 107 ° 0 min 0,000 mm 0,0 UV-I 70 W/m² 8,5 °C 9,1 °C 0,0 km/h (0 Bft)
02.11.2019 08:40 9,1 °C 96 % 1000,1 hPa 0,0 mm 0,0 km/h (0 Bft) O-SO 107 ° 0 min 0,000 mm 0,0 UV-I 74 W/m² 8,5 °C 9,1 °C 0,0 km/h (0 Bft)
02.11.2019 08:41 9,1 °C 96 % 1000,1 hPa 0,0 mm 0,0 km/h (0 Bft) O-SO 107 ° 0 min 0,000 mm 0,0 UV-I 77 W/m² 8,5 °C 9,1 °C 0,0 km/h (0 Bft)
02.11.2019 08:42 9,1 °C 96 % 1000,1 hPa 0,0 mm 0,0 km/h (0 Bft) O-SO 107 ° 0 min 0,000 mm 0,0 UV-I 79 W/m² 8,5 °C 9,1 °C 0,0 km/h (0 Bft)
02.11.2019 08:43 9,1 °C 96 % 1000,1 hPa 0,0 mm 0,0 km/h (0 Bft) O-SO 107 ° 0 min 0,000 mm 0,5 UV-I 79 W/m² 8,5 °C 9,1 °C 0,0 km/h (0 Bft)
02.11.2019 08:44 9,1 °C 96 % 1000,1 hPa 0,0 mm 0,0 km/h (0 Bft) O-SO 107 ° 0 min 0,000 mm 0,5 UV-I 83 W/m² 8,5 °C 9,1 °C 0,0 km/h (0 Bft)
02.11.2019 08:45 9,1 °C 96 % 1000,1 hPa 0,0 mm 0,0 km/h (0 Bft) O-SO 107 ° 0 min 0,000 mm 0,5 UV-I 83 W/m² 8,5 °C 9,1 °C 0,0 km/h (0 Bft)
02.11.2019 08:46 9,2 °C 96 % 1000,1 hPa 0,0 mm 0,0 km/h (0 Bft) O-SO 107 ° 0 min 0,000 mm 0,0 UV-I 83 W/m² 8,6 °C 9,2 °C 0,0 km/h (0 Bft)
02.11.2019 08:47 9,2 °C 96 % 1000,1 hPa 0,0 mm 0,0 km/h (0 Bft) O-SO 107 ° 0 min 0,000 mm 0,0 UV-I 84 W/m² 8,6 °C 9,2 °C 0,0 km/h (0 Bft)
02.11.2019 08:48 9,2 °C 96 % 1000,1 hPa 0,0 mm 0,0 km/h (0 Bft) O-SO 107 ° 0 min 0,000 mm 0,0 UV-I 84 W/m² 8,6 °C 9,2 °C 0,0 km/h (0 Bft)
02.11.2019 08:49 9,2 °C 96 % 1000,2 hPa 0,0 mm 0,0 km/h (0 Bft) O-SO 107 ° 0 min 0,000 mm 0,0 UV-I 86 W/m² 8,6 °C 9,2 °C 0,0 km/h (0 Bft)
02.11.2019 08:50 9,2 °C 96 % 1000,2 hPa 0,0 mm 0,5 km/h (0 Bft) O-SO 107 ° 0 min 0,000 mm 0,5 UV-I 90 W/m² 8,6 °C 9,2 °C 1,6 km/h (1 Bft)
02.11.2019 08:51 9,3 °C 96 % 1000,2 hPa 0,0 mm 0,7 km/h (0 Bft) O-SO 107 ° 0 min 0,000 mm 0,5 UV-I 95 W/m² 8,7 °C 9,3 °C 1,6 km/h (1 Bft)
02.11.2019 08:52 9,3 °C 96 % 1000,2 hPa 0,0 mm 0,0 km/h (0 Bft) O-SO 107 ° 0 min 0,000 mm 0,5 UV-I 98 W/m² 8,7 °C 9,3 °C 0,0 km/h (0 Bft)
02.11.2019 08:53 9,4 °C 96 % 1000,3 hPa 0,0 mm 0,0 km/h (0 Bft) O-SO 107 ° 0 min 0,000 mm 0,5 UV-I 98 W/m² 8,8 °C 9,4 °C 0,0 km/h (0 Bft)
02.11.2019 08:54 9,4 °C 96 % 1000,3 hPa 0,0 mm 2,1 km/h (1 Bft) O-SO 107 ° 0 min 0,000 mm 0,5 UV-I 97 W/m² 8,8 °C 9,4 °C 3,2 km/h (1 Bft)
02.11.2019 08:55 9,5 °C 96 % 1000,3 hPa 0,0 mm 1,5 km/h (1 Bft) O-SO 107 ° 0 min 0,000 mm 0,5 UV-I 93 W/m² 8,9 °C 9,5 °C 3,2 km/h (1 Bft)
02.11.2019 08:56 9,5 °C 96 % 1000,2 hPa 0,0 mm 0,8 km/h (0 Bft) O-SO 107 ° 0 min 0,000 mm 0,5 UV-I 90 W/m² 8,9 °C 9,5 °C 3,2 km/h (1 Bft)
02.11.2019 08:57 9,6 °C 96 % 1000,2 hPa 0,0 mm 0,3 km/h (0 Bft) O-SO 107 ° 0 min 0,000 mm 0,5 UV-I 83 W/m² 9,0 °C 9,6 °C 1,6 km/h (1 Bft)
02.11.2019 08:58 9,6 °C 96 % 1000,3 hPa 0,0 mm 0,6 km/h (0 Bft) O-SO 107 ° 0 min 0,000 mm 0,5 UV-I 81 W/m² 9,0 °C 9,6 °C 3,2 km/h (1 Bft)
02.11.2019 08:59 9,6 °C 96 % 1000,2 hPa 0,0 mm 2,1 km/h (1 Bft) O-SO 107 ° 0 min 0,000 mm 0,5 UV-I 83 W/m² 9,0 °C 9,6 °C 3,2 km/h (1 Bft)
02.11.2019 09:00 9,6 °C 96 % 1000,3 hPa 0,0 mm 1,9 km/h (1 Bft) O-SO 107 ° 0 min 0,025 mm 0,5 UV-I 83 W/m² 9,0 °C 9,6 °C 3,2 km/h (1 Bft)
02.11.2019 09:01 9,7 °C 96 % 1000,3 hPa 0,0 mm 0,3 km/h (0 Bft) N-NO 31 ° 0 min 0,000 mm 0,5 UV-I 84 W/m² 9,1 °C 9,7 °C 1,6 km/h (1 Bft)
02.11.2019 09:02 9,7 °C 96 % 1000,3 hPa 0,0 mm 0,6 km/h (0 Bft) N-NO 31 ° 0 min 0,000 mm 0,5 UV-I 86 W/m² 9,1 °C 9,7 °C 1,6 km/h (1 Bft)
02.11.2019 09:03 9,7 °C 96 % 1000,2 hPa 0,0 mm 0,0 km/h (0 Bft) N-NO 31 ° 0 min 0,000 mm 0,5 UV-I 81 W/m² 9,1 °C 9,7 °C 0,0 km/h (0 Bft)
02.11.2019 09:04 9,7 °C 96 % 1000,2 hPa 0,0 mm 0,0 km/h (0 Bft) N-NO 31 ° 0 min 0,000 mm 0,0 UV-I 76 W/m² 9,1 °C 9,7 °C 0,0 km/h (0 Bft)
02.11.2019 09:05 9,7 °C 96 % 1000,2 hPa 0,0 mm 0,5 km/h (0 Bft) N-NO 31 ° 0 min 0,000 mm 0,0 UV-I 69 W/m² 9,1 °C 9,7 °C 3,2 km/h (1 Bft)
02.11.2019 09:06 9,8 °C 96 % 1000,3 hPa 0,0 mm 0,7 km/h (0 Bft) N-NO 31 ° 0 min 0,000 mm 0,0 UV-I 63 W/m² 9,2 °C 9,8 °C 1,6 km/h (1 Bft)
02.11.2019 09:07 9,8 °C 96 % 1000,4 hPa 0,0 mm 0,0 km/h (0 Bft) N-NO 31 ° 0 min 0,000 mm 0,0 UV-I 58 W/m² 9,2 °C 9,8 °C 0,0 km/h (0 Bft)
02.11.2019 09:08 9,8 °C 96 % 1000,3 hPa 0,0 mm 0,0 km/h (0 Bft) N-NO 31 ° 0 min 0,000 mm 0,0 UV-I 47 W/m² 9,2 °C 9,8 °C 0,0 km/h (0 Bft)
02.11.2019 09:09 9,8 °C 96 % 1000,3 hPa 0,0 mm 0,3 km/h (0 Bft) N-NO 31 ° 0 min 0,000 mm 0,0 UV-I 46 W/m² 9,2 °C 9,8 °C 1,6 km/h (1 Bft)
02.11.2019 09:10 9,8 °C 96 % 1000,3 hPa 0,0 mm 1,0 km/h (0 Bft) N-NO 31 ° 0 min 0,000 mm 0,0 UV-I 44 W/m² 9,2 °C 9,8 °C 1,6 km/h (1 Bft)
02.11.2019 09:11 9,9 °C 96 % 1000,2 hPa 0,0 mm 3,0 km/h (1 Bft) N-NO 31 ° 0 min 0,000 mm 0,0 UV-I 42 W/m² 9,3 °C 9,9 °C 3,2 km/h (1 Bft)
02.11.2019 09:12 9,9 °C 96 % 1000,2 hPa 0,0 mm 0,9 km/h (0 Bft) N-NO 31 ° 0 min 0,000 mm 0,0 UV-I 42 W/m² 9,3 °C 9,9 °C 3,2 km/h (1 Bft)
02.11.2019 09:13 9,9 °C 96 % 1000,2 hPa 0,0 mm 0,0 km/h (0 Bft) N-NO 31 ° 0 min 0,000 mm 0,0 UV-I 42 W/m² 9,3 °C 9,9 °C 0,0 km/h (0 Bft)
02.11.2019 09:14 9,9 °C 96 % 1000,1 hPa 0,0 mm 0,0 km/h (0 Bft) N-NO 31 ° 0 min 0,000 mm 0,0 UV-I 42 W/m² 9,3 °C 9,9 °C 0,0 km/h (0 Bft)
02.11.2019 09:15 9,9 °C 96 % 1000,1 hPa 0,0 mm 0,0 km/h (0 Bft) N-NO 31 ° 0 min 0,000 mm 0,0 UV-I 46 W/m² 9,3 °C 9,9 °C 0,0 km/h (0 Bft)
02.11.2019 09:16 9,9 °C 96 % 1000,0 hPa 0,0 mm 0,7 km/h (0 Bft) N-NO 31 ° 0 min 0,000 mm 0,0 UV-I 49 W/m² 9,3 °C 9,9 °C 3,2 km/h (1 Bft)
02.11.2019 09:17 9,9 °C 96 % 999,9 hPa 0,0 mm 3,4 km/h (1 Bft) O-SO 102 ° 0 min 0,000 mm 0,0 UV-I 53 W/m² 9,3 °C 9,9 °C 4,8 km/h (1 Bft)
02.11.2019 09:18 9,9 °C 96 % 999,9 hPa 0,0 mm 2,0 km/h (1 Bft) O-SO 102 ° 0 min 0,000 mm 0,0 UV-I 54 W/m² 9,3 °C 9,9 °C 3,2 km/h (1 Bft)
02.11.2019 09:19 9,9 °C 96 % 999,8 hPa 0,0 mm 1,1 km/h (1 Bft) O-SO 102 ° 0 min 0,000 mm 0,0 UV-I 58 W/m² 9,3 °C 9,9 °C 1,6 km/h (1 Bft)
02.11.2019 09:20 9,9 °C 96 % 999,9 hPa 0,0 mm 0,1 km/h (0 Bft) O-SO 102 ° 0 min 0,000 mm 0,0 UV-I 62 W/m² 9,3 °C 9,9 °C 1,6 km/h (1 Bft)
02.11.2019 09:21 9,9 °C 96 % 999,9 hPa 0,0 mm 0,0 km/h (0 Bft) O-SO 102 ° 0 min 0,000 mm 0,0 UV-I 62 W/m² 9,3 °C 9,9 °C 0,0 km/h (0 Bft)
02.11.2019 09:22 9,9 °C 96 % 999,9 hPa 0,0 mm 0,9 km/h (0 Bft) O-SO 102 ° 0 min 0,000 mm 0,0 UV-I 63 W/m² 9,3 °C 9,9 °C 3,2 km/h (1 Bft)
02.11.2019 09:23 9,9 °C 96 % 999,8 hPa 0,0 mm 2,7 km/h (1 Bft) O-SO 102 ° 0 min 0,000 mm 0,0 UV-I 63 W/m² 9,3 °C 9,9 °C 3,2 km/h (1 Bft)
02.11.2019 09:24 9,9 °C 96 % 999,8 hPa 0,0 mm 3,1 km/h (1 Bft) O-SO 102 ° 0 min 0,000 mm 0,0 UV-I 65 W/m² 9,3 °C 9,9 °C 4,8 km/h (1 Bft)
02.11.2019 09:25 10,0 °C 96 % 999,8 hPa 0,0 mm 2,5 km/h (1 Bft) O-SO 102 ° 0 min 0,000 mm 0,5 UV-I 69 W/m² 9,4 °C 10,0 °C 4,8 km/h (1 Bft)
02.11.2019 09:26 10,0 °C 96 % 999,7 hPa 0,0 mm 0,5 km/h (0 Bft) O-SO 102 ° 0 min 0,000 mm 0,5 UV-I 70 W/m² 9,4 °C 10,0 °C 1,6 km/h (1 Bft)
02.11.2019 09:27 10,0 °C 96 % 999,7 hPa 0,0 mm 0,0 km/h (0 Bft) O-SO 102 ° 0 min 0,000 mm 0,5 UV-I 76 W/m² 9,4 °C 10,0 °C 0,0 km/h (0 Bft)
02.11.2019 09:28 10,0 °C 96 % 999,7 hPa 0,0 mm 0,0 km/h (0 Bft) O-SO 102 ° 0 min 0,000 mm 0,6 UV-I 77 W/m² 9,4 °C 10,0 °C 0,0 km/h (0 Bft)
02.11.2019 09:29 10,0 °C 96 % 999,7 hPa 0,0 mm 0,0 km/h (0 Bft) O-SO 102 ° 0 min 0,000 mm 0,6 UV-I 81 W/m² 9,4 °C 10,0 °C 0,0 km/h (0 Bft)
02.11.2019 09:30 10,0 °C 96 % 999,7 hPa 0,0 mm 0,0 km/h (0 Bft) O-SO 102 ° 0 min 0,000 mm 0,6 UV-I 83 W/m² 9,4 °C 10,0 °C 0,0 km/h (0 Bft)
02.11.2019 09:31 10,1 °C 96 % 999,6 hPa 0,0 mm 0,0 km/h (0 Bft) O-SO 102 ° 0 min 0,000 mm 0,6 UV-I 86 W/m² 9,5 °C 10,1 °C 0,0 km/h (0 Bft)
02.11.2019 09:32 10,1 °C 96 % 999,7 hPa 0,0 mm 0,0 km/h (0 Bft) O-SO 102 ° 0 min 0,000 mm 0,6 UV-I 93 W/m² 9,5 °C 10,1 °C 0,0 km/h (0 Bft)
02.11.2019 09:33 10,1 °C 96 % 999,6 hPa 0,0 mm 0,0 km/h (0 Bft) O-SO 102 ° 0 min 0,000 mm 0,7 UV-I 98 W/m² 9,5 °C 10,1 °C 0,0 km/h (0 Bft)
02.11.2019 09:34 10,1 °C 96 % 999,7 hPa 0,0 mm 0,0 km/h (0 Bft) O-SO 102 ° 0 min 0,000 mm 0,7 UV-I 104 W/m² 9,5 °C 10,1 °C 0,0 km/h (0 Bft)
02.11.2019 09:35 10,1 °C 96 % 999,6 hPa 0,0 mm 0,8 km/h (0 Bft) O-SO 102 ° 0 min 0,000 mm 0,8 UV-I 107 W/m² 9,5 °C 10,1 °C 3,2 km/h (1 Bft)
02.11.2019 09:36 10,1 °C 96 % 999,6 hPa 0,0 mm 0,4 km/h (0 Bft) O-SO 102 ° 0 min 0,000 mm 0,8 UV-I 109 W/m² 9,5 °C 10,1 °C 3,2 km/h (1 Bft)
02.11.2019 09:37 10,1 °C 96 % 999,6 hPa 0,0 mm 0,0 km/h (0 Bft) O-SO 102 ° 0 min 0,000 mm 0,8 UV-I 111 W/m² 9,5 °C 10,1 °C 0,0 km/h (0 Bft)
02.11.2019 09:38 10,2 °C 96 % 999,6 hPa 0,0 mm 0,4 km/h (0 Bft) O-SO 102 ° 0 min 0,000 mm 0,8 UV-I 109 W/m² 9,6 °C 10,2 °C 1,6 km/h (1 Bft)
02.11.2019 09:39 10,2 °C 96 % 999,6 hPa 0,0 mm 0,0 km/h (0 Bft) O-SO 102 ° 0 min 0,000 mm 0,8 UV-I 109 W/m² 9,6 °C 10,2 °C 0,0 km/h (0 Bft)
02.11.2019 09:40 10,2 °C 96 % 999,7 hPa 0,0 mm 0,0 km/h (0 Bft) O-SO 102 ° 0 min 0,000 mm 0,8 UV-I 111 W/m² 9,6 °C 10,2 °C 0,0 km/h (0 Bft)
02.11.2019 09:41 10,2 °C 96 % 999,6 hPa 0,0 mm 0,0 km/h (0 Bft) O-SO 102 ° 0 min 0,000 mm 0,8 UV-I 114 W/m² 9,6 °C 10,2 °C 0,0 km/h (0 Bft)
02.11.2019 09:42 10,3 °C 96 % 999,6 hPa 0,0 mm 0,0 km/h (0 Bft) O-SO 102 ° 0 min 0,000 mm 0,9 UV-I 120 W/m² 9,7 °C 10,3 °C 0,0 km/h (0 Bft)
02.11.2019 09:43 10,3 °C 96 % 999,7 hPa 0,0 mm 0,0 km/h (0 Bft) O-SO 102 ° 0 min 0,000 mm 0,9 UV-I 134 W/m² 9,7 °C 10,3 °C 0,0 km/h (0 Bft)
02.11.2019 09:44 10,4 °C 96 % 999,6 hPa 0,0 mm 0,0 km/h (0 Bft) O-SO 102 ° 0 min 0,000 mm 0,9 UV-I 139 W/m² 9,8 °C 10,4 °C 0,0 km/h (0 Bft)
02.11.2019 09:45 10,4 °C 96 % 999,6 hPa 0,0 mm 0,0 km/h (0 Bft) O-SO 102 ° 0 min 0,000 mm 1,0 UV-I 144 W/m² 9,8 °C 10,4 °C 0,0 km/h (0 Bft)
02.11.2019 09:46 10,4 °C 96 % 999,6 hPa 0,0 mm 0,0 km/h (0 Bft) O-SO 102 ° 0 min 0,000 mm 1,0 UV-I 149 W/m² 9,8 °C 10,4 °C 0,0 km/h (0 Bft)
02.11.2019 09:47 10,5 °C 96 % 999,5 hPa 0,0 mm 0,0 km/h (0 Bft) O-SO 102 ° 0 min 0,000 mm 1,0 UV-I 151 W/m² 9,9 °C 10,5 °C 0,0 km/h (0 Bft)
02.11.2019 09:48 10,6 °C 96 % 999,4 hPa 0,0 mm 0,0 km/h (0 Bft) O-SO 102 ° 0 min 0,000 mm 1,0 UV-I 151 W/m² 10,0 °C 10,6 °C 0,0 km/h (0 Bft)
02.11.2019 09:49 10,6 °C 96 % 999,4 hPa 0,0 mm 0,0 km/h (0 Bft) O-SO 102 ° 0 min 0,000 mm 1,0 UV-I 151 W/m² 10,0 °C 10,6 °C 0,0 km/h (0 Bft)
02.11.2019 09:50 10,7 °C 96 % 999,4 hPa 0,0 mm 0,0 km/h (0 Bft) O-SO 102 ° 0 min 0,000 mm 1,0 UV-I 149 W/m² 10,1 °C 10,7 °C 0,0 km/h (0 Bft)
02.11.2019 09:51 10,7 °C 96 % 999,4 hPa 0,0 mm 0,0 km/h (0 Bft) O-SO 102 ° 0 min 0,000 mm 1,0 UV-I 148 W/m² 10,1 °C 10,7 °C 0,0 km/h (0 Bft)
02.11.2019 09:52 10,7 °C 96 % 999,4 hPa 0,0 mm 0,0 km/h (0 Bft) O-SO 102 ° 0 min 0,000 mm 1,0 UV-I 144 W/m² 10,1 °C 10,7 °C 0,0 km/h (0 Bft)
02.11.2019 09:53 10,8 °C 96 % 999,4 hPa 0,0 mm 0,0 km/h (0 Bft) O-SO 102 ° 0 min 0,000 mm 1,0 UV-I 139 W/m² 10,2 °C 10,8 °C 0,0 km/h (0 Bft)
02.11.2019 09:54 10,8 °C 96 % 999,4 hPa 0,0 mm 0,0 km/h (0 Bft) O-SO 102 ° 0 min 0,000 mm 0,9 UV-I 132 W/m² 10,2 °C 10,8 °C 0,0 km/h (0 Bft)
02.11.2019 09:55 10,8 °C 96 % 999,3 hPa 0,0 mm 0,0 km/h (0 Bft) O-SO 102 ° 0 min 0,000 mm 0,9 UV-I 118 W/m² 10,2 °C 10,8 °C 0,0 km/h (0 Bft)
02.11.2019 09:56 10,8 °C 96 % 999,4 hPa 0,0 mm 0,0 km/h (0 Bft) O-SO 102 ° 0 min 0,000 mm 0,9 UV-I 114 W/m² 10,2 °C 10,8 °C 0,0 km/h (0 Bft)
02.11.2019 09:57 10,9 °C 96 % 999,3 hPa 0,0 mm 0,0 km/h (0 Bft) O-SO 102 ° 0 min 0,000 mm 0,9 UV-I 114 W/m² 10,3 °C 10,9 °C 0,0 km/h (0 Bft)
02.11.2019 09:58 10,9 °C 96 % 999,3 hPa 0,0 mm 0,0 km/h (0 Bft) O-SO 102 ° 0 min 0,000 mm 1,0 UV-I 116 W/m² 10,3 °C 10,9 °C 0,0 km/h (0 Bft)
02.11.2019 09:59 11,0 °C 96 % 999,3 hPa 0,0 mm 0,0 km/h (0 Bft) O-SO 102 ° 0 min 0,000 mm 1,0 UV-I 118 W/m² 10,4 °C 11,0 °C 0,0 km/h (0 Bft)
02.11.2019 10:00 11,0 °C 96 % 999,2 hPa 0,0 mm 0,0 km/h (0 Bft) O-SO 102 ° 0 min 0,051 mm 1,0 UV-I 121 W/m² 10,4 °C 11,0 °C 0,0 km/h (0 Bft)
02.11.2019 10:01 11,1 °C 96 % 999,2 hPa 0,0 mm 0,0 km/h (0 Bft) O-SO 102 ° 0 min 0,000 mm 1,0 UV-I 123 W/m² 10,5 °C 11,1 °C 0,0 km/h (0 Bft)
02.11.2019 10:02 11,1 °C 95 % 999,2 hPa 0,0 mm 0,0 km/h (0 Bft) O-SO 102 ° 0 min 0,000 mm 1,1 UV-I 123 W/m² 10,3 °C 11,1 °C 0,0 km/h (0 Bft)
02.11.2019 10:03 11,1 °C 95 % 999,2 hPa 0,0 mm 0,0 km/h (0 Bft) O-SO 102 ° 0 min 0,000 mm 1,1 UV-I 123 W/m² 10,3 °C 11,1 °C 0,0 km/h (0 Bft)
02.11.2019 10:04 11,2 °C 95 % 999,2 hPa 0,0 mm 0,0 km/h (0 Bft) O-SO 102 ° 0 min 0,000 mm 1,1 UV-I 125 W/m² 10,4 °C 11,2 °C 0,0 km/h (0 Bft)
02.11.2019 10:05 11,2 °C 95 % 999,2 hPa 0,0 mm 0,0 km/h (0 Bft) O-SO 102 ° 0 min 0,000 mm 1,1 UV-I 127 W/m² 10,4 °C 11,2 °C 0,0 km/h (0 Bft)
02.11.2019 10:06 11,2 °C 95 % 999,3 hPa 0,0 mm 0,0 km/h (0 Bft) O-SO 102 ° 0 min 0,000 mm 1,2 UV-I 128 W/m² 10,4 °C 11,2 °C 0,0 km/h (0 Bft)
02.11.2019 10:07 11,3 °C 96 % 999,4 hPa 0,0 mm 0,0 km/h (0 Bft) O-SO 102 ° 0 min 0,000 mm 1,2 UV-I 139 W/m² 10,7 °C 11,3 °C 0,0 km/h (0 Bft)
02.11.2019 10:08 11,3 °C 95 % 999,3 hPa 0,0 mm 0,0 km/h (0 Bft) O-SO 102 ° 0 min 0,000 mm 1,2 UV-I 151 W/m² 10,5 °C 11,3 °C 0,0 km/h (0 Bft)
02.11.2019 10:09 11,3 °C 95 % 999,3 hPa 0,0 mm 0,0 km/h (0 Bft) O-SO 102 ° 0 min 0,000 mm 1,2 UV-I 171 W/m² 10,5 °C 11,3 °C 0,0 km/h (0 Bft)
02.11.2019 10:10 11,3 °C 95 % 999,4 hPa 0,0 mm 3,2 km/h (1 Bft) O-SO 102 ° 0 min 0,000 mm 1,2 UV-I 181 W/m² 10,5 °C 11,3 °C 4,8 km/h (1 Bft)
02.11.2019 10:11 11,3 °C 95 % 999,4 hPa 0,0 mm 2,3 km/h (1 Bft) O-SO 102 ° 0 min 0,000 mm 1,2 UV-I 185 W/m² 10,5 °C 11,3 °C 3,2 km/h (1 Bft)
02.11.2019 10:12 11,3 °C 95 % 999,4 hPa 0,0 mm 3,2 km/h (1 Bft) W-NW 300 ° 0 min 0,000 mm 1,2 UV-I 185 W/m² 10,5 °C 11,3 °C 6,4 km/h (2 Bft)
02.11.2019 10:13 11,4 °C 95 % 999,4 hPa 0,0 mm 0,7 km/h (0 Bft) W-NW 300 ° 0 min 0,000 mm 1,2 UV-I 190 W/m² 10,6 °C 11,4 °C 3,2 km/h (1 Bft)
02.11.2019 10:14 11,5 °C 94 % 999,4 hPa 0,0 mm 0,0 km/h (0 Bft) W-NW 300 ° 0 min 0,000 mm 1,2 UV-I 197 W/m² 10,6 °C 11,5 °C 0,0 km/h (0 Bft)
02.11.2019 10:15 11,7 °C 94 % 999,4 hPa 0,0 mm 0,0 km/h (0 Bft) W-NW 300 ° 0 min 0,000 mm 1,2 UV-I 199 W/m² 10,8 °C 11,7 °C 0,0 km/h (0 Bft)
02.11.2019 10:16 11,8 °C 95 % 999,3 hPa 0,0 mm 0,0 km/h (0 Bft) W-NW 300 ° 0 min 0,000 mm 1,2 UV-I 200 W/m² 11,0 °C 11,8 °C 0,0 km/h (0 Bft)
02.11.2019 10:17 11,8 °C 94 % 999,3 hPa 0,0 mm 2,5 km/h (1 Bft) O-NO 63 ° 0 min 0,000 mm 1,3 UV-I 200 W/m² 10,9 °C 11,8 °C 4,8 km/h (1 Bft)
02.11.2019 10:18 11,8 °C 94 % 999,3 hPa 0,0 mm 2,5 km/h (1 Bft) O-NO 63 ° 0 min 0,000 mm 1,3 UV-I 195 W/m² 10,9 °C 11,8 °C 3,2 km/h (1 Bft)
02.11.2019 10:19 11,9 °C 94 % 999,3 hPa 0,0 mm 0,6 km/h (0 Bft) O-NO 63 ° 0 min 0,000 mm 1,3 UV-I 197 W/m² 11,0 °C 11,9 °C 3,2 km/h (1 Bft)
02.11.2019 10:20 11,9 °C 94 % 999,2 hPa 0,0 mm 0,3 km/h (0 Bft) O-NO 63 ° 0 min 0,000 mm 1,3 UV-I 204 W/m² 11,0 °C 11,9 °C 1,6 km/h (1 Bft)
02.11.2019 10:21 11,9 °C 94 % 999,2 hPa 0,0 mm 1,9 km/h (1 Bft) O-NO 63 ° 0 min 0,000 mm 1,3 UV-I 209 W/m² 11,0 °C 11,9 °C 3,2 km/h (1 Bft)
02.11.2019 10:22 11,9 °C 94 % 999,2 hPa 0,0 mm 0,6 km/h (0 Bft) O-NO 63 ° 0 min 0,000 mm 1,3 UV-I 207 W/m² 11,0 °C 11,9 °C 1,6 km/h (1 Bft)
02.11.2019 10:23 11,9 °C 93 % 999,2 hPa 0,0 mm 1,4 km/h (1 Bft) O-NO 63 ° 0 min 0,000 mm 1,3 UV-I 204 W/m² 10,8 °C 11,9 °C 3,2 km/h (1 Bft)
02.11.2019 10:24 11,9 °C 92 % 999,2 hPa 0,0 mm 0,0 km/h (0 Bft) O-NO 63 ° 0 min 0,000 mm 1,3 UV-I 197 W/m² 10,6 °C 11,9 °C 0,0 km/h (0 Bft)
02.11.2019 10:25 11,9 °C 92 % 999,2 hPa 0,0 mm 0,0 km/h (0 Bft) O-NO 63 ° 0 min 0,000 mm 1,3 UV-I 193 W/m² 10,6 °C 11,9 °C 0,0 km/h (0 Bft)
02.11.2019 10:26 11,9 °C 91 % 999,3 hPa 0,0 mm 0,0 km/h (0 Bft) O-NO 63 ° 0 min 0,000 mm 1,2 UV-I 183 W/m² 10,5 °C 11,9 °C 0,0 km/h (0 Bft)
02.11.2019 10:27 12,1 °C 91 % 999,4 hPa 0,0 mm 2,5 km/h (1 Bft) O-NO 63 ° 0 min 0,000 mm 1,2 UV-I 172 W/m² 10,7 °C 12,1 °C 3,2 km/h (1 Bft)
02.11.2019 10:28 12,2 °C 91 % 999,4 hPa 0,0 mm 1,1 km/h (1 Bft) O-NO 63 ° 0 min 0,000 mm 1,1 UV-I 172 W/m² 10,8 °C 12,2 °C 1,6 km/h (1 Bft)
02.11.2019 10:29 12,3 °C 91 % 999,4 hPa 0,0 mm 0,6 km/h (0 Bft) O-NO 63 ° 0 min 0,000 mm 1,2 UV-I 181 W/m² 10,9 °C 12,3 °C 1,6 km/h (1 Bft)
02.11.2019 10:30 12,3 °C 90 % 999,5 hPa 0,0 mm 0,2 km/h (0 Bft) O-NO 63 ° 0 min 0,000 mm 1,2 UV-I 183 W/m² 10,7 °C 12,3 °C 1,6 km/h (1 Bft)
02.11.2019 10:31 12,4 °C 90 % 999,5 hPa 0,0 mm 0,1 km/h (0 Bft) O-NO 63 ° 0 min 0,000 mm 1,1 UV-I 174 W/m² 10,8 °C 12,4 °C 1,6 km/h (1 Bft)
02.11.2019 10:32 12,4 °C 90 % 999,5 hPa 0,0 mm 0,0 km/h (0 Bft) O-NO 63 ° 0 min 0,000 mm 1,0 UV-I 174 W/m² 10,8 °C 12,4 °C 0,0 km/h (0 Bft)
02.11.2019 10:33 12,5 °C 89 % 999,5 hPa 0,0 mm 0,0 km/h (0 Bft) O-NO 63 ° 0 min 0,000 mm 1,0 UV-I 149 W/m² 10,7 °C 12,5 °C 0,0 km/h (0 Bft)
02.11.2019 10:34 12,5 °C 89 % 999,6 hPa 0,0 mm 0,0 km/h (0 Bft) O-NO 63 ° 0 min 0,000 mm 1,0 UV-I 149 W/m² 10,7 °C 12,5 °C 0,0 km/h (0 Bft)
02.11.2019 10:35 12,6 °C 88 % 999,6 hPa 0,0 mm 0,0 km/h (0 Bft) O-NO 63 ° 0 min 0,000 mm 1,0 UV-I 162 W/m² 10,7 °C 12,6 °C 0,0 km/h (0 Bft)
02.11.2019 10:36 12,6 °C 89 % 999,6 hPa 0,0 mm 0,0 km/h (0 Bft) O-NO 63 ° 0 min 0,000 mm 1,0 UV-I 178 W/m² 10,8 °C 12,6 °C 0,0 km/h (0 Bft)
02.11.2019 10:37 12,7 °C 88 % 999,6 hPa 0,0 mm 0,0 km/h (0 Bft) O-NO 63 ° 0 min 0,000 mm 1,1 UV-I 183 W/m² 10,8 °C 12,7 °C 0,0 km/h (0 Bft)
02.11.2019 10:38 12,7 °C 89 % 999,7 hPa 0,0 mm 0,0 km/h (0 Bft) O-NO 63 ° 0 min 0,000 mm 1,2 UV-I 193 W/m² 10,9 °C 12,7 °C 0,0 km/h (0 Bft)
02.11.2019 10:39 12,8 °C 88 % 999,7 hPa 0,0 mm 1,5 km/h (1 Bft) O-NO 63 ° 0 min 0,000 mm 1,3 UV-I 206 W/m² 10,9 °C 12,8 °C 3,2 km/h (1 Bft)
02.11.2019 10:40 12,8 °C 88 % 999,7 hPa 0,0 mm 0,2 km/h (0 Bft) O-NO 63 ° 0 min 0,000 mm 1,3 UV-I 220 W/m² 10,9 °C 12,8 °C 1,6 km/h (1 Bft)
02.11.2019 10:41 12,8 °C 88 % 999,7 hPa 0,0 mm 0,5 km/h (0 Bft) O-NO 63 ° 0 min 0,000 mm 1,4 UV-I 237 W/m² 10,9 °C 12,8 °C 1,6 km/h (1 Bft)
02.11.2019 10:42 12,8 °C 87 % 999,7 hPa 0,0 mm 2,2 km/h (1 Bft) O-NO 63 ° 0 min 0,000 mm 1,5 UV-I 262 W/m² 10,7 °C 12,8 °C 3,2 km/h (1 Bft)
02.11.2019 10:43 12,8 °C 88 % 999,7 hPa 0,0 mm 3,3 km/h (1 Bft) W-NW 294 ° 0 min 0,000 mm 1,6 UV-I 271 W/m² 10,9 °C 12,8 °C 4,8 km/h (1 Bft)
02.11.2019 10:44 12,8 °C 87 % 999,7 hPa 0,0 mm 1,5 km/h (1 Bft) W-NW 294 ° 0 min 0,000 mm 1,6 UV-I 274 W/m² 10,7 °C 12,8 °C 3,2 km/h (1 Bft)
02.11.2019 10:45 12,8 °C 87 % 999,8 hPa 0,0 mm 1,2 km/h (1 Bft) W-NW 295 ° 0 min 0,000 mm 1,5 UV-I 276 W/m² 10,7 °C 12,8 °C 3,2 km/h (1 Bft)
02.11.2019 10:46 12,9 °C 88 % 999,8 hPa 0,0 mm 1,5 km/h (1 Bft) W-NW 295 ° 0 min 0,000 mm 1,5 UV-I 276 W/m² 11,0 °C 12,9 °C 3,2 km/h (1 Bft)
02.11.2019 10:47 12,9 °C 87 % 999,7 hPa 0,0 mm 0,5 km/h (0 Bft) W-NW 295 ° 0 min 0,000 mm 1,5 UV-I 272 W/m² 10,8 °C 12,9 °C 1,6 km/h (1 Bft)
02.11.2019 10:48 12,9 °C 87 % 999,7 hPa 0,0 mm 2,1 km/h (1 Bft) W-NW 295 ° 0 min 0,000 mm 1,5 UV-I 257 W/m² 10,8 °C 12,9 °C 4,8 km/h (1 Bft)
02.11.2019 10:49 12,9 °C 88 % 999,8 hPa 0,0 mm 1,5 km/h (1 Bft) W-NW 295 ° 0 min 0,000 mm 1,4 UV-I 257 W/m² 11,0 °C 12,9 °C 4,8 km/h (1 Bft)
02.11.2019 10:50 12,9 °C 88 % 999,8 hPa 0,0 mm 1,2 km/h (1 Bft) W-NW 294 ° 0 min 0,000 mm 1,4 UV-I 257 W/m² 11,0 °C 12,9 °C 3,2 km/h (1 Bft)
02.11.2019 10:51 12,9 °C 87 % 999,7 hPa 0,0 mm 0,0 km/h (0 Bft) W 273 ° 0 min 0,000 mm 1,4 UV-I 257 W/m² 10,8 °C 12,9 °C 0,0 km/h (0 Bft)
02.11.2019 10:52 12,9 °C 86 % 999,8 hPa 0,0 mm 0,3 km/h (0 Bft) W 273 ° 0 min 0,000 mm 1,4 UV-I 248 W/m² 10,6 °C 12,9 °C 1,6 km/h (1 Bft)
02.11.2019 10:53 12,9 °C 87 % 999,8 hPa 0,0 mm 0,0 km/h (0 Bft) W 273 ° 0 min 0,000 mm 1,4 UV-I 239 W/m² 10,8 °C 12,9 °C 0,0 km/h (0 Bft)
02.11.2019 10:54 12,9 °C 87 % 999,8 hPa 0,0 mm 0,0 km/h (0 Bft) W 273 ° 0 min 0,000 mm 1,4 UV-I 223 W/m² 10,8 °C 12,9 °C 0,0 km/h (0 Bft)
02.11.2019 10:55 12,9 °C 87 % 999,7 hPa 0,0 mm 0,0 km/h (0 Bft) W 273 ° 0 min 0,000 mm 1,3 UV-I 225 W/m² 10,8 °C 12,9 °C 0,0 km/h (0 Bft)
02.11.2019 10:56 12,9 °C 87 % 999,7 hPa 0,0 mm 0,0 km/h (0 Bft) W 273 ° 0 min 0,000 mm 1,4 UV-I 232 W/m² 10,8 °C 12,9 °C 0,0 km/h (0 Bft)
02.11.2019 10:57 12,9 °C 86 % 999,7 hPa 0,0 mm 0,0 km/h (0 Bft) W 273 ° 0 min 0,000 mm 1,4 UV-I 246 W/m² 10,6 °C 12,9 °C 0,0 km/h (0 Bft)
02.11.2019 10:58 12,9 °C 86 % 999,7 hPa 0,0 mm 0,0 km/h (0 Bft) W 273 ° 0 min 0,000 mm 1,5 UV-I 251 W/m² 10,6 °C 12,9 °C 0,0 km/h (0 Bft)
02.11.2019 10:59 12,9 °C 86 % 999,7 hPa 0,0 mm 0,0 km/h (0 Bft) W 273 ° 0 min 0,000 mm 1,5 UV-I 253 W/m² 10,6 °C 12,9 °C 0,0 km/h (0 Bft)
02.11.2019 11:00 12,9 °C 86 % 999,7 hPa 0,0 mm 1,2 km/h (1 Bft) W 273 ° 0 min 0,000 mm 1,5 UV-I 243 W/m² 10,6 °C 12,9 °C 3,2 km/h (1 Bft)
02.11.2019 11:01 13,0 °C 87 % 999,7 hPa 0,0 mm 0,3 km/h (0 Bft) W 273 ° 0 min 0,102 mm 1,5 UV-I 237 W/m² 10,9 °C 13,0 °C 3,2 km/h (1 Bft)
02.11.2019 11:02 12,9 °C 87 % 999,7 hPa 0,0 mm 0,0 km/h (0 Bft) W 273 ° 0 min 0,000 mm 1,5 UV-I 232 W/m² 10,8 °C 12,9 °C 0,0 km/h (0 Bft)
02.11.2019 11:03 12,9 °C 87 % 999,7 hPa 0,0 mm 0,0 km/h (0 Bft) W 273 ° 0 min 0,000 mm 1,4 UV-I 225 W/m² 10,8 °C 12,9 °C 0,0 km/h (0 Bft)
02.11.2019 11:04 13,0 °C 86 % 999,7 hPa 0,0 mm 0,0 km/h (0 Bft) W 273 ° 0 min 0,000 mm 1,4 UV-I 218 W/m² 10,7 °C 13,0 °C 0,0 km/h (0 Bft)
02.11.2019 11:05 13,1 °C 86 % 999,7 hPa 0,0 mm 0,0 km/h (0 Bft) W 273 ° 0 min 0,000 mm 1,4 UV-I 218 W/m² 10,8 °C 13,1 °C 0,0 km/h (0 Bft)
02.11.2019 11:06 13,1 °C 85 % 999,8 hPa 0,0 mm 0,0 km/h (0 Bft) W 273 ° 0 min 0,000 mm 1,4 UV-I 223 W/m² 10,6 °C 13,1 °C 0,0 km/h (0 Bft)
02.11.2019 11:07 13,2 °C 85 % 999,8 hPa 0,0 mm 0,0 km/h (0 Bft) W 273 ° 0 min 0,000 mm 1,3 UV-I 218 W/m² 10,7 °C 13,2 °C 0,0 km/h (0 Bft)
02.11.2019 11:08 13,3 °C 85 % 999,8 hPa 0,0 mm 0,0 km/h (0 Bft) W 273 ° 0 min 0,000 mm 1,3 UV-I 218 W/m² 10,8 °C 13,3 °C 0,0 km/h (0 Bft)
02.11.2019 11:09 13,4 °C 87 % 999,8 hPa 0,0 mm 0,0 km/h (0 Bft) W 273 ° 0 min 0,000 mm 1,2 UV-I 197 W/m² 11,3 °C 13,4 °C 0,0 km/h (0 Bft)
02.11.2019 11:10 13,5 °C 87 % 999,8 hPa 0,0 mm 0,0 km/h (0 Bft) W 273 ° 0 min 0,000 mm 1,2 UV-I 190 W/m² 11,4 °C 13,5 °C 0,0 km/h (0 Bft)
02.11.2019 11:11 13,6 °C 88 % 999,8 hPa 0,0 mm 0,0 km/h (0 Bft) W 273 ° 0 min 0,000 mm 1,2 UV-I 188 W/m² 11,6 °C 13,6 °C 0,0 km/h (0 Bft)
02.11.2019 11:12 13,6 °C 89 % 999,8 hPa 0,0 mm 0,0 km/h (0 Bft) W 273 ° 0 min 0,000 mm 1,2 UV-I 192 W/m² 11,8 °C 13,6 °C 0,0 km/h (0 Bft)
02.11.2019 11:13 13,6 °C 88 % 999,8 hPa 0,0 mm 0,0 km/h (0 Bft) W 273 ° 0 min 0,000 mm 1,2 UV-I 197 W/m² 11,6 °C 13,6 °C 0,0 km/h (0 Bft)
02.11.2019 11:14 13,6 °C 86 % 999,8 hPa 0,0 mm 0,0 km/h (0 Bft) W 273 ° 0 min 0,000 mm 1,2 UV-I 199 W/m² 11,3 °C 13,6 °C 0,0 km/h (0 Bft)
02.11.2019 11:15 13,6 °C 84 % 999,8 hPa 0,0 mm 0,0 km/h (0 Bft) W 273 ° 0 min 0,000 mm 1,2 UV-I 200 W/m² 10,9 °C 13,6 °C 0,0 km/h (0 Bft)
02.11.2019 11:16 13,6 °C 83 % 999,8 hPa 0,0 mm 0,0 km/h (0 Bft) W 273 ° 0 min 0,000 mm 1,2 UV-I 202 W/m² 10,8 °C 13,6 °C 0,0 km/h (0 Bft)
02.11.2019 11:17 13,6 °C 83 % 999,8 hPa 0,0 mm 0,0 km/h (0 Bft) W 273 ° 0 min 0,000 mm 1,2 UV-I 206 W/m² 10,8 °C 13,6 °C 0,0 km/h (0 Bft)
02.11.2019 11:18 13,7 °C 83 % 999,8 hPa 0,0 mm 0,0 km/h (0 Bft) W 273 ° 0 min 0,000 mm 1,3 UV-I 209 W/m² 10,9 °C 13,7 °C 0,0 km/h (0 Bft)
02.11.2019 11:19 13,8 °C 83 % 999,8 hPa 0,0 mm 0,0 km/h (0 Bft) W 273 ° 0 min 0,000 mm 1,2 UV-I 207 W/m² 11,0 °C 13,8 °C 0,0 km/h (0 Bft)
02.11.2019 11:20 13,8 °C 84 % 999,8 hPa 0,0 mm 0,0 km/h (0 Bft) W 273 ° 0 min 0,000 mm 1,2 UV-I 202 W/m² 11,1 °C 13,8 °C 0,0 km/h (0 Bft)
02.11.2019 11:21 13,9 °C 83 % 999,9 hPa 0,0 mm 0,0 km/h (0 Bft) W 273 ° 0 min 0,000 mm 1,2 UV-I 195 W/m² 11,1 °C 13,9 °C 0,0 km/h (0 Bft)
02.11.2019 11:22 13,9 °C 82 % 999,9 hPa 0,0 mm 0,0 km/h (0 Bft) W 273 ° 0 min 0,000 mm 1,1 UV-I 185 W/m² 10,9 °C 13,9 °C 0,0 km/h (0 Bft)
02.11.2019 11:23 13,9 °C 82 % 999,9 hPa 0,0 mm 0,0 km/h (0 Bft) W 273 ° 0 min 0,000 mm 1,0 UV-I 160 W/m² 10,9 °C 13,9 °C 0,0 km/h (0 Bft)
02.11.2019 11:24 13,9 °C 81 % 999,9 hPa 0,0 mm 0,0 km/h (0 Bft) W 273 ° 0 min 0,000 mm 0,9 UV-I 151 W/m² 10,7 °C 13,9 °C 0,0 km/h (0 Bft)
02.11.2019 11:25 14,0 °C 81 % 999,9 hPa 0,0 mm 0,0 km/h (0 Bft) W 273 ° 0 min 0,000 mm 0,9 UV-I 141 W/m² 10,8 °C 14,0 °C 0,0 km/h (0 Bft)
02.11.2019 11:26 13,9 °C 81 % 999,8 hPa 0,0 mm 0,1 km/h (0 Bft) W 273 ° 0 min 0,000 mm 0,8 UV-I 141 W/m² 10,7 °C 13,9 °C 1,6 km/h (1 Bft)
02.11.2019 11:27 13,9 °C 83 % 999,8 hPa 0,0 mm 1,8 km/h (1 Bft) W 273 ° 0 min 0,000 mm 0,8 UV-I 121 W/m² 11,1 °C 13,9 °C 3,2 km/h (1 Bft)
02.11.2019 11:28 13,8 °C 83 % 999,8 hPa 0,0 mm 0,0 km/h (0 Bft) W 273 ° 0 min 0,000 mm 0,8 UV-I 114 W/m² 11,0 °C 13,8 °C 0,0 km/h (0 Bft)
02.11.2019 11:29 13,8 °C 86 % 999,7 hPa 0,0 mm 0,0 km/h (0 Bft) W 273 ° 0 min 0,000 mm 0,7 UV-I 104 W/m² 11,5 °C 13,8 °C 0,0 km/h (0 Bft)
02.11.2019 11:30 13,7 °C 86 % 999,7 hPa 0,0 mm 0,9 km/h (0 Bft) W 273 ° 0 min 0,000 mm 0,7 UV-I 100 W/m² 11,4 °C 13,7 °C 3,2 km/h (1 Bft)
02.11.2019 11:31 13,6 °C 87 % 999,7 hPa 0,0 mm 0,2 km/h (0 Bft) W 273 ° 0 min 0,000 mm 0,7 UV-I 98 W/m² 11,5 °C 13,6 °C 1,6 km/h (1 Bft)
02.11.2019 11:32 13,6 °C 87 % 999,7 hPa 0,0 mm 1,3 km/h (1 Bft) W 273 ° 0 min 0,000 mm 0,7 UV-I 97 W/m² 11,5 °C 13,6 °C 3,2 km/h (1 Bft)
02.11.2019 11:33 13,6 °C 84 % 999,7 hPa 0,0 mm 2,3 km/h (1 Bft) W 273 ° 0 min 0,000 mm 0,7 UV-I 97 W/m² 10,9 °C 13,6 °C 4,8 km/h (1 Bft)
02.11.2019 11:34 13,6 °C 84 % 999,7 hPa 0,0 mm 1,2 km/h (1 Bft) W 273 ° 0 min 0,000 mm 0,7 UV-I 98 W/m² 10,9 °C 13,6 °C 1,6 km/h (1 Bft)
02.11.2019 11:35 13,7 °C 83 % 999,7 hPa 0,0 mm 0,4 km/h (0 Bft) W 273 ° 0 min 0,000 mm 0,7 UV-I 100 W/m² 10,9 °C 13,7 °C 1,6 km/h (1 Bft)
02.11.2019 11:36 13,7 °C 82 % 999,6 hPa 0,0 mm 1,4 km/h (1 Bft) W 273 ° 0 min 0,000 mm 0,7 UV-I 100 W/m² 10,7 °C 13,7 °C 4,8 km/h (1 Bft)
02.11.2019 11:37 13,7 °C 82 % 999,6 hPa 0,0 mm 0,1 km/h (0 Bft) W 273 ° 0 min 0,000 mm 0,7 UV-I 107 W/m² 10,7 °C 13,7 °C 1,6 km/h (1 Bft)
02.11.2019 11:38 13,7 °C 83 % 999,7 hPa 0,0 mm 0,3 km/h (0 Bft) W 273 ° 0 min 0,000 mm 0,7 UV-I 111 W/m² 10,9 °C 13,7 °C 1,6 km/h (1 Bft)
02.11.2019 11:39 13,7 °C 85 % 999,6 hPa 0,0 mm 1,2 km/h (1 Bft) W 273 ° 0 min 0,000 mm 0,8 UV-I 116 W/m² 11,2 °C 13,7 °C 3,2 km/h (1 Bft)
02.11.2019 11:40 13,7 °C 86 % 999,5 hPa 0,0 mm 0,0 km/h (0 Bft) W 273 ° 0 min 0,000 mm 0,8 UV-I 118 W/m² 11,4 °C 13,7 °C 0,0 km/h (0 Bft)
02.11.2019 11:41 13,5 °C 87 % 999,5 hPa 0,0 mm 1,4 km/h (1 Bft) W 273 ° 0 min 0,000 mm 0,8 UV-I 120 W/m² 11,4 °C 13,5 °C 3,2 km/h (1 Bft)
02.11.2019 11:42 13,4 °C 87 % 999,4 hPa 0,0 mm 0,1 km/h (0 Bft) W 273 ° 0 min 0,000 mm 0,8 UV-I 121 W/m² 11,3 °C 13,4 °C 1,6 km/h (1 Bft)
02.11.2019 11:43 13,3 °C 88 % 999,5 hPa 0,0 mm 4,4 km/h (1 Bft) S-SW 197 ° 0 min 0,000 mm 0,8 UV-I 121 W/m² 11,4 °C 13,3 °C 9,7 km/h (2 Bft)
02.11.2019 11:44 13,3 °C 85 % 999,5 hPa 0,0 mm 4,1 km/h (1 Bft) W 259 ° 0 min 0,000 mm 0,8 UV-I 121 W/m² 10,8 °C 13,3 °C 6,4 km/h (2 Bft)
02.11.2019 11:45 13,4 °C 84 % 999,5 hPa 0,0 mm 3,2 km/h (1 Bft) W-SW 257 ° 0 min 0,000 mm 0,9 UV-I 127 W/m² 10,8 °C 13,4 °C 4,8 km/h (1 Bft)
02.11.2019 11:46 13,6 °C 83 % 999,5 hPa 0,0 mm 1,4 km/h (1 Bft) W-SW 238 ° 0 min 0,000 mm 0,9 UV-I 128 W/m² 10,8 °C 13,6 °C 4,8 km/h (1 Bft)
02.11.2019 11:47 13,7 °C 83 % 999,4 hPa 0,0 mm 1,4 km/h (1 Bft) W-SW 238 ° 0 min 0,000 mm 0,9 UV-I 132 W/m² 10,9 °C 13,7 °C 3,2 km/h (1 Bft)
02.11.2019 11:48 13,7 °C 84 % 999,4 hPa 0,0 mm 0,2 km/h (0 Bft) W-SW 238 ° 0 min 0,000 mm 0,9 UV-I 135 W/m² 11,0 °C 13,7 °C 1,6 km/h (1 Bft)
02.11.2019 11:49 13,7 °C 84 % 999,4 hPa 0,0 mm 0,0 km/h (0 Bft) SW 236 ° 0 min 0,000 mm 0,9 UV-I 137 W/m² 11,0 °C 13,7 °C 0,0 km/h (0 Bft)
02.11.2019 11:50 13,8 °C 84 % 999,4 hPa 0,0 mm 3,3 km/h (1 Bft) SW 221 ° 0 min 0,000 mm 0,9 UV-I 139 W/m² 11,1 °C 13,8 °C 6,4 km/h (2 Bft)
02.11.2019 11:51 13,8 °C 84 % 999,4 hPa 0,0 mm 2,9 km/h (1 Bft) SW 221 ° 0 min 0,000 mm 0,9 UV-I 139 W/m² 11,1 °C 13,8 °C 4,8 km/h (1 Bft)
02.11.2019 11:52 13,8 °C 86 % 999,5 hPa 0,0 mm 0,0 km/h (0 Bft) SW 221 ° 0 min 0,000 mm 0,9 UV-I 137 W/m² 11,5 °C 13,8 °C 0,0 km/h (0 Bft)
02.11.2019 11:53 13,8 °C 84 % 999,5 hPa 0,0 mm 2,3 km/h (1 Bft) SW 221 ° 0 min 0,000 mm 0,9 UV-I 125 W/m² 11,1 °C 13,8 °C 3,2 km/h (1 Bft)
02.11.2019 11:54 13,8 °C 84 % 999,5 hPa 0,0 mm 1,8 km/h (1 Bft) SW 221 ° 0 min 0,000 mm 0,8 UV-I 120 W/m² 11,1 °C 13,8 °C 3,2 km/h (1 Bft)
02.11.2019 11:55 13,8 °C 84 % 999,5 hPa 0,0 mm 0,1 km/h (0 Bft) SW 221 ° 0 min 0,000 mm 0,8 UV-I 114 W/m² 11,1 °C 13,8 °C 1,6 km/h (1 Bft)
02.11.2019 11:56 13,8 °C 83 % 999,4 hPa 0,0 mm 0,0 km/h (0 Bft) SW 221 ° 0 min 0,000 mm 0,7 UV-I 111 W/m² 11,0 °C 13,8 °C 0,0 km/h (0 Bft)
02.11.2019 11:57 13,8 °C 85 % 999,5 hPa 0,0 mm 0,0 km/h (0 Bft) SW 221 ° 0 min 0,000 mm 0,7 UV-I 107 W/m² 11,3 °C 13,8 °C 0,0 km/h (0 Bft)
02.11.2019 11:58 13,8 °C 85 % 999,4 hPa 0,0 mm 0,0 km/h (0 Bft) SW 221 ° 0 min 0,000 mm 0,7 UV-I 104 W/m² 11,3 °C 13,8 °C 0,0 km/h (0 Bft)
02.11.2019 11:59 13,8 °C 87 % 999,4 hPa 0,0 mm 0,0 km/h (0 Bft) SW 221 ° 0 min 0,000 mm 0,7 UV-I 102 W/m² 11,7 °C 13,8 °C 0,0 km/h (0 Bft)
02.11.2019 12:00 13,7 °C 87 % 999,4 hPa 0,0 mm 0,9 km/h (0 Bft) SW 221 ° 0 min 0,000 mm 0,7 UV-I 107 W/m² 11,6 °C 13,7 °C 3,2 km/h (1 Bft)
02.11.2019 12:01 13,5 °C 86 % 999,3 hPa 0,0 mm 1,5 km/h (1 Bft) SW 221 ° 0 min 0,076 mm 0,8 UV-I 116 W/m² 11,2 °C 13,5 °C 3,2 km/h (1 Bft)
02.11.2019 12:02 13,4 °C 87 % 999,3 hPa 0,0 mm 2,1 km/h (1 Bft) SW 220 ° 0 min 0,000 mm 0,9 UV-I 116 W/m² 11,3 °C 13,4 °C 4,8 km/h (1 Bft)
02.11.2019 12:03 13,3 °C 87 % 999,3 hPa 0,0 mm 2,8 km/h (1 Bft) SW 220 ° 0 min 0,000 mm 0,9 UV-I 134 W/m² 11,2 °C 13,3 °C 4,8 km/h (1 Bft)
02.11.2019 12:04 13,2 °C 88 % 999,2 hPa 0,0 mm 0,9 km/h (0 Bft) SW 220 ° 0 min 0,000 mm 0,9 UV-I 139 W/m² 11,3 °C 13,2 °C 3,2 km/h (1 Bft)
02.11.2019 12:05 13,2 °C 89 % 999,1 hPa 0,0 mm 0,3 km/h (0 Bft) SW 221 ° 0 min 0,000 mm 0,9 UV-I 135 W/m² 11,4 °C 13,2 °C 1,6 km/h (1 Bft)
02.11.2019 12:06 13,3 °C 90 % 999,2 hPa 0,0 mm 0,0 km/h (0 Bft) SW 221 ° 0 min 0,000 mm 0,9 UV-I 134 W/m² 11,7 °C 13,3 °C 0,0 km/h (0 Bft)
02.11.2019 12:07 13,3 °C 90 % 999,2 hPa 0,0 mm 0,0 km/h (0 Bft) SW 221 ° 0 min 0,000 mm 0,9 UV-I 130 W/m² 11,7 °C 13,3 °C 0,0 km/h (0 Bft)
02.11.2019 12:08 13,3 °C 90 % 999,3 hPa 0,0 mm 0,8 km/h (0 Bft) SW 230 ° 0 min 0,000 mm 0,9 UV-I 128 W/m² 11,7 °C 13,3 °C 3,2 km/h (1 Bft)
02.11.2019 12:09 13,4 °C 89 % 999,3 hPa 0,0 mm 4,0 km/h (1 Bft) W-SW 238 ° 0 min 0,000 mm 0,9 UV-I 127 W/m² 11,6 °C 13,4 °C 4,8 km/h (1 Bft)
02.11.2019 12:10 13,5 °C 89 % 999,4 hPa 0,0 mm 3,2 km/h (1 Bft) W-SW 249 ° 0 min 0,000 mm 0,9 UV-I 135 W/m² 11,7 °C 13,5 °C 4,8 km/h (1 Bft)
02.11.2019 12:11 13,6 °C 88 % 999,4 hPa 0,0 mm 2,1 km/h (1 Bft) W-SW 250 ° 0 min 0,000 mm 1,0 UV-I 148 W/m² 11,6 °C 13,6 °C 3,2 km/h (1 Bft)
02.11.2019 12:12 13,7 °C 87 % 999,4 hPa 0,0 mm 2,3 km/h (1 Bft) W-SW 249 ° 0 min 0,000 mm 1,1 UV-I 156 W/m² 11,6 °C 13,7 °C 3,2 km/h (1 Bft)
02.11.2019 12:13 13,8 °C 87 % 999,3 hPa 0,0 mm 3,0 km/h (1 Bft) W-SW 257 ° 0 min 0,000 mm 1,1 UV-I 156 W/m² 11,7 °C 13,8 °C 6,4 km/h (2 Bft)
02.11.2019 12:14 13,8 °C 87 % 999,4 hPa 0,0 mm 4,4 km/h (1 Bft) W 264 ° 0 min 0,000 mm 1,0 UV-I 151 W/m² 11,7 °C 13,8 °C 6,4 km/h (2 Bft)
02.11.2019 12:15 13,9 °C 87 % 999,4 hPa 0,0 mm 3,6 km/h (1 Bft) NW 306 ° 0 min 0,000 mm 1,0 UV-I 146 W/m² 11,8 °C 13,9 °C 6,4 km/h (2 Bft)
02.11.2019 12:16 13,9 °C 87 % 999,4 hPa 0,0 mm 3,3 km/h (1 Bft) NW 306 ° 0 min 0,000 mm 1,0 UV-I 151 W/m² 11,8 °C 13,9 °C 4,8 km/h (1 Bft)
02.11.2019 12:17 13,9 °C 87 % 999,4 hPa 0,0 mm 4,7 km/h (1 Bft) W-NW 302 ° 0 min 0,000 mm 1,0 UV-I 155 W/m² 11,8 °C 13,9 °C 9,7 km/h (2 Bft)
02.11.2019 12:18 13,9 °C 87 % 999,5 hPa 0,0 mm 4,7 km/h (1 Bft) W-NW 293 ° 0 min 0,000 mm 1,0 UV-I 163 W/m² 11,8 °C 13,9 °C 6,4 km/h (2 Bft)
02.11.2019 12:19 13,9 °C 88 % 999,4 hPa 0,0 mm 4,4 km/h (1 Bft) W-NW 286 ° 0 min 0,000 mm 1,1 UV-I 172 W/m² 11,9 °C 13,9 °C 6,4 km/h (2 Bft)
02.11.2019 12:20 14,0 °C 88 % 999,5 hPa 0,0 mm 2,5 km/h (1 Bft) W-NW 286 ° 0 min 0,000 mm 1,1 UV-I 172 W/m² 12,0 °C 14,0 °C 4,8 km/h (1 Bft)
02.11.2019 12:21 14,0 °C 88 % 999,4 hPa 0,0 mm 3,6 km/h (1 Bft) W-NW 286 ° 0 min 0,000 mm 1,1 UV-I 172 W/m² 12,0 °C 14,0 °C 4,8 km/h (1 Bft)
02.11.2019 12:22 14,0 °C 88 % 999,4 hPa 0,0 mm 3,0 km/h (1 Bft) W-NW 286 ° 0 min 0,000 mm 1,1 UV-I 165 W/m² 12,0 °C 14,0 °C 4,8 km/h (1 Bft)
02.11.2019 12:23 14,0 °C 88 % 999,4 hPa 0,0 mm 4,1 km/h (1 Bft) W-NW 282 ° 0 min 0,000 mm 1,1 UV-I 162 W/m² 12,0 °C 14,0 °C 6,4 km/h (2 Bft)
02.11.2019 12:24 14,0 °C 87 % 999,3 hPa 0,0 mm 3,2 km/h (1 Bft) W-NW 282 ° 0 min 0,000 mm 1,1 UV-I 160 W/m² 11,9 °C 14,0 °C 4,8 km/h (1 Bft)
02.11.2019 12:25 13,9 °C 85 % 999,3 hPa 0,0 mm 2,9 km/h (1 Bft) W-NW 282 ° 0 min 0,000 mm 1,1 UV-I 156 W/m² 11,4 °C 13,9 °C 4,8 km/h (1 Bft)
02.11.2019 12:26 13,9 °C 86 % 999,4 hPa 0,0 mm 4,0 km/h (1 Bft) W-SW 254 ° 0 min 0,000 mm 1,0 UV-I 156 W/m² 11,6 °C 13,9 °C 4,8 km/h (1 Bft)
02.11.2019 12:27 14,0 °C 86 % 999,3 hPa 0,0 mm 3,9 km/h (1 Bft) W-SW 254 ° 0 min 0,000 mm 1,0 UV-I 148 W/m² 11,7 °C 14,0 °C 4,8 km/h (1 Bft)
02.11.2019 12:28 14,0 °C 85 % 999,3 hPa 0,0 mm 3,4 km/h (1 Bft) W-SW 254 ° 0 min 0,000 mm 1,0 UV-I 146 W/m² 11,5 °C 14,0 °C 4,8 km/h (1 Bft)
02.11.2019 12:29 14,1 °C 85 % 999,4 hPa 0,0 mm 1,6 km/h (1 Bft) W-SW 254 ° 0 min 0,000 mm 1,0 UV-I 151 W/m² 11,6 °C 14,1 °C 3,2 km/h (1 Bft)
02.11.2019 12:30 14,1 °C 84 % 999,3 hPa 0,0 mm 2,4 km/h (1 Bft) W-SW 254 ° 0 min 0,000 mm 1,1 UV-I 153 W/m² 11,4 °C 14,1 °C 3,2 km/h (1 Bft)
02.11.2019 12:31 14,1 °C 86 % 999,2 hPa 0,0 mm 3,4 km/h (1 Bft) S-SO 153 ° 0 min 0,000 mm 1,1 UV-I 155 W/m² 11,8 °C 14,1 °C 6,4 km/h (2 Bft)
02.11.2019 12:32 14,1 °C 87 % 999,2 hPa 0,0 mm 4,4 km/h (1 Bft) S-SO 147 ° 0 min 0,000 mm 1,2 UV-I 156 W/m² 12,0 °C 14,1 °C 6,4 km/h (2 Bft)
02.11.2019 12:33 13,9 °C 87 % 999,1 hPa 0,0 mm 4,8 km/h (1 Bft) SO 126 ° 0 min 0,000 mm 1,2 UV-I 162 W/m² 11,8 °C 13,9 °C 6,4 km/h (2 Bft)
02.11.2019 12:34 13,8 °C 88 % 999,1 hPa 0,0 mm 2,7 km/h (1 Bft) SO 126 ° 0 min 0,000 mm 1,3 UV-I 186 W/m² 11,8 °C 13,8 °C 4,8 km/h (1 Bft)
02.11.2019 12:35 13,8 °C 87 % 999,0 hPa 0,0 mm 0,5 km/h (0 Bft) SO 126 ° 0 min 0,000 mm 1,4 UV-I 207 W/m² 11,7 °C 13,8 °C 3,2 km/h (1 Bft)
02.11.2019 12:36 13,8 °C 87 % 999,1 hPa 0,0 mm 0,7 km/h (0 Bft) SO 126 ° 0 min 0,000 mm 1,5 UV-I 232 W/m² 11,7 °C 13,8 °C 3,2 km/h (1 Bft)
02.11.2019 12:37 13,8 °C 87 % 999,0 hPa 0,0 mm 0,7 km/h (0 Bft) SO 126 ° 0 min 0,000 mm 1,6 UV-I 246 W/m² 11,7 °C 13,8 °C 3,2 km/h (1 Bft)
02.11.2019 12:38 14,0 °C 86 % 999,0 hPa 0,0 mm 0,2 km/h (0 Bft) SO 126 ° 0 min 0,000 mm 1,6 UV-I 246 W/m² 11,7 °C 14,0 °C 1,6 km/h (1 Bft)
02.11.2019 12:39 14,1 °C 86 % 999,0 hPa 0,0 mm 0,0 km/h (0 Bft) SO 126 ° 0 min 0,000 mm 1,6 UV-I 178 W/m² 11,8 °C 14,1 °C 0,0 km/h (0 Bft)
02.11.2019 12:40 14,1 °C 87 % 999,0 hPa 0,0 mm 0,0 km/h (0 Bft) SO 126 ° 0 min 0,000 mm 1,5 UV-I 162 W/m² 12,0 °C 14,1 °C 0,0 km/h (0 Bft)
02.11.2019 12:41 14,1 °C 85 % 998,9 hPa 0,0 mm 2,1 km/h (1 Bft) SO 126 ° 0 min 0,000 mm 1,5 UV-I 162 W/m² 11,6 °C 14,1 °C 4,8 km/h (1 Bft)
02.11.2019 12:42 14,1 °C 86 % 998,9 hPa 0,0 mm 2,5 km/h (1 Bft) SO 126 ° 0 min 0,000 mm 1,5 UV-I 174 W/m² 11,8 °C 14,1 °C 4,8 km/h (1 Bft)
02.11.2019 12:43 14,1 °C 86 % 998,9 hPa 0,0 mm 0,2 km/h (0 Bft) SO 126 ° 0 min 0,000 mm 1,5 UV-I 183 W/m² 11,8 °C 14,1 °C 1,6 km/h (1 Bft)
02.11.2019 12:44 14,1 °C 86 % 998,9 hPa 0,0 mm 0,4 km/h (0 Bft) SO 126 ° 0 min 0,000 mm 1,5 UV-I 188 W/m² 11,8 °C 14,1 °C 1,6 km/h (1 Bft)
02.11.2019 12:45 14,1 °C 87 % 998,9 hPa 0,2 mm 0,5 km/h (0 Bft) SO 126 ° 0 min 0,000 mm 1,4 UV-I 183 W/m² 12,0 °C 14,1 °C 1,6 km/h (1 Bft)
02.11.2019 12:46 14,2 °C 87 % 998,9 hPa 0,0 mm 0,0 km/h (0 Bft) SO 126 ° 0 min 0,000 mm 1,3 UV-I 174 W/m² 12,1 °C 14,2 °C 0,0 km/h (0 Bft)
02.11.2019 12:47 14,1 °C 88 % 998,9 hPa 0,0 mm 0,0 km/h (0 Bft) SO 126 ° 0 min 0,000 mm 1,2 UV-I 169 W/m² 12,1 °C 14,1 °C 0,0 km/h (0 Bft)
02.11.2019 12:48 14,2 °C 86 % 999,0 hPa 0,0 mm 0,0 km/h (0 Bft) SO 126 ° 0 min 0,000 mm 1,2 UV-I 171 W/m² 11,9 °C 14,2 °C 0,0 km/h (0 Bft)
02.11.2019 12:49 14,3 °C 87 % 998,9 hPa 0,0 mm 0,0 km/h (0 Bft) SO 126 ° 0 min 0,000 mm 1,2 UV-I 174 W/m² 12,2 °C 14,3 °C 0,0 km/h (0 Bft)
02.11.2019 12:50 14,3 °C 86 % 998,9 hPa 0,0 mm 0,0 km/h (0 Bft) SO 126 ° 0 min 0,000 mm 1,1 UV-I 172 W/m² 12,0 °C 14,3 °C 0,0 km/h (0 Bft)
02.11.2019 12:51 14,3 °C 85 % 998,9 hPa 0,0 mm 0,0 km/h (0 Bft) SO 126 ° 0 min 0,000 mm 1,2 UV-I 179 W/m² 11,8 °C 14,3 °C 0,0 km/h (0 Bft)
02.11.2019 12:52 14,4 °C 83 % 999,0 hPa 0,0 mm 0,0 km/h (0 Bft) SO 126 ° 0 min 0,000 mm 1,2 UV-I 178 W/m² 11,5 °C 14,4 °C 0,0 km/h (0 Bft)
02.11.2019 12:53 14,4 °C 83 % 998,9 hPa 0,0 mm 0,0 km/h (0 Bft) SO 126 ° 0 min 0,000 mm 1,2 UV-I 165 W/m² 11,5 °C 14,4 °C 0,0 km/h (0 Bft)
02.11.2019 12:54 14,5 °C 84 % 999,0 hPa 0,0 mm 0,0 km/h (0 Bft) SO 126 ° 0 min 0,000 mm 1,1 UV-I 149 W/m² 11,8 °C 14,5 °C 0,0 km/h (0 Bft)
02.11.2019 12:55 14,5 °C 84 % 998,9 hPa 0,0 mm 0,0 km/h (0 Bft) SO 126 ° 0 min 0,000 mm 1,0 UV-I 134 W/m² 11,8 °C 14,5 °C 0,0 km/h (0 Bft)
02.11.2019 12:56 14,4 °C 86 % 998,9 hPa 0,0 mm 0,3 km/h (0 Bft) SO 126 ° 0 min 0,000 mm 0,9 UV-I 134 W/m² 12,1 °C 14,4 °C 1,6 km/h (1 Bft)
02.11.2019 12:57 14,4 °C 85 % 998,9 hPa 0,0 mm 0,0 km/h (0 Bft) SO 126 ° 0 min 0,000 mm 1,0 UV-I 139 W/m² 11,9 °C 14,4 °C 0,0 km/h (0 Bft)
02.11.2019 12:58 14,3 °C 86 % 998,8 hPa 0,0 mm 0,0 km/h (0 Bft) NO 39 ° 0 min 0,000 mm 1,2 UV-I 158 W/m² 12,0 °C 14,3 °C 0,0 km/h (0 Bft)
02.11.2019 12:59 14,3 °C 85 % 998,8 hPa 0,0 mm 1,1 km/h (1 Bft) NO 39 ° 0 min 0,000 mm 1,2 UV-I 178 W/m² 11,8 °C 14,3 °C 3,2 km/h (1 Bft)
02.11.2019 13:00 14,2 °C 86 % 998,7 hPa 0,0 mm 2,7 km/h (1 Bft) NO 39 ° 0 min 0,000 mm 1,4 UV-I 186 W/m² 11,9 °C 14,2 °C 4,8 km/h (1 Bft)
02.11.2019 13:01 14,1 °C 86 % 998,7 hPa 0,0 mm 1,9 km/h (1 Bft) NO 39 ° 0 min 0,076 mm 1,4 UV-I 188 W/m² 11,8 °C 14,1 °C 3,2 km/h (1 Bft)
02.11.2019 13:02 14,1 °C 86 % 998,7 hPa 0,0 mm 0,5 km/h (0 Bft) NO 39 ° 0 min 0,000 mm 1,4 UV-I 178 W/m² 11,8 °C 14,1 °C 1,6 km/h (1 Bft)
02.11.2019 13:03 14,1 °C 86 % 998,6 hPa 0,0 mm 0,0 km/h (0 Bft) NO 39 ° 0 min 0,000 mm 1,4 UV-I 160 W/m² 11,8 °C 14,1 °C 0,0 km/h (0 Bft)
02.11.2019 13:04 14,1 °C 87 % 998,6 hPa 0,0 mm 0,6 km/h (0 Bft) NO 39 ° 0 min 0,000 mm 1,4 UV-I 162 W/m² 12,0 °C 14,1 °C 1,6 km/h (1 Bft)
02.11.2019 13:05 14,0 °C 87 % 998,6 hPa 0,0 mm 0,0 km/h (0 Bft) NO 39 ° 0 min 0,000 mm 1,4 UV-I 176 W/m² 11,9 °C 14,0 °C 0,0 km/h (0 Bft)
02.11.2019 13:06 13,9 °C 86 % 998,5 hPa 0,0 mm 1,8 km/h (1 Bft) O 92 ° 0 min 0,000 mm 1,5 UV-I 190 W/m² 11,6 °C 13,9 °C 3,2 km/h (1 Bft)
02.11.2019 13:07 14,0 °C 86 % 998,6 hPa 0,0 mm 0,3 km/h (0 Bft) O 92 ° 0 min 0,000 mm 1,5 UV-I 188 W/m² 11,7 °C 14,0 °C 1,6 km/h (1 Bft)
02.11.2019 13:08 13,9 °C 86 % 998,5 hPa 0,0 mm 0,0 km/h (0 Bft) O 92 ° 0 min 0,000 mm 1,5 UV-I 185 W/m² 11,6 °C 13,9 °C 0,0 km/h (0 Bft)
02.11.2019 13:09 13,9 °C 88 % 998,4 hPa 0,0 mm 2,3 km/h (1 Bft) O 82 ° 0 min 0,000 mm 1,5 UV-I 139 W/m² 11,9 °C 13,9 °C 4,8 km/h (1 Bft)
02.11.2019 13:10 13,8 °C 88 % 998,5 hPa 0,0 mm 2,5 km/h (1 Bft) O 84 ° 0 min 0,000 mm 1,4 UV-I 134 W/m² 11,8 °C 13,8 °C 4,8 km/h (1 Bft)
02.11.2019 13:11 13,8 °C 87 % 998,5 hPa 0,0 mm 0,0 km/h (0 Bft) O 84 ° 0 min 0,000 mm 1,3 UV-I 125 W/m² 11,7 °C 13,8 °C 0,0 km/h (0 Bft)
02.11.2019 13:12 13,8 °C 88 % 998,4 hPa 0,0 mm 1,4 km/h (1 Bft) W-SW 244 ° 0 min 0,000 mm 1,3 UV-I 128 W/m² 11,8 °C 13,8 °C 3,2 km/h (1 Bft)
02.11.2019 13:13 13,8 °C 87 % 998,4 hPa 0,0 mm 2,0 km/h (1 Bft) S 184 ° 0 min 0,000 mm 1,3 UV-I 121 W/m² 11,7 °C 13,8 °C 4,8 km/h (1 Bft)
02.11.2019 13:14 13,7 °C 87 % 998,4 hPa 0,0 mm 2,0 km/h (1 Bft) S 184 ° 0 min 0,000 mm 1,3 UV-I 121 W/m² 11,6 °C 13,7 °C 3,2 km/h (1 Bft)
02.11.2019 13:15 13,7 °C 87 % 998,3 hPa 0,0 mm 2,6 km/h (1 Bft) S 184 ° 0 min 0,000 mm 1,3 UV-I 209 W/m² 11,6 °C 13,7 °C 4,8 km/h (1 Bft)
02.11.2019 13:16 13,6 °C 88 % 998,3 hPa 0,0 mm 2,5 km/h (1 Bft) S 184 ° 0 min 0,000 mm 1,7 UV-I 209 W/m² 11,6 °C 13,6 °C 4,8 km/h (1 Bft)
02.11.2019 13:17 13,5 °C 88 % 998,2 hPa 0,0 mm 1,3 km/h (1 Bft) S 184 ° 0 min 0,000 mm 1,7 UV-I 366 W/m² 11,6 °C 13,5 °C 3,2 km/h (1 Bft)
02.11.2019 13:18 13,5 °C 88 % 998,3 hPa 0,0 mm 1,3 km/h (1 Bft) O 100 ° 0 min 0,000 mm 1,7 UV-I 294 W/m² 11,6 °C 13,5 °C 3,2 km/h (1 Bft)
02.11.2019 13:19 13,5 °C 88 % 998,2 hPa 0,0 mm 1,5 km/h (1 Bft) O 100 ° 0 min 0,000 mm 1,8 UV-I 345 W/m² 11,6 °C 13,5 °C 3,2 km/h (1 Bft)
02.11.2019 13:20 13,4 °C 88 % 998,2 hPa 0,0 mm 0,1 km/h (0 Bft) O 100 ° 0 min 0,000 mm 1,9 UV-I 424 W/m² 11,5 °C 13,4 °C 1,6 km/h (1 Bft)
02.11.2019 13:21 13,5 °C 89 % 998,2 hPa 0,0 mm 0,0 km/h (0 Bft) O 100 ° 0 min 0,000 mm 1,9 UV-I 422 W/m² 11,7 °C 13,5 °C 0,0 km/h (0 Bft)
02.11.2019 13:22 13,6 °C 88 % 998,3 hPa 0,0 mm 0,1 km/h (0 Bft) O 100 ° 0 min 0,000 mm 1,9 UV-I 420 W/m² 11,6 °C 13,6 °C 1,6 km/h (1 Bft)
02.11.2019 13:23 13,7 °C 87 % 998,2 hPa 0,0 mm 0,8 km/h (0 Bft) O 100 ° 0 min 0,000 mm 1,9 UV-I 418 W/m² 11,6 °C 13,7 °C 3,2 km/h (1 Bft)
02.11.2019 13:24 13,6 °C 87 % 998,3 hPa 0,0 mm 1,8 km/h (1 Bft) O 100 ° 0 min 0,000 mm 1,9 UV-I 417 W/m² 11,5 °C 13,6 °C 3,2 km/h (1 Bft)
02.11.2019 13:25 13,5 °C 87 % 998,2 hPa 0,0 mm 0,4 km/h (0 Bft) O 100 ° 0 min 0,000 mm 1,9 UV-I 415 W/m² 11,4 °C 13,5 °C 1,6 km/h (1 Bft)
02.11.2019 13:26 13,6 °C 87 % 998,2 hPa 0,0 mm 0,1 km/h (0 Bft) O 100 ° 0 min 0,000 mm 1,9 UV-I 411 W/m² 11,5 °C 13,6 °C 1,6 km/h (1 Bft)
02.11.2019 13:27 13,8 °C 86 % 998,1 hPa 0,0 mm 0,0 km/h (0 Bft) O 100 ° 0 min 0,000 mm 1,9 UV-I 411 W/m² 11,5 °C 13,8 °C 0,0 km/h (0 Bft)
02.11.2019 13:28 13,9 °C 85 % 998,2 hPa 0,0 mm 0,6 km/h (0 Bft) O 100 ° 0 min 0,000 mm 1,9 UV-I 410 W/m² 11,4 °C 13,9 °C 1,6 km/h (1 Bft)
02.11.2019 13:29 14,1 °C 85 % 998,1 hPa 0,0 mm 0,1 km/h (0 Bft) O 100 ° 0 min 0,000 mm 1,9 UV-I 408 W/m² 11,6 °C 14,1 °C 1,6 km/h (1 Bft)
02.11.2019 13:30 14,2 °C 85 % 998,2 hPa 0,0 mm 1,4 km/h (1 Bft) O 100 ° 0 min 0,000 mm 1,9 UV-I 406 W/m² 11,7 °C 14,2 °C 3,2 km/h (1 Bft)
02.11.2019 13:31 14,2 °C 85 % 998,2 hPa 0,0 mm 1,4 km/h (1 Bft) O 100 ° 0 min 0,000 mm 1,9 UV-I 408 W/m² 11,7 °C 14,2 °C 3,2 km/h (1 Bft)
02.11.2019 13:32 14,1 °C 84 % 998,2 hPa 0,0 mm 2,1 km/h (1 Bft) O 100 ° 0 min 0,000 mm 1,9 UV-I 418 W/m² 11,4 °C 14,1 °C 3,2 km/h (1 Bft)
02.11.2019 13:33 14,1 °C 85 % 998,2 hPa 0,0 mm 2,2 km/h (1 Bft) O 100 ° 0 min 0,000 mm 1,9 UV-I 406 W/m² 11,6 °C 14,1 °C 3,2 km/h (1 Bft)
02.11.2019 13:34 14,1 °C 84 % 998,1 hPa 0,0 mm 3,5 km/h (1 Bft) O 91 ° 0 min 0,000 mm 1,9 UV-I 404 W/m² 11,4 °C 14,1 °C 4,8 km/h (1 Bft)
02.11.2019 13:35 14,1 °C 84 % 998,1 hPa 0,0 mm 3,1 km/h (1 Bft) O 92 ° 0 min 0,000 mm 1,9 UV-I 408 W/m² 11,4 °C 14,1 °C 4,8 km/h (1 Bft)
02.11.2019 13:36 14,0 °C 82 % 998,1 hPa 0,0 mm 3,7 km/h (1 Bft) O 92 ° 0 min 0,000 mm 1,9 UV-I 415 W/m² 11,0 °C 14,0 °C 4,8 km/h (1 Bft)
02.11.2019 13:37 14,1 °C 80 % 998,1 hPa 0,0 mm 3,6 km/h (1 Bft) O-NO 78 ° 0 min 0,000 mm 1,9 UV-I 420 W/m² 10,7 °C 14,1 °C 4,8 km/h (1 Bft)
02.11.2019 13:38 14,3 °C 80 % 998,0 hPa 0,0 mm 2,9 km/h (1 Bft) O-NO 78 ° 0 min 0,000 mm 1,9 UV-I 438 W/m² 10,9 °C 14,3 °C 3,2 km/h (1 Bft)
02.11.2019 13:39 14,4 °C 79 % 998,0 hPa 0,0 mm 1,4 km/h (1 Bft) O-NO 78 ° 0 min 0,000 mm 1,6 UV-I 366 W/m² 10,8 °C 14,4 °C 3,2 km/h (1 Bft)
02.11.2019 13:40 14,4 °C 81 % 998,0 hPa 0,0 mm 1,3 km/h (1 Bft) O-NO 78 ° 0 min 0,000 mm 1,8 UV-I 422 W/m² 11,2 °C 14,4 °C 3,2 km/h (1 Bft)
02.11.2019 13:41 14,6 °C 80 % 998,0 hPa 0,0 mm 0,0 km/h (0 Bft) O-NO 78 ° 0 min 0,000 mm 1,5 UV-I 348 W/m² 11,2 °C 14,6 °C 0,0 km/h (0 Bft)
02.11.2019 13:42 14,6 °C 80 % 998,0 hPa 0,0 mm 0,0 km/h (0 Bft) O-NO 78 ° 0 min 0,000 mm 1,2 UV-I 348 W/m² 11,2 °C 14,6 °C 0,0 km/h (0 Bft)
02.11.2019 13:43 14,7 °C 75 % 998,0 hPa 0,0 mm 0,0 km/h (0 Bft) O-NO 78 ° 0 min 0,000 mm 1,3 UV-I 135 W/m² 10,3 °C 14,7 °C 0,0 km/h (0 Bft)
02.11.2019 13:44 14,8 °C 76 % 998,0 hPa 0,0 mm 0,1 km/h (0 Bft) O 82 ° 0 min 0,000 mm 1,3 UV-I 169 W/m² 10,6 °C 14,8 °C 1,6 km/h (1 Bft)
02.11.2019 13:45 14,8 °C 76 % 998,0 hPa 0,0 mm 3,7 km/h (1 Bft) O 85 ° 0 min 0,000 mm 1,4 UV-I 192 W/m² 10,6 °C 14,8 °C 4,8 km/h (1 Bft)
02.11.2019 13:46 14,7 °C 76 % 998,0 hPa 0,0 mm 2,8 km/h (1 Bft) O-SO 120 ° 0 min 0,000 mm 1,4 UV-I 202 W/m² 10,5 °C 14,7 °C 4,8 km/h (1 Bft)
02.11.2019 13:47 14,7 °C 77 % 998,0 hPa 0,0 mm 3,4 km/h (1 Bft) O-SO 120 ° 0 min 0,000 mm 1,6 UV-I 258 W/m² 10,7 °C 14,7 °C 4,8 km/h (1 Bft)
02.11.2019 13:48 14,7 °C 77 % 998,0 hPa 0,0 mm 2,4 km/h (1 Bft) O-SO 120 ° 0 min 0,000 mm 1,2 UV-I 162 W/m² 10,7 °C 14,7 °C 3,2 km/h (1 Bft)
02.11.2019 13:49 14,7 °C 75 % 998,0 hPa 0,0 mm 0,2 km/h (0 Bft) O-SO 120 ° 0 min 0,000 mm 1,2 UV-I 148 W/m² 10,3 °C 14,7 °C 1,6 km/h (1 Bft)
02.11.2019 13:50 14,8 °C 75 % 998,0 hPa 0,0 mm 0,0 km/h (0 Bft) O-SO 120 ° 0 min 0,000 mm 1,2 UV-I 183 W/m² 10,4 °C 14,8 °C 0,0 km/h (0 Bft)
02.11.2019 13:51 14,8 °C 78 % 998,0 hPa 0,0 mm 0,0 km/h (0 Bft) O-SO 120 ° 0 min 0,000 mm 1,2 UV-I 178 W/m² 11,0 °C 14,8 °C 0,0 km/h (0 Bft)
02.11.2019 13:52 14,8 °C 76 % 998,1 hPa 0,0 mm 0,0 km/h (0 Bft) O-SO 120 ° 0 min 0,000 mm 1,2 UV-I 172 W/m² 10,6 °C 14,8 °C 0,0 km/h (0 Bft)
02.11.2019 13:53 14,9 °C 79 % 998,1 hPa 0,0 mm 0,0 km/h (0 Bft) O-SO 120 ° 0 min 0,000 mm 1,2 UV-I 163 W/m² 11,3 °C 14,9 °C 0,0 km/h (0 Bft)
02.11.2019 13:54 14,9 °C 78 % 998,0 hPa 0,0 mm 0,0 km/h (0 Bft) O-SO 120 ° 0 min 0,000 mm 1,1 UV-I 156 W/m² 11,1 °C 14,9 °C 0,0 km/h (0 Bft)
02.11.2019 13:55 14,8 °C 77 % 998,0 hPa 0,0 mm 0,0 km/h (0 Bft) O-SO 120 ° 0 min 0,000 mm 1,1 UV-I 148 W/m² 10,8 °C 14,8 °C 0,0 km/h (0 Bft)
02.11.2019 13:56 14,8 °C 76 % 998,0 hPa 0,0 mm 0,0 km/h (0 Bft) O-SO 120 ° 0 min 0,000 mm 1,1 UV-I 139 W/m² 10,6 °C 14,8 °C 0,0 km/h (0 Bft)
02.11.2019 13:57 14,8 °C 76 % 998,0 hPa 0,0 mm 0,0 km/h (0 Bft) O-SO 120 ° 0 min 0,000 mm 1,1 UV-I 130 W/m² 10,6 °C 14,8 °C 0,0 km/h (0 Bft)
02.11.2019 13:58 14,8 °C 77 % 998,0 hPa 0,0 mm 0,0 km/h (0 Bft) O-SO 120 ° 0 min 0,000 mm 1,0 UV-I 123 W/m² 10,8 °C 14,8 °C 0,0 km/h (0 Bft)
02.11.2019 13:59 14,8 °C 77 % 998,0 hPa 0,0 mm 0,0 km/h (0 Bft) O-SO 120 ° 0 min 0,000 mm 1,0 UV-I 118 W/m² 10,8 °C 14,8 °C 0,0 km/h (0 Bft)
02.11.2019 14:00 14,8 °C 77 % 998,1 hPa 0,0 mm 0,0 km/h (0 Bft) O-SO 120 ° 0 min 0,000 mm 1,0 UV-I 118 W/m² 10,8 °C 14,8 °C 0,0 km/h (0 Bft)
02.11.2019 14:01 14,8 °C 79 % 998,1 hPa 0,0 mm 0,0 km/h (0 Bft) O-SO 120 ° 0 min 0,127 mm 1,0 UV-I 137 W/m² 11,2 °C 14,8 °C 0,0 km/h (0 Bft)
02.11.2019 14:02 14,8 °C 80 % 998,1 hPa 0,0 mm 1,0 km/h (0 Bft) N-NW 342 ° 0 min 0,000 mm 1,0 UV-I 141 W/m² 11,4 °C 14,8 °C 3,2 km/h (1 Bft)
02.11.2019 14:03 14,8 °C 80 % 998,1 hPa 0,0 mm 0,0 km/h (0 Bft) N-NW 342 ° 0 min 0,000 mm 1,0 UV-I 144 W/m² 11,4 °C 14,8 °C 0,0 km/h (0 Bft)
02.11.2019 14:04 14,8 °C 79 % 998,1 hPa 0,0 mm 0,0 km/h (0 Bft) N-NW 342 ° 0 min 0,000 mm 1,0 UV-I 142 W/m² 11,2 °C 14,8 °C 0,0 km/h (0 Bft)
02.11.2019 14:05 14,8 °C 76 % 998,1 hPa 0,0 mm 0,0 km/h (0 Bft) N-NW 342 ° 0 min 0,000 mm 0,9 UV-I 135 W/m² 10,6 °C 14,8 °C 0,0 km/h (0 Bft)
02.11.2019 14:06 14,8 °C 76 % 998,1 hPa 0,0 mm 0,0 km/h (0 Bft) N-NW 342 ° 0 min 0,000 mm 0,9 UV-I 135 W/m² 10,6 °C 14,8 °C 0,0 km/h (0 Bft)
02.11.2019 14:07 14,8 °C 76 % 998,1 hPa 0,0 mm 0,0 km/h (0 Bft) N-NW 342 ° 0 min 0,000 mm 0,9 UV-I 132 W/m² 10,6 °C 14,8 °C 0,0 km/h (0 Bft)
02.11.2019 14:08 14,8 °C 76 % 998,1 hPa 0,0 mm 0,0 km/h (0 Bft) N-NW 342 ° 0 min 0,000 mm 0,9 UV-I 130 W/m² 10,6 °C 14,8 °C 0,0 km/h (0 Bft)
02.11.2019 14:09 14,8 °C 75 % 998,1 hPa 0,0 mm 2,1 km/h (1 Bft) N-NW 343 ° 0 min 0,000 mm 0,9 UV-I 134 W/m² 10,4 °C 14,8 °C 3,2 km/h (1 Bft)
02.11.2019 14:10 14,8 °C 76 % 998,1 hPa 0,0 mm 2,4 km/h (1 Bft) N-NW 343 ° 0 min 0,000 mm 0,9 UV-I 142 W/m² 10,6 °C 14,8 °C 3,2 km/h (1 Bft)
02.11.2019 14:11 14,8 °C 78 % 998,0 hPa 0,0 mm 0,7 km/h (0 Bft) N-NW 343 ° 0 min 0,000 mm 0,9 UV-I 149 W/m² 11,0 °C 14,8 °C 1,6 km/h (1 Bft)
02.11.2019 14:12 14,8 °C 76 % 998,0 hPa 0,0 mm 0,1 km/h (0 Bft) N-NW 343 ° 0 min 0,000 mm 0,9 UV-I 155 W/m² 10,6 °C 14,8 °C 1,6 km/h (1 Bft)
02.11.2019 14:13 14,8 °C 75 % 998,1 hPa 0,0 mm 0,0 km/h (0 Bft) N-NW 343 ° 0 min 0,000 mm 0,9 UV-I 158 W/m² 10,4 °C 14,8 °C 0,0 km/h (0 Bft)
02.11.2019 14:14 14,9 °C 74 % 998,1 hPa 0,0 mm 0,0 km/h (0 Bft) N-NW 343 ° 0 min 0,000 mm 0,9 UV-I 141 W/m² 10,3 °C 14,9 °C 0,0 km/h (0 Bft)
02.11.2019 14:15 14,9 °C 75 % 998,1 hPa 0,0 mm 0,0 km/h (0 Bft) N-NW 343 ° 0 min 0,000 mm 0,9 UV-I 139 W/m² 10,5 °C 14,9 °C 0,0 km/h (0 Bft)
02.11.2019 14:16 14,9 °C 80 % 998,1 hPa 0,0 mm 0,0 km/h (0 Bft) N-NW 343 ° 0 min 0,000 mm 0,9 UV-I 137 W/m² 11,5 °C 14,9 °C 0,0 km/h (0 Bft)
02.11.2019 14:17 14,8 °C 79 % 998,1 hPa 0,0 mm 0,0 km/h (0 Bft) N-NW 343 ° 0 min 0,000 mm 0,9 UV-I 128 W/m² 11,2 °C 14,8 °C 0,0 km/h (0 Bft)
02.11.2019 14:18 14,8 °C 81 % 998,1 hPa 0,0 mm 0,2 km/h (0 Bft) N-NW 343 ° 0 min 0,000 mm 0,9 UV-I 114 W/m² 11,6 °C 14,8 °C 1,6 km/h (1 Bft)
02.11.2019 14:19 14,7 °C 81 % 998,1 hPa 0,0 mm 0,7 km/h (0 Bft) N-NW 343 ° 0 min 0,000 mm 0,8 UV-I 113 W/m² 11,5 °C 14,7 °C 3,2 km/h (1 Bft)
02.11.2019 14:20 14,7 °C 81 % 998,1 hPa 0,0 mm 0,0 km/h (0 Bft) N-NW 343 ° 0 min 0,000 mm 0,8 UV-I 114 W/m² 11,5 °C 14,7 °C 0,0 km/h (0 Bft)
02.11.2019 14:21 14,7 °C 81 % 998,2 hPa 0,0 mm 0,0 km/h (0 Bft) N-NW 343 ° 0 min 0,000 mm 0,8 UV-I 111 W/m² 11,5 °C 14,7 °C 0,0 km/h (0 Bft)
02.11.2019 14:22 14,6 °C 80 % 998,1 hPa 0,0 mm 0,0 km/h (0 Bft) N-NW 343 ° 0 min 0,000 mm 0,7 UV-I 104 W/m² 11,2 °C 14,6 °C 0,0 km/h (0 Bft)
02.11.2019 14:23 14,6 °C 78 % 998,2 hPa 0,0 mm 0,0 km/h (0 Bft) N-NW 343 ° 0 min 0,000 mm 0,7 UV-I 100 W/m² 10,8 °C 14,6 °C 0,0 km/h (0 Bft)
02.11.2019 14:24 14,7 °C 77 % 998,2 hPa 0,0 mm 0,0 km/h (0 Bft) N-NW 343 ° 0 min 0,000 mm 0,7 UV-I 98 W/m² 10,7 °C 14,7 °C 0,0 km/h (0 Bft)
02.11.2019 14:25 14,8 °C 76 % 998,2 hPa 0,0 mm 0,0 km/h (0 Bft) N-NW 343 ° 0 min 0,000 mm 0,7 UV-I 95 W/m² 10,6 °C 14,8 °C 0,0 km/h (0 Bft)
02.11.2019 14:26 14,8 °C 77 % 998,2 hPa 0,0 mm 2,8 km/h (1 Bft) N-NW 343 ° 0 min 0,000 mm 0,7 UV-I 83 W/m² 10,8 °C 14,8 °C 4,8 km/h (1 Bft)
02.11.2019 14:27 14,8 °C 79 % 998,1 hPa 0,0 mm 1,3 km/h (1 Bft) N-NW 343 ° 0 min 0,000 mm 0,7 UV-I 77 W/m² 11,2 °C 14,8 °C 3,2 km/h (1 Bft)
02.11.2019 14:28 14,8 °C 79 % 998,1 hPa 0,0 mm 1,3 km/h (1 Bft) N-NW 343 ° 0 min 0,000 mm 0,7 UV-I 72 W/m² 11,2 °C 14,8 °C 3,2 km/h (1 Bft)
02.11.2019 14:29 14,7 °C 79 % 998,0 hPa 0,0 mm 3,0 km/h (1 Bft) N-NW 343 ° 0 min 0,000 mm 0,7 UV-I 69 W/m² 11,1 °C 14,7 °C 4,8 km/h (1 Bft)
02.11.2019 14:30 14,6 °C 81 % 997,9 hPa 0,0 mm 2,6 km/h (1 Bft) N-NW 343 ° 0 min 0,000 mm 0,7 UV-I 67 W/m² 11,4 °C 14,6 °C 4,8 km/h (1 Bft)
02.11.2019 14:31 14,4 °C 79 % 997,9 hPa 0,0 mm 1,9 km/h (1 Bft) N-NW 343 ° 0 min 0,000 mm 0,7 UV-I 74 W/m² 10,8 °C 14,4 °C 3,2 km/h (1 Bft)
02.11.2019 14:32 14,4 °C 79 % 997,9 hPa 0,0 mm 0,0 km/h (0 Bft) N-NW 343 ° 0 min 0,000 mm 0,8 UV-I 81 W/m² 10,8 °C 14,4 °C 0,0 km/h (0 Bft)
02.11.2019 14:33 14,4 °C 78 % 998,0 hPa 0,0 mm 0,0 km/h (0 Bft) N-NW 343 ° 0 min 0,000 mm 0,8 UV-I 83 W/m² 10,6 °C 14,4 °C 0,0 km/h (0 Bft)
02.11.2019 14:34 14,3 °C 79 % 997,9 hPa 0,0 mm 0,0 km/h (0 Bft) N-NW 343 ° 0 min 0,000 mm 0,8 UV-I 81 W/m² 10,7 °C 14,3 °C 0,0 km/h (0 Bft)
02.11.2019 14:35 14,3 °C 80 % 997,9 hPa 0,0 mm 0,0 km/h (0 Bft) N-NW 343 ° 0 min 0,000 mm 0,8 UV-I 76 W/m² 10,9 °C 14,3 °C 0,0 km/h (0 Bft)
02.11.2019 14:36 14,2 °C 81 % 997,9 hPa 0,0 mm 0,0 km/h (0 Bft) N-NW 343 ° 0 min 0,000 mm 0,7 UV-I 72 W/m² 11,0 °C 14,2 °C 0,0 km/h (0 Bft)
02.11.2019 14:37 14,1 °C 81 % 997,9 hPa 0,0 mm 0,0 km/h (0 Bft) N-NW 343 ° 0 min 0,000 mm 0,7 UV-I 70 W/m² 10,9 °C 14,1 °C 0,0 km/h (0 Bft)
02.11.2019 14:38 14,1 °C 81 % 997,9 hPa 0,0 mm 0,8 km/h (0 Bft) N-NW 343 ° 0 min 0,000 mm 0,7 UV-I 70 W/m² 10,9 °C 14,1 °C 3,2 km/h (1 Bft)
02.11.2019 14:39 14,0 °C 80 % 997,9 hPa 0,0 mm 3,2 km/h (1 Bft) S-SW 202 ° 0 min 0,000 mm 0,7 UV-I 86 W/m² 10,6 °C 14,0 °C 4,8 km/h (1 Bft)
02.11.2019 14:40 14,1 °C 80 % 998,0 hPa 0,0 mm 3,2 km/h (1 Bft) S-SW 202 ° 0 min 0,000 mm 0,7 UV-I 109 W/m² 10,7 °C 14,1 °C 4,8 km/h (1 Bft)
02.11.2019 14:41 14,1 °C 80 % 998,0 hPa 0,0 mm 1,6 km/h (1 Bft) S-SW 202 ° 0 min 0,000 mm 0,7 UV-I 123 W/m² 10,7 °C 14,1 °C 3,2 km/h (1 Bft)
02.11.2019 14:42 14,1 °C 81 % 997,9 hPa 0,0 mm 1,6 km/h (1 Bft) S-SW 202 ° 0 min 0,000 mm 0,8 UV-I 165 W/m² 10,9 °C 14,1 °C 3,2 km/h (1 Bft)
02.11.2019 14:43 14,1 °C 82 % 997,9 hPa 0,0 mm 3,2 km/h (1 Bft) S-SW 202 ° 0 min 0,000 mm 0,8 UV-I 165 W/m² 11,1 °C 14,1 °C 3,2 km/h (1 Bft)
02.11.2019 14:44 13,9 °C 82 % 997,9 hPa 0,0 mm 3,2 km/h (1 Bft) S-SW 202 ° 0 min 0,000 mm 0,8 UV-I 90 W/m² 10,9 °C 13,9 °C 3,2 km/h (1 Bft)
02.11.2019 14:45 13,9 °C 82 % 997,9 hPa 0,0 mm 1,6 km/h (1 Bft) S-SW 202 ° 0 min 0,000 mm 0,8 UV-I 81 W/m² 10,9 °C 13,9 °C 3,2 km/h (1 Bft)
02.11.2019 14:46 13,8 °C 83 % 997,8 hPa 0,0 mm 1,6 km/h (1 Bft) S-SW 202 ° 0 min 0,000 mm 0,7 UV-I 77 W/m² 11,0 °C 13,8 °C 3,2 km/h (1 Bft)
02.11.2019 14:47 13,8 °C 83 % 997,8 hPa 0,0 mm 0,0 km/h (0 Bft) N 0 ° 0 min 0,000 mm 0,7 UV-I 76 W/m² 11,0 °C 13,8 °C 0,0 km/h (0 Bft)
02.11.2019 14:48 13,8 °C 83 % 997,8 hPa 0,0 mm 0,0 km/h (0 Bft) N 0 ° 0 min 0,000 mm 0,8 UV-I 107 W/m² 11,0 °C 13,8 °C 0,0 km/h (0 Bft)
02.11.2019 14:49 13,8 °C 84 % 997,8 hPa 0,0 mm 0,0 km/h (0 Bft) N 0 ° 0 min 0,000 mm 0,7 UV-I 77 W/m² 11,1 °C 13,8 °C 0,0 km/h (0 Bft)
02.11.2019 14:51 13,7 °C 84 % 997,7 hPa 0,0 mm 0,0 km/h (0 Bft) S-SW 204 ° 0 min 0,000 mm 0,7 UV-I 76 W/m² 11,0 °C 13,7 °C 0,0 km/h (0 Bft)
02.11.2019 14:52 13,7 °C 84 % 997,7 hPa 0,0 mm 0,0 km/h (0 Bft) S-SW 204 ° 0 min 0,000 mm 0,7 UV-I 77 W/m² 11,0 °C 13,7 °C 0,0 km/h (0 Bft)
02.11.2019 14:53 13,6 °C 85 % 997,6 hPa 0,0 mm 0,0 km/h (0 Bft) S-SW 204 ° 0 min 0,000 mm 0,7 UV-I 84 W/m² 11,1 °C 13,6 °C 0,0 km/h (0 Bft)
02.11.2019 14:54 13,6 °C 85 % 997,6 hPa 0,0 mm 0,0 km/h (0 Bft) S-SW 204 ° 0 min 0,000 mm 0,7 UV-I 93 W/m² 11,1 °C 13,6 °C 0,0 km/h (0 Bft)
02.11.2019 14:55 13,5 °C 86 % 997,6 hPa 0,0 mm 0,0 km/h (0 Bft) S-SW 204 ° 0 min 0,000 mm 0,7 UV-I 100 W/m² 11,2 °C 13,5 °C 0,0 km/h (0 Bft)
02.11.2019 14:56 13,5 °C 86 % 997,6 hPa 0,0 mm 0,0 km/h (0 Bft) S-SW 204 ° 0 min 0,000 mm 0,7 UV-I 109 W/m² 11,2 °C 13,5 °C 0,0 km/h (0 Bft)
02.11.2019 14:57 13,4 °C 87 % 997,6 hPa 0,0 mm 0,0 km/h (0 Bft) S-SW 204 ° 0 min 0,000 mm 0,7 UV-I 109 W/m² 11,3 °C 13,4 °C 0,0 km/h (0 Bft)
02.11.2019 14:58 13,4 °C 87 % 997,6 hPa 0,0 mm 0,0 km/h (0 Bft) S-SW 204 ° 0 min 0,000 mm 0,7 UV-I 109 W/m² 11,3 °C 13,4 °C 0,0 km/h (0 Bft)
02.11.2019 14:59 13,4 °C 86 % 997,6 hPa 0,0 mm 0,0 km/h (0 Bft) S-SW 204 ° 0 min 0,000 mm 0,7 UV-I 113 W/m² 11,1 °C 13,4 °C 0,0 km/h (0 Bft)
02.11.2019 15:00 13,4 °C 87 % 997,6 hPa 0,0 mm 0,0 km/h (0 Bft) S-SW 204 ° 0 min 0,051 mm 0,7 UV-I 102 W/m² 11,3 °C 13,4 °C 0,0 km/h (0 Bft)
02.11.2019 15:01 13,5 °C 87 % 997,6 hPa 0,0 mm 0,0 km/h (0 Bft) S-SW 204 ° 0 min 0,000 mm 0,6 UV-I 102 W/m² 11,4 °C 13,5 °C 0,0 km/h (0 Bft)
02.11.2019 15:02 13,6 °C 87 % 997,5 hPa 0,0 mm 0,0 km/h (0 Bft) S-SW 204 ° 0 min 0,000 mm 0,6 UV-I 84 W/m² 11,5 °C 13,6 °C 0,0 km/h (0 Bft)
02.11.2019 15:03 13,6 °C 88 % 997,6 hPa 0,0 mm 0,0 km/h (0 Bft) S-SW 204 ° 0 min 0,000 mm 0,6 UV-I 81 W/m² 11,6 °C 13,6 °C 0,0 km/h (0 Bft)
02.11.2019 15:04 13,5 °C 87 % 997,6 hPa 0,0 mm 0,0 km/h (0 Bft) S-SW 204 ° 0 min 0,000 mm 0,6 UV-I 77 W/m² 11,4 °C 13,5 °C 0,0 km/h (0 Bft)
02.11.2019 15:05 13,5 °C 87 % 997,6 hPa 0,0 mm 0,0 km/h (0 Bft) S-SW 204 ° 0 min 0,000 mm 0,6 UV-I 70 W/m² 11,4 °C 13,5 °C 0,0 km/h (0 Bft)
02.11.2019 15:06 13,5 °C 87 % 997,5 hPa 0,0 mm 0,0 km/h (0 Bft) S-SW 204 ° 0 min 0,000 mm 0,5 UV-I 69 W/m² 11,4 °C 13,5 °C 0,0 km/h (0 Bft)
02.11.2019 15:07 13,6 °C 87 % 997,6 hPa 0,0 mm 0,0 km/h (0 Bft) S-SW 204 ° 0 min 0,000 mm 0,5 UV-I 74 W/m² 11,5 °C 13,6 °C 0,0 km/h (0 Bft)
02.11.2019 15:08 13,6 °C 88 % 997,5 hPa 0,0 mm 0,0 km/h (0 Bft) S-SW 204 ° 0 min 0,000 mm 0,5 UV-I 76 W/m² 11,6 °C 13,6 °C 0,0 km/h (0 Bft)
02.11.2019 15:09 13,6 °C 87 % 997,6 hPa 0,0 mm 0,0 km/h (0 Bft) S-SW 204 ° 0 min 0,000 mm 0,5 UV-I 76 W/m² 11,5 °C 13,6 °C 0,0 km/h (0 Bft)
02.11.2019 15:10 13,6 °C 87 % 997,5 hPa 0,0 mm 0,0 km/h (0 Bft) S-SW 204 ° 0 min 0,000 mm 0,5 UV-I 76 W/m² 11,5 °C 13,6 °C 0,0 km/h (0 Bft)
02.11.2019 15:11 13,7 °C 88 % 997,5 hPa 0,0 mm 0,0 km/h (0 Bft) S-SW 204 ° 0 min 0,000 mm 0,5 UV-I 79 W/m² 11,7 °C 13,7 °C 0,0 km/h (0 Bft)
02.11.2019 15:12 13,7 °C 88 % 997,5 hPa 0,0 mm 0,0 km/h (0 Bft) S-SW 204 ° 0 min 0,000 mm 0,5 UV-I 79 W/m² 11,7 °C 13,7 °C 0,0 km/h (0 Bft)
02.11.2019 15:13 13,8 °C 88 % 997,5 hPa 0,0 mm 0,0 km/h (0 Bft) S-SW 204 ° 0 min 0,000 mm 0,5 UV-I 77 W/m² 11,8 °C 13,8 °C 0,0 km/h (0 Bft)
02.11.2019 15:14 13,8 °C 88 % 997,6 hPa 0,0 mm 0,0 km/h (0 Bft) S-SW 204 ° 0 min 0,000 mm 0,5 UV-I 74 W/m² 11,8 °C 13,8 °C 0,0 km/h (0 Bft)
02.11.2019 15:15 13,8 °C 88 % 997,6 hPa 0,0 mm 0,0 km/h (0 Bft) S-SW 204 ° 0 min 0,000 mm 0,5 UV-I 70 W/m² 11,8 °C 13,8 °C 0,0 km/h (0 Bft)
02.11.2019 15:16 13,8 °C 88 % 997,5 hPa 0,0 mm 0,0 km/h (0 Bft) S-SW 204 ° 0 min 0,000 mm 0,5 UV-I 70 W/m² 11,8 °C 13,8 °C 0,0 km/h (0 Bft)
02.11.2019 15:17 13,8 °C 88 % 997,5 hPa 0,0 mm 0,0 km/h (0 Bft) S-SW 204 ° 0 min 0,000 mm 0,5 UV-I 72 W/m² 11,8 °C 13,8 °C 0,0 km/h (0 Bft)
02.11.2019 15:18 13,8 °C 88 % 997,5 hPa 0,0 mm 0,0 km/h (0 Bft) S-SW 204 ° 0 min 0,000 mm 0,5 UV-I 74 W/m² 11,8 °C 13,8 °C 0,0 km/h (0 Bft)
02.11.2019 15:19 13,8 °C 87 % 997,5 hPa 0,0 mm 0,0 km/h (0 Bft) S-SW 204 ° 0 min 0,000 mm 0,5 UV-I 74 W/m² 11,7 °C 13,8 °C 0,0 km/h (0 Bft)
02.11.2019 15:20 13,8 °C 87 % 997,5 hPa 0,0 mm 0,0 km/h (0 Bft) S-SW 204 ° 0 min 0,000 mm 0,5 UV-I 76 W/m² 11,7 °C 13,8 °C 0,0 km/h (0 Bft)
02.11.2019 15:21 13,7 °C 87 % 997,5 hPa 0,0 mm 0,0 km/h (0 Bft) S-SW 204 ° 0 min 0,000 mm 0,5 UV-I 76 W/m² 11,6 °C 13,7 °C 0,0 km/h (0 Bft)
02.11.2019 15:22 13,8 °C 87 % 997,5 hPa 0,0 mm 0,0 km/h (0 Bft) S-SW 204 ° 0 min 0,000 mm 0,5 UV-I 79 W/m² 11,7 °C 13,8 °C 0,0 km/h (0 Bft)
02.11.2019 15:23 13,8 °C 87 % 997,5 hPa 0,0 mm 0,0 km/h (0 Bft) S-SW 204 ° 0 min 0,000 mm 0,5 UV-I 84 W/m² 11,7 °C 13,8 °C 0,0 km/h (0 Bft)
02.11.2019 15:24 13,8 °C 87 % 997,5 hPa 0,0 mm 0,0 km/h (0 Bft) S-SW 204 ° 0 min 0,000 mm 0,5 UV-I 84 W/m² 11,7 °C 13,8 °C 0,0 km/h (0 Bft)
02.11.2019 15:25 13,8 °C 87 % 997,5 hPa 0,0 mm 0,0 km/h (0 Bft) S-SW 204 ° 0 min 0,000 mm 0,5 UV-I 83 W/m² 11,7 °C 13,8 °C 0,0 km/h (0 Bft)
02.11.2019 15:26 13,8 °C 87 % 997,5 hPa 0,0 mm 0,0 km/h (0 Bft) S-SW 204 ° 0 min 0,000 mm 0,5 UV-I 81 W/m² 11,7 °C 13,8 °C 0,0 km/h (0 Bft)
02.11.2019 15:27 13,8 °C 87 % 997,5 hPa 0,0 mm 0,0 km/h (0 Bft) S-SW 204 ° 0 min 0,000 mm 0,5 UV-I 83 W/m² 11,7 °C 13,8 °C 0,0 km/h (0 Bft)
02.11.2019 15:28 13,8 °C 88 % 997,6 hPa 0,0 mm 0,0 km/h (0 Bft) S-SW 204 ° 0 min 0,000 mm 0,5 UV-I 84 W/m² 11,8 °C 13,8 °C 0,0 km/h (0 Bft)
02.11.2019 15:29 13,8 °C 88 % 997,6 hPa 0,0 mm 0,0 km/h (0 Bft) S-SW 204 ° 0 min 0,000 mm 0,5 UV-I 79 W/m² 11,8 °C 13,8 °C 0,0 km/h (0 Bft)
02.11.2019 15:30 13,7 °C 88 % 997,5 hPa 0,0 mm 0,0 km/h (0 Bft) S-SW 204 ° 0 min 0,000 mm 0,5 UV-I 72 W/m² 11,7 °C 13,7 °C 0,0 km/h (0 Bft)
02.11.2019 15:31 13,7 °C 88 % 997,5 hPa 0,0 mm 0,0 km/h (0 Bft) S-SW 204 ° 0 min 0,000 mm 0,5 UV-I 67 W/m² 11,7 °C 13,7 °C 0,0 km/h (0 Bft)
02.11.2019 15:32 13,6 °C 89 % 997,5 hPa 0,0 mm 0,0 km/h (0 Bft) S-SW 204 ° 0 min 0,000 mm 0,5 UV-I 65 W/m² 11,8 °C 13,6 °C 0,0 km/h (0 Bft)
02.11.2019 15:33 13,5 °C 89 % 997,5 hPa 0,0 mm 0,0 km/h (0 Bft) S-SW 204 ° 0 min 0,000 mm 0,5 UV-I 65 W/m² 11,7 °C 13,5 °C 0,0 km/h (0 Bft)
02.11.2019 15:34 13,5 °C 89 % 997,4 hPa 0,0 mm 1,8 km/h (1 Bft) S 187 ° 0 min 0,000 mm 0,0 UV-I 63 W/m² 11,7 °C 13,5 °C 3,2 km/h (1 Bft)
02.11.2019 15:35 13,6 °C 89 % 997,4 hPa 0,0 mm 1,0 km/h (0 Bft) S 187 ° 0 min 0,000 mm 0,0 UV-I 63 W/m² 11,8 °C 13,6 °C 3,2 km/h (1 Bft)
02.11.2019 15:36 13,5 °C 90 % 997,4 hPa 0,0 mm 1,3 km/h (1 Bft) S 187 ° 0 min 0,000 mm 0,0 UV-I 63 W/m² 11,9 °C 13,5 °C 3,2 km/h (1 Bft)
02.11.2019 15:37 13,5 °C 90 % 997,4 hPa 0,0 mm 0,3 km/h (0 Bft) S 187 ° 0 min 0,000 mm 0,0 UV-I 63 W/m² 11,9 °C 13,5 °C 1,6 km/h (1 Bft)
02.11.2019 15:38 13,4 °C 90 % 997,4 hPa 0,0 mm 0,0 km/h (0 Bft) S 187 ° 0 min 0,000 mm 0,0 UV-I 63 W/m² 11,8 °C 13,4 °C 0,0 km/h (0 Bft)
02.11.2019 15:39 13,4 °C 90 % 997,4 hPa 0,0 mm 0,0 km/h (0 Bft) S 187 ° 0 min 0,000 mm 0,0 UV-I 63 W/m² 11,8 °C 13,4 °C 0,0 km/h (0 Bft)
02.11.2019 15:40 13,4 °C 90 % 997,4 hPa 0,0 mm 0,0 km/h (0 Bft) S 187 ° 0 min 0,000 mm 0,0 UV-I 65 W/m² 11,8 °C 13,4 °C 0,0 km/h (0 Bft)
02.11.2019 15:41 13,4 °C 89 % 997,4 hPa 0,0 mm 0,0 km/h (0 Bft) S 187 ° 0 min 0,000 mm 0,0 UV-I 76 W/m² 11,6 °C 13,4 °C 0,0 km/h (0 Bft)
02.11.2019 15:42 13,4 °C 90 % 997,4 hPa 0,0 mm 0,0 km/h (0 Bft) S 187 ° 0 min 0,000 mm 0,0 UV-I 81 W/m² 11,8 °C 13,4 °C 0,0 km/h (0 Bft)
02.11.2019 15:43 13,4 °C 90 % 997,4 hPa 0,0 mm 0,0 km/h (0 Bft) S 187 ° 0 min 0,000 mm 0,0 UV-I 84 W/m² 11,8 °C 13,4 °C 0,0 km/h (0 Bft)
02.11.2019 15:44 13,5 °C 90 % 997,4 hPa 0,0 mm 0,0 km/h (0 Bft) S 187 ° 0 min 0,000 mm 0,0 UV-I 84 W/m² 11,9 °C 13,5 °C 0,0 km/h (0 Bft)
02.11.2019 15:45 13,4 °C 90 % 997,4 hPa 0,0 mm 0,0 km/h (0 Bft) S 187 ° 0 min 0,000 mm 0,0 UV-I 81 W/m² 11,8 °C 13,4 °C 0,0 km/h (0 Bft)
02.11.2019 15:46 13,5 °C 90 % 997,4 hPa 0,0 mm 0,0 km/h (0 Bft) S 187 ° 0 min 0,000 mm 0,0 UV-I 77 W/m² 11,9 °C 13,5 °C 0,0 km/h (0 Bft)
02.11.2019 15:47 13,5 °C 90 % 997,3 hPa 0,0 mm 0,0 km/h (0 Bft) S 187 ° 0 min 0,000 mm 0,0 UV-I 69 W/m² 11,9 °C 13,5 °C 0,0 km/h (0 Bft)
02.11.2019 15:48 13,5 °C 90 % 997,3 hPa 0,0 mm 0,0 km/h (0 Bft) S 187 ° 0 min 0,000 mm 0,0 UV-I 65 W/m² 11,9 °C 13,5 °C 0,0 km/h (0 Bft)
02.11.2019 15:49 13,4 °C 90 % 997,3 hPa 0,0 mm 0,0 km/h (0 Bft) S 187 ° 0 min 0,000 mm 0,0 UV-I 62 W/m² 11,8 °C 13,4 °C 0,0 km/h (0 Bft)
02.11.2019 15:50 13,4 °C 89 % 997,3 hPa 0,0 mm 0,0 km/h (0 Bft) S 187 ° 0 min 0,000 mm 0,0 UV-I 58 W/m² 11,6 °C 13,4 °C 0,0 km/h (0 Bft)
02.11.2019 15:51 13,4 °C 88 % 997,3 hPa 0,0 mm 0,0 km/h (0 Bft) S 187 ° 0 min 0,000 mm 0,0 UV-I 56 W/m² 11,5 °C 13,4 °C 0,0 km/h (0 Bft)
02.11.2019 15:52 13,4 °C 87 % 997,3 hPa 0,0 mm 0,0 km/h (0 Bft) S 187 ° 0 min 0,000 mm 0,0 UV-I 54 W/m² 11,3 °C 13,4 °C 0,0 km/h (0 Bft)
02.11.2019 15:53 13,3 °C 87 % 997,3 hPa 0,0 mm 0,0 km/h (0 Bft) S 187 ° 0 min 0,000 mm 0,0 UV-I 49 W/m² 11,2 °C 13,3 °C 0,0 km/h (0 Bft)
02.11.2019 15:54 13,3 °C 87 % 997,3 hPa 0,0 mm 0,0 km/h (0 Bft) S 187 ° 0 min 0,000 mm 0,0 UV-I 47 W/m² 11,2 °C 13,3 °C 0,0 km/h (0 Bft)
02.11.2019 15:55 13,3 °C 86 % 997,2 hPa 0,0 mm 0,0 km/h (0 Bft) S 187 ° 0 min 0,000 mm 0,0 UV-I 47 W/m² 11,0 °C 13,3 °C 0,0 km/h (0 Bft)
02.11.2019 15:56 13,3 °C 85 % 997,2 hPa 0,0 mm 0,0 km/h (0 Bft) S 187 ° 0 min 0,000 mm 0,0 UV-I 47 W/m² 10,8 °C 13,3 °C 0,0 km/h (0 Bft)
02.11.2019 15:57 13,3 °C 85 % 997,3 hPa 0,0 mm 0,0 km/h (0 Bft) S 187 ° 0 min 0,000 mm 0,0 UV-I 42 W/m² 10,8 °C 13,3 °C 0,0 km/h (0 Bft)
02.11.2019 15:58 13,3 °C 85 % 997,2 hPa 0,0 mm 0,0 km/h (0 Bft) S 187 ° 0 min 0,000 mm 0,0 UV-I 42 W/m² 10,8 °C 13,3 °C 0,0 km/h (0 Bft)
02.11.2019 15:59 13,3 °C 85 % 997,2 hPa 0,0 mm 0,0 km/h (0 Bft) S 187 ° 0 min 0,000 mm 0,0 UV-I 42 W/m² 10,8 °C 13,3 °C 0,0 km/h (0 Bft)
02.11.2019 16:00 13,2 °C 85 % 997,2 hPa 0,0 mm 0,0 km/h (0 Bft) S 187 ° 0 min 0,025 mm 0,0 UV-I 40 W/m² 10,7 °C 13,2 °C 0,0 km/h (0 Bft)
02.11.2019 16:01 13,2 °C 86 % 997,2 hPa 0,0 mm 0,0 km/h (0 Bft) S 187 ° 0 min 0,000 mm 0,0 UV-I 39 W/m² 10,9 °C 13,2 °C 0,0 km/h (0 Bft)
02.11.2019 16:02 13,2 °C 86 % 997,2 hPa 0,0 mm 0,0 km/h (0 Bft) S 187 ° 0 min 0,000 mm 0,0 UV-I 39 W/m² 10,9 °C 13,2 °C 0,0 km/h (0 Bft)
02.11.2019 16:03 13,2 °C 87 % 997,1 hPa 0,0 mm 0,0 km/h (0 Bft) S 187 ° 0 min 0,000 mm 0,0 UV-I 39 W/m² 11,1 °C 13,2 °C 0,0 km/h (0 Bft)
02.11.2019 16:04 13,1 °C 87 % 997,2 hPa 0,0 mm 0,0 km/h (0 Bft) S 187 ° 0 min 0,000 mm 0,0 UV-I 39 W/m² 11,0 °C 13,1 °C 0,0 km/h (0 Bft)
02.11.2019 16:05 13,1 °C 87 % 997,1 hPa 0,0 mm 0,0 km/h (0 Bft) S 187 ° 0 min 0,000 mm 0,0 UV-I 39 W/m² 11,0 °C 13,1 °C 0,0 km/h (0 Bft)
02.11.2019 16:06 12,9 °C 86 % 997,1 hPa 0,0 mm 0,0 km/h (0 Bft) S 187 ° 0 min 0,000 mm 0,0 UV-I 37 W/m² 10,6 °C 12,9 °C 0,0 km/h (0 Bft)
02.11.2019 16:07 12,9 °C 86 % 997,1 hPa 0,0 mm 0,0 km/h (0 Bft) S 185 ° 0 min 0,000 mm 0,0 UV-I 37 W/m² 10,6 °C 12,9 °C 0,0 km/h (0 Bft)
02.11.2019 16:08 12,9 °C 87 % 997,0 hPa 0,0 mm 2,3 km/h (1 Bft) S 185 ° 0 min 0,000 mm 0,0 UV-I 37 W/m² 10,8 °C 12,9 °C 4,8 km/h (1 Bft)
02.11.2019 16:09 12,8 °C 86 % 997,1 hPa 0,0 mm 2,1 km/h (1 Bft) S 185 ° 0 min 0,000 mm 0,0 UV-I 37 W/m² 10,5 °C 12,8 °C 3,2 km/h (1 Bft)
02.11.2019 16:10 12,8 °C 87 % 997,1 hPa 0,0 mm 3,8 km/h (1 Bft) S 174 ° 0 min 0,000 mm 0,0 UV-I 35 W/m² 10,7 °C 12,8 °C 4,8 km/h (1 Bft)
02.11.2019 16:11 12,8 °C 87 % 997,1 hPa 0,0 mm 2,5 km/h (1 Bft) S 174 ° 0 min 0,000 mm 0,0 UV-I 35 W/m² 10,7 °C 12,8 °C 4,8 km/h (1 Bft)
02.11.2019 16:12 12,8 °C 87 % 997,1 hPa 0,0 mm 3,9 km/h (1 Bft) S 174 ° 0 min 0,000 mm 0,0 UV-I 33 W/m² 10,7 °C 12,8 °C 4,8 km/h (1 Bft)
02.11.2019 16:13 12,8 °C 87 % 997,1 hPa 0,0 mm 3,1 km/h (1 Bft) S 174 ° 0 min 0,000 mm 0,0 UV-I 33 W/m² 10,7 °C 12,8 °C 3,2 km/h (1 Bft)
02.11.2019 16:14 12,8 °C 87 % 997,2 hPa 0,0 mm 1,9 km/h (1 Bft) S 174 ° 0 min 0,000 mm 0,0 UV-I 33 W/m² 10,7 °C 12,8 °C 3,2 km/h (1 Bft)
02.11.2019 16:15 12,8 °C 88 % 997,1 hPa 0,0 mm 1,8 km/h (1 Bft) S 174 ° 0 min 0,000 mm 0,0 UV-I 35 W/m² 10,9 °C 12,8 °C 3,2 km/h (1 Bft)
02.11.2019 16:16 12,8 °C 88 % 997,1 hPa 0,0 mm 0,2 km/h (0 Bft) S 174 ° 0 min 0,000 mm 0,0 UV-I 35 W/m² 10,9 °C 12,8 °C 1,6 km/h (1 Bft)
02.11.2019 16:17 12,8 °C 88 % 997,1 hPa 0,0 mm 0,0 km/h (0 Bft) S 174 ° 0 min 0,000 mm 0,0 UV-I 35 W/m² 10,9 °C 12,8 °C 0,0 km/h (0 Bft)
02.11.2019 16:18 12,8 °C 88 % 997,1 hPa 0,0 mm 0,0 km/h (0 Bft) S 174 ° 0 min 0,000 mm 0,0 UV-I 33 W/m² 10,9 °C 12,8 °C 0,0 km/h (0 Bft)
02.11.2019 16:19 12,7 °C 89 % 997,1 hPa 0,0 mm 0,6 km/h (0 Bft) S 174 ° 0 min 0,000 mm 0,0 UV-I 32 W/m² 10,9 °C 12,7 °C 1,6 km/h (1 Bft)
02.11.2019 16:20 12,8 °C 89 % 997,1 hPa 0,0 mm 2,8 km/h (1 Bft) S 174 ° 0 min 0,000 mm 0,0 UV-I 30 W/m² 11,0 °C 12,8 °C 3,2 km/h (1 Bft)
02.11.2019 16:21 12,7 °C 89 % 997,1 hPa 0,0 mm 0,5 km/h (0 Bft) S 174 ° 0 min 0,000 mm 0,0 UV-I 28 W/m² 10,9 °C 12,7 °C 1,6 km/h (1 Bft)
02.11.2019 16:22 12,7 °C 89 % 997,1 hPa 0,0 mm 1,7 km/h (1 Bft) S 174 ° 0 min 0,000 mm 0,0 UV-I 25 W/m² 10,9 °C 12,7 °C 3,2 km/h (1 Bft)
02.11.2019 16:23 12,7 °C 89 % 997,1 hPa 0,0 mm 1,5 km/h (1 Bft) S 174 ° 0 min 0,000 mm 0,0 UV-I 23 W/m² 10,9 °C 12,7 °C 1,6 km/h (1 Bft)
02.11.2019 16:24 12,7 °C 89 % 997,1 hPa 0,0 mm 0,1 km/h (0 Bft) S 174 ° 0 min 0,000 mm 0,0 UV-I 23 W/m² 10,9 °C 12,7 °C 1,6 km/h (1 Bft)
02.11.2019 16:25 12,6 °C 89 % 997,1 hPa 0,0 mm 0,0 km/h (0 Bft) S 174 ° 0 min 0,000 mm 0,0 UV-I 21 W/m² 10,8 °C 12,6 °C 0,0 km/h (0 Bft)
02.11.2019 16:26 12,6 °C 89 % 997,1 hPa 0,0 mm 0,1 km/h (0 Bft) S 174 ° 0 min 0,000 mm 0,0 UV-I 21 W/m² 10,8 °C 12,6 °C 1,6 km/h (1 Bft)
02.11.2019 16:27 12,6 °C 89 % 997,0 hPa 0,0 mm 0,3 km/h (0 Bft) S 174 ° 0 min 0,000 mm 0,0 UV-I 21 W/m² 10,8 °C 12,6 °C 3,2 km/h (1 Bft)
02.11.2019 16:28 12,6 °C 89 % 997,0 hPa 0,0 mm 1,0 km/h (0 Bft) S 174 ° 0 min 0,000 mm 0,0 UV-I 21 W/m² 10,8 °C 12,6 °C 1,6 km/h (1 Bft)
02.11.2019 16:29 12,6 °C 89 % 997,1 hPa 0,0 mm 0,3 km/h (0 Bft) S 174 ° 0 min 0,000 mm 0,0 UV-I 21 W/m² 10,8 °C 12,6 °C 1,6 km/h (1 Bft)
02.11.2019 16:30 12,6 °C 89 % 997,0 hPa 0,0 mm 0,0 km/h (0 Bft) S 174 ° 0 min 0,000 mm 0,0 UV-I 21 W/m² 10,8 °C 12,6 °C 0,0 km/h (0 Bft)
02.11.2019 16:31 12,6 °C 89 % 997,0 hPa 0,0 mm 0,6 km/h (0 Bft) S 174 ° 0 min 0,000 mm 0,0 UV-I 21 W/m² 10,8 °C 12,6 °C 3,2 km/h (1 Bft)
02.11.2019 16:32 12,6 °C 89 % 997,0 hPa 0,0 mm 1,3 km/h (1 Bft) S 174 ° 0 min 0,000 mm 0,0 UV-I 21 W/m² 10,8 °C 12,6 °C 3,2 km/h (1 Bft)
02.11.2019 16:33 12,6 °C 89 % 997,0 hPa 0,0 mm 0,5 km/h (0 Bft) S 174 ° 0 min 0,000 mm 0,0 UV-I 19 W/m² 10,8 °C 12,6 °C 1,6 km/h (1 Bft)
02.11.2019 16:34 12,6 °C 88 % 997,0 hPa 0,0 mm 1,5 km/h (1 Bft) S 174 ° 0 min 0,000 mm 0,0 UV-I 18 W/m² 10,7 °C 12,6 °C 3,2 km/h (1 Bft)
02.11.2019 16:35 12,6 °C 88 % 996,9 hPa 0,0 mm 1,0 km/h (0 Bft) S 174 ° 0 min 0,000 mm 0,0 UV-I 14 W/m² 10,7 °C 12,6 °C 3,2 km/h (1 Bft)
02.11.2019 16:36 12,6 °C 88 % 996,9 hPa 0,0 mm 2,3 km/h (1 Bft) S 174 ° 0 min 0,000 mm 0,0 UV-I 14 W/m² 10,7 °C 12,6 °C 3,2 km/h (1 Bft)
02.11.2019 16:37 12,6 °C 88 % 996,9 hPa 0,0 mm 2,5 km/h (1 Bft) S 174 ° 0 min 0,000 mm 0,0 UV-I 12 W/m² 10,7 °C 12,6 °C 3,2 km/h (1 Bft)
02.11.2019 16:38 12,5 °C 88 % 996,9 hPa 0,0 mm 2,7 km/h (1 Bft) S 174 ° 0 min 0,000 mm 0,0 UV-I 12 W/m² 10,6 °C 12,5 °C 4,8 km/h (1 Bft)
02.11.2019 16:39 12,6 °C 88 % 996,8 hPa 0,0 mm 2,3 km/h (1 Bft) S 174 ° 0 min 0,000 mm 0,0 UV-I 12 W/m² 10,7 °C 12,6 °C 3,2 km/h (1 Bft)
02.11.2019 16:40 12,5 °C 88 % 996,9 hPa 0,0 mm 2,0 km/h (1 Bft) S 174 ° 0 min 0,000 mm 0,0 UV-I 12 W/m² 10,6 °C 12,5 °C 3,2 km/h (1 Bft)
02.11.2019 16:41 12,5 °C 88 % 996,8 hPa 0,0 mm 1,8 km/h (1 Bft) S 174 ° 0 min 0,000 mm 0,0 UV-I 12 W/m² 10,6 °C 12,5 °C 3,2 km/h (1 Bft)
02.11.2019 16:42 12,5 °C 88 % 996,8 hPa 0,0 mm 1,9 km/h (1 Bft) S 174 ° 0 min 0,000 mm 0,0 UV-I 12 W/m² 10,6 °C 12,5 °C 3,2 km/h (1 Bft)
02.11.2019 16:43 12,4 °C 87 % 996,8 hPa 0,0 mm 1,7 km/h (1 Bft) S 174 ° 0 min 0,000 mm 0,0 UV-I 12 W/m² 10,3 °C 12,4 °C 3,2 km/h (1 Bft)
02.11.2019 16:44 12,4 °C 87 % 996,8 hPa 0,0 mm 2,3 km/h (1 Bft) S 174 ° 0 min 0,000 mm 0,0 UV-I 11 W/m² 10,3 °C 12,4 °C 3,2 km/h (1 Bft)
02.11.2019 16:45 12,4 °C 87 % 996,8 hPa 0,0 mm 2,1 km/h (1 Bft) S 174 ° 0 min 0,000 mm 0,0 UV-I 9 W/m² 10,3 °C 12,4 °C 3,2 km/h (1 Bft)
02.11.2019 16:46 12,4 °C 87 % 996,8 hPa 0,0 mm 2,1 km/h (1 Bft) S 174 ° 0 min 0,000 mm 0,0 UV-I 7 W/m² 10,3 °C 12,4 °C 3,2 km/h (1 Bft)
02.11.2019 16:47 12,4 °C 87 % 996,8 hPa 0,0 mm 2,1 km/h (1 Bft) S 174 ° 0 min 0,000 mm 0,0 UV-I 7 W/m² 10,3 °C 12,4 °C 3,2 km/h (1 Bft)
02.11.2019 16:48 12,3 °C 87 % 996,8 hPa 0,0 mm 1,8 km/h (1 Bft) S 174 ° 0 min 0,000 mm 0,0 UV-I 5 W/m² 10,2 °C 12,3 °C 3,2 km/h (1 Bft)
02.11.2019 16:49 12,3 °C 86 % 996,7 hPa 0,0 mm 2,3 km/h (1 Bft) S 174 ° 0 min 0,000 mm 0,0 UV-I 5 W/m² 10,0 °C 12,3 °C 3,2 km/h (1 Bft)
02.11.2019 16:50 12,3 °C 86 % 996,7 hPa 0,0 mm 1,8 km/h (1 Bft) S 174 ° 0 min 0,000 mm 0,0 UV-I 5 W/m² 10,0 °C 12,3 °C 3,2 km/h (1 Bft)
02.11.2019 16:51 12,3 °C 86 % 996,8 hPa 0,0 mm 0,3 km/h (0 Bft) S 174 ° 0 min 0,000 mm 0,0 UV-I 5 W/m² 10,0 °C 12,3 °C 1,6 km/h (1 Bft)
02.11.2019 16:52 12,3 °C 86 % 996,8 hPa 0,0 mm 0,0 km/h (0 Bft) S 174 ° 0 min 0,000 mm 0,0 UV-I 0 W/m² 10,0 °C 12,3 °C 0,0 km/h (0 Bft)
02.11.2019 16:53 12,3 °C 86 % 996,9 hPa 0,0 mm 0,0 km/h (0 Bft) S 174 ° 0 min 0,000 mm 0,0 UV-I 0 W/m² 10,0 °C 12,3 °C 0,0 km/h (0 Bft)
02.11.2019 16:54 12,3 °C 86 % 996,9 hPa 0,0 mm 0,0 km/h (0 Bft) S 174 ° 0 min 0,000 mm 0,0 UV-I 0 W/m² 10,0 °C 12,3 °C 0,0 km/h (0 Bft)
02.11.2019 16:55 12,2 °C 86 % 996,9 hPa 0,0 mm 0,0 km/h (0 Bft) S 174 ° 0 min 0,000 mm 0,0 UV-I 0 W/m² 9,9 °C 12,2 °C 0,0 km/h (0 Bft)
02.11.2019 16:56 12,2 °C 86 % 996,9 hPa 0,0 mm 0,0 km/h (0 Bft) S 174 ° 0 min 0,000 mm 0,0 UV-I 0 W/m² 9,9 °C 12,2 °C 0,0 km/h (0 Bft)
02.11.2019 16:57 12,2 °C 86 % 996,9 hPa 0,0 mm 0,0 km/h (0 Bft) S 174 ° 0 min 0,000 mm 0,0 UV-I 0 W/m² 9,9 °C 12,2 °C 0,0 km/h (0 Bft)
02.11.2019 16:58 12,2 °C 86 % 996,9 hPa 0,0 mm 0,0 km/h (0 Bft) S 174 ° 0 min 0,000 mm 0,0 UV-I 0 W/m² 9,9 °C 12,2 °C 0,0 km/h (0 Bft)
02.11.2019 16:59 12,1 °C 86 % 996,9 hPa 0,0 mm 0,0 km/h (0 Bft) S 174 ° 0 min 0,000 mm 0,0 UV-I 0 W/m² 9,8 °C 12,1 °C 0,0 km/h (0 Bft)
02.11.2019 17:00 12,1 °C 86 % 996,9 hPa 0,0 mm 0,0 km/h (0 Bft) S 174 ° 0 min 0,000 mm 0,0 UV-I 0 W/m² 9,8 °C 12,1 °C 0,0 km/h (0 Bft)
02.11.2019 17:01 12,1 °C 86 % 997,0 hPa 0,0 mm 0,0 km/h (0 Bft) S 174 ° 0 min 0,026 mm 0,0 UV-I 0 W/m² 9,8 °C 12,1 °C 0,0 km/h (0 Bft)
02.11.2019 17:02 12,1 °C 86 % 997,0 hPa 0,0 mm 0,0 km/h (0 Bft) S 174 ° 0 min 0,000 mm 0,0 UV-I 0 W/m² 9,8 °C 12,1 °C 0,0 km/h (0 Bft)
02.11.2019 17:03 12,1 °C 86 % 997,0 hPa 0,0 mm 0,0 km/h (0 Bft) S 174 ° 0 min 0,000 mm 0,0 UV-I 0 W/m² 9,8 °C 12,1 °C 0,0 km/h (0 Bft)
02.11.2019 17:04 12,1 °C 86 % 997,0 hPa 0,0 mm 0,0 km/h (0 Bft) S 174 ° 0 min 0,000 mm 0,0 UV-I 0 W/m² 9,8 °C 12,1 °C 0,0 km/h (0 Bft)
02.11.2019 17:05 12,1 °C 86 % 997,0 hPa 0,0 mm 0,0 km/h (0 Bft) S 174 ° 0 min 0,000 mm 0,0 UV-I 0 W/m² 9,8 °C 12,1 °C 0,0 km/h (0 Bft)
02.11.2019 17:06 12,0 °C 86 % 997,0 hPa 0,0 mm 0,0 km/h (0 Bft) S 174 ° 0 min 0,000 mm 0,0 UV-I 0 W/m² 9,7 °C 12,0 °C 0,0 km/h (0 Bft)
02.11.2019 17:07 11,9 °C 86 % 997,0 hPa 0,0 mm 0,0 km/h (0 Bft) S 174 ° 0 min 0,000 mm 0,0 UV-I 0 W/m² 9,6 °C 11,9 °C 0,0 km/h (0 Bft)
02.11.2019 17:08 11,9 °C 86 % 997,1 hPa 0,0 mm 1,0 km/h (0 Bft) S 174 ° 0 min 0,000 mm 0,0 UV-I 0 W/m² 9,6 °C 11,9 °C 3,2 km/h (1 Bft)
02.11.2019 17:09 11,9 °C 86 % 997,1 hPa 0,0 mm 1,6 km/h (1 Bft) S 174 ° 0 min 0,000 mm 0,0 UV-I 0 W/m² 9,6 °C 11,9 °C 1,6 km/h (1 Bft)
02.11.2019 17:10 11,9 °C 86 % 997,0 hPa 0,0 mm 0,9 km/h (0 Bft) S 174 ° 0 min 0,000 mm 0,0 UV-I 0 W/m² 9,6 °C 11,9 °C 1,6 km/h (1 Bft)
02.11.2019 17:11 11,8 °C 86 % 997,1 hPa 0,0 mm 1,3 km/h (1 Bft) S 174 ° 0 min 0,000 mm 0,0 UV-I 0 W/m² 9,5 °C 11,8 °C 1,6 km/h (1 Bft)
02.11.2019 17:12 11,8 °C 87 % 997,0 hPa 0,0 mm 0,4 km/h (0 Bft) S 174 ° 0 min 0,000 mm 0,0 UV-I 0 W/m² 9,7 °C 11,8 °C 1,6 km/h (1 Bft)
02.11.2019 17:13 11,8 °C 87 % 997,0 hPa 0,0 mm 0,3 km/h (0 Bft) S 174 ° 0 min 0,000 mm 0,0 UV-I 0 W/m² 9,7 °C 11,8 °C 1,6 km/h (1 Bft)
02.11.2019 17:14 11,8 °C 87 % 997,0 hPa 0,0 mm 1,7 km/h (1 Bft) S 174 ° 0 min 0,000 mm 0,0 UV-I 0 W/m² 9,7 °C 11,8 °C 3,2 km/h (1 Bft)
02.11.2019 17:15 11,8 °C 87 % 997,0 hPa 0,0 mm 1,7 km/h (1 Bft) S 174 ° 0 min 0,000 mm 0,0 UV-I 0 W/m² 9,7 °C 11,8 °C 3,2 km/h (1 Bft)
02.11.2019 17:16 11,7 °C 87 % 997,0 hPa 0,0 mm 1,9 km/h (1 Bft) S 174 ° 0 min 0,000 mm 0,0 UV-I 0 W/m² 9,6 °C 11,7 °C 3,2 km/h (1 Bft)
02.11.2019 17:17 11,7 °C 87 % 997,0 hPa 0,0 mm 2,1 km/h (1 Bft) S 174 ° 0 min 0,000 mm 0,0 UV-I 0 W/m² 9,6 °C 11,7 °C 3,2 km/h (1 Bft)
02.11.2019 17:18 11,7 °C 87 % 997,0 hPa 0,0 mm 2,5 km/h (1 Bft) S 174 ° 0 min 0,000 mm 0,0 UV-I 0 W/m² 9,6 °C 11,7 °C 3,2 km/h (1 Bft)
02.11.2019 17:19 11,7 °C 87 % 997,0 hPa 0,0 mm 2,0 km/h (1 Bft) S 174 ° 0 min 0,000 mm 0,0 UV-I 0 W/m² 9,6 °C 11,7 °C 3,2 km/h (1 Bft)
02.11.2019 17:20 11,6 °C 87 % 997,0 hPa 0,0 mm 2,3 km/h (1 Bft) S 174 ° 0 min 0,000 mm 0,0 UV-I 0 W/m² 9,5 °C 11,6 °C 3,2 km/h (1 Bft)
02.11.2019 17:21 11,6 °C 87 % 997,0 hPa 0,0 mm 2,4 km/h (1 Bft) S 174 ° 0 min 0,000 mm 0,0 UV-I 0 W/m² 9,5 °C 11,6 °C 3,2 km/h (1 Bft)
02.11.2019 17:22 11,6 °C 87 % 997,0 hPa 0,0 mm 1,5 km/h (1 Bft) S 174 ° 0 min 0,000 mm 0,0 UV-I 0 W/m² 9,5 °C 11,6 °C 1,6 km/h (1 Bft)
02.11.2019 17:23 11,5 °C 87 % 997,0 hPa 0,0 mm 0,2 km/h (0 Bft) S 174 ° 0 min 0,000 mm 0,0 UV-I 0 W/m² 9,4 °C 11,5 °C 1,6 km/h (1 Bft)
02.11.2019 17:24 11,4 °C 87 % 997,0 hPa 0,0 mm 0,0 km/h (0 Bft) S 174 ° 0 min 0,000 mm 0,0 UV-I 0 W/m² 9,3 °C 11,4 °C 0,0 km/h (0 Bft)
02.11.2019 17:25 11,4 °C 87 % 997,0 hPa 0,0 mm 0,0 km/h (0 Bft) S 174 ° 0 min 0,000 mm 0,0 UV-I 0 W/m² 9,3 °C 11,4 °C 0,0 km/h (0 Bft)
02.11.2019 17:26 11,4 °C 86 % 997,0 hPa 0,0 mm 0,0 km/h (0 Bft) S 174 ° 0 min 0,000 mm 0,0 UV-I 0 W/m² 9,1 °C 11,4 °C 0,0 km/h (0 Bft)
02.11.2019 17:27 11,3 °C 87 % 997,0 hPa 0,0 mm 0,0 km/h (0 Bft) S 174 ° 0 min 0,000 mm 0,0 UV-I 0 W/m² 9,2 °C 11,3 °C 0,0 km/h (0 Bft)
02.11.2019 17:28 11,3 °C 87 % 997,0 hPa 0,0 mm 0,0 km/h (0 Bft) S 174 ° 0 min 0,000 mm 0,0 UV-I 0 W/m² 9,2 °C 11,3 °C 0,0 km/h (0 Bft)
02.11.2019 17:29 11,3 °C 86 % 997,0 hPa 0,0 mm 0,0 km/h (0 Bft) S 174 ° 0 min 0,000 mm 0,0 UV-I 0 W/m² 9,0 °C 11,3 °C 0,0 km/h (0 Bft)
02.11.2019 17:30 11,2 °C 86 % 997,0 hPa 0,0 mm 0,0 km/h (0 Bft) S 174 ° 0 min 0,000 mm 0,0 UV-I 0 W/m² 8,9 °C 11,2 °C 0,0 km/h (0 Bft)
02.11.2019 17:31 11,2 °C 86 % 997,1 hPa 0,0 mm 0,0 km/h (0 Bft) S 174 ° 0 min 0,000 mm 0,0 UV-I 0 W/m² 8,9 °C 11,2 °C 0,0 km/h (0 Bft)
02.11.2019 17:32 11,2 °C 86 % 997,0 hPa 0,0 mm 0,0 km/h (0 Bft) S 174 ° 0 min 0,000 mm 0,0 UV-I 0 W/m² 8,9 °C 11,2 °C 0,0 km/h (0 Bft)
02.11.2019 17:33 11,1 °C 86 % 997,0 hPa 0,0 mm 0,0 km/h (0 Bft) S 174 ° 0 min 0,000 mm 0,0 UV-I 0 W/m² 8,8 °C 11,1 °C 0,0 km/h (0 Bft)
02.11.2019 17:34 11,1 °C 86 % 997,0 hPa 0,0 mm 0,0 km/h (0 Bft) S 174 ° 0 min 0,000 mm 0,0 UV-I 0 W/m² 8,8 °C 11,1 °C 0,0 km/h (0 Bft)
02.11.2019 17:35 11,0 °C 86 % 997,0 hPa 0,0 mm 0,0 km/h (0 Bft) S 174 ° 0 min 0,000 mm 0,0 UV-I 0 W/m² 8,7 °C 11,0 °C 0,0 km/h (0 Bft)
02.11.2019 17:36 11,0 °C 86 % 997,0 hPa 0,0 mm 0,0 km/h (0 Bft) S 174 ° 0 min 0,000 mm 0,0 UV-I 0 W/m² 8,7 °C 11,0 °C 0,0 km/h (0 Bft)
02.11.2019 17:37 10,9 °C 86 % 997,0 hPa 0,0 mm 1,2 km/h (1 Bft) S 174 ° 0 min 0,000 mm 0,0 UV-I 0 W/m² 8,7 °C 10,9 °C 3,2 km/h (1 Bft)
02.11.2019 17:38 10,9 °C 86 % 997,0 hPa 0,0 mm 1,8 km/h (1 Bft) S 174 ° 0 min 0,000 mm 0,0 UV-I 0 W/m² 8,7 °C 10,9 °C 3,2 km/h (1 Bft)
02.11.2019 17:39 10,8 °C 86 % 997,1 hPa 0,0 mm 1,4 km/h (1 Bft) S 174 ° 0 min 0,000 mm 0,0 UV-I 0 W/m² 8,6 °C 10,8 °C 1,6 km/h (1 Bft)
02.11.2019 17:40 10,8 °C 87 % 997,1 hPa 0,0 mm 1,6 km/h (1 Bft) S 174 ° 0 min 0,000 mm 0,0 UV-I 0 W/m² 8,7 °C 10,8 °C 3,2 km/h (1 Bft)
02.11.2019 17:41 10,7 °C 87 % 997,1 hPa 0,0 mm 1,8 km/h (1 Bft) S 174 ° 0 min 0,000 mm 0,0 UV-I 0 W/m² 8,6 °C 10,7 °C 3,2 km/h (1 Bft)
02.11.2019 17:42 10,7 °C 88 % 997,0 hPa 0,0 mm 3,2 km/h (1 Bft) S 174 ° 0 min 0,000 mm 0,0 UV-I 0 W/m² 8,8 °C 10,7 °C 4,8 km/h (1 Bft)
02.11.2019 17:43 10,7 °C 88 % 997,0 hPa 0,0 mm 0,8 km/h (0 Bft) S 174 ° 0 min 0,000 mm 0,0 UV-I 0 W/m² 8,8 °C 10,7 °C 3,2 km/h (1 Bft)
02.11.2019 17:44 10,6 °C 88 % 997,0 hPa 0,0 mm 0,0 km/h (0 Bft) S 174 ° 0 min 0,000 mm 0,0 UV-I 0 W/m² 8,7 °C 10,6 °C 0,0 km/h (0 Bft)
02.11.2019 17:45 10,6 °C 88 % 997,0 hPa 0,0 mm 0,2 km/h (0 Bft) S 174 ° 0 min 0,000 mm 0,0 UV-I 0 W/m² 8,7 °C 10,6 °C 1,6 km/h (1 Bft)
02.11.2019 17:46 10,6 °C 88 % 997,0 hPa 0,0 mm 2,0 km/h (1 Bft) S 174 ° 0 min 0,000 mm 0,0 UV-I 0 W/m² 8,7 °C 10,6 °C 4,8 km/h (1 Bft)
02.11.2019 17:47 10,5 °C 89 % 997,0 hPa 0,0 mm 2,2 km/h (1 Bft) S 174 ° 0 min 0,000 mm 0,0 UV-I 0 W/m² 8,8 °C 10,5 °C 4,8 km/h (1 Bft)
02.11.2019 17:48 10,5 °C 89 % 997,0 hPa 0,0 mm 5,1 km/h (1 Bft) S 174 ° 0 min 0,000 mm 0,0 UV-I 0 W/m² 8,8 °C 10,5 °C 8,0 km/h (2 Bft)
02.11.2019 17:49 10,4 °C 89 % 997,0 hPa 0,0 mm 4,4 km/h (1 Bft) S 174 ° 0 min 0,000 mm 0,0 UV-I 0 W/m² 8,7 °C 10,4 °C 8,0 km/h (2 Bft)
02.11.2019 17:50 10,4 °C 89 % 996,9 hPa 0,0 mm 3,4 km/h (1 Bft) S 174 ° 0 min 0,000 mm 0,0 UV-I 0 W/m² 8,7 °C 10,4 °C 4,8 km/h (1 Bft)
02.11.2019 17:51 10,4 °C 89 % 996,9 hPa 0,0 mm 1,9 km/h (1 Bft) S 174 ° 0 min 0,000 mm 0,0 UV-I 0 W/m² 8,7 °C 10,4 °C 3,2 km/h (1 Bft)
02.11.2019 17:52 10,3 °C 89 % 996,9 hPa 0,0 mm 2,0 km/h (1 Bft) S 174 ° 0 min 0,000 mm 0,0 UV-I 0 W/m² 8,6 °C 10,3 °C 3,2 km/h (1 Bft)
02.11.2019 17:53 10,3 °C 90 % 997,0 hPa 0,0 mm 0,9 km/h (0 Bft) S 174 ° 0 min 0,000 mm 0,0 UV-I 0 W/m² 8,7 °C 10,3 °C 3,2 km/h (1 Bft)
02.11.2019 17:54 10,3 °C 89 % 997,0 hPa 0,0 mm 0,3 km/h (0 Bft) S 174 ° 0 min 0,000 mm 0,0 UV-I 0 W/m² 8,6 °C 10,3 °C 1,6 km/h (1 Bft)
02.11.2019 17:55 10,3 °C 89 % 997,0 hPa 0,0 mm 0,0 km/h (0 Bft) S 174 ° 0 min 0,000 mm 0,0 UV-I 0 W/m² 8,6 °C 10,3 °C 0,0 km/h (0 Bft)
02.11.2019 17:56 10,2 °C 89 % 997,0 hPa 0,0 mm 0,0 km/h (0 Bft) S 174 ° 0 min 0,000 mm 0,0 UV-I 0 W/m² 8,5 °C 10,2 °C 0,0 km/h (0 Bft)
02.11.2019 17:57 10,2 °C 89 % 997,0 hPa 0,0 mm 0,0 km/h (0 Bft) S 174 ° 0 min 0,000 mm 0,0 UV-I 0 W/m² 8,5 °C 10,2 °C 0,0 km/h (0 Bft)
02.11.2019 17:58 10,2 °C 89 % 997,0 hPa 0,0 mm 0,1 km/h (0 Bft) S 174 ° 0 min 0,000 mm 0,0 UV-I 0 W/m² 8,5 °C 10,2 °C 1,6 km/h (1 Bft)
02.11.2019 17:59 10,1 °C 89 % 997,0 hPa 0,0 mm 1,1 km/h (1 Bft) S 174 ° 0 min 0,000 mm 0,0 UV-I 0 W/m² 8,4 °C 10,1 °C 3,2 km/h (1 Bft)
02.11.2019 18:00 10,1 °C 90 % 997,0 hPa 0,0 mm 2,2 km/h (1 Bft) S 174 ° 0 min 0,000 mm 0,0 UV-I 0 W/m² 8,5 °C 10,1 °C 3,2 km/h (1 Bft)
02.11.2019 18:01 10,1 °C 90 % 997,0 hPa 0,0 mm 2,8 km/h (1 Bft) S 174 ° 0 min 0,000 mm 0,0 UV-I 0 W/m² 8,5 °C 10,1 °C 3,2 km/h (1 Bft)
02.11.2019 18:02 10,0 °C 90 % 997,0 hPa 0,0 mm 2,5 km/h (1 Bft) S 174 ° 0 min 0,000 mm 0,0 UV-I 0 W/m² 8,4 °C 10,0 °C 3,2 km/h (1 Bft)
02.11.2019 18:03 10,0 °C 90 % 997,1 hPa 0,0 mm 0,3 km/h (0 Bft) S 174 ° 0 min 0,000 mm 0,0 UV-I 0 W/m² 8,4 °C 10,0 °C 1,6 km/h (1 Bft)
02.11.2019 18:04 10,0 °C 90 % 997,0 hPa 0,0 mm 1,1 km/h (1 Bft) S 174 ° 0 min 0,000 mm 0,0 UV-I 0 W/m² 8,4 °C 10,0 °C 3,2 km/h (1 Bft)
02.11.2019 18:05 9,9 °C 90 % 997,1 hPa 0,0 mm 0,3 km/h (0 Bft) S 174 ° 0 min 0,000 mm 0,0 UV-I 0 W/m² 8,3 °C 9,9 °C 1,6 km/h (1 Bft)
02.11.2019 18:06 9,9 °C 90 % 997,2 hPa 0,0 mm 0,0 km/h (0 Bft) S 174 ° 0 min 0,000 mm 0,0 UV-I 0 W/m² 8,3 °C 9,9 °C 0,0 km/h (0 Bft)
02.11.2019 18:07 9,9 °C 90 % 997,2 hPa 0,0 mm 0,0 km/h (0 Bft) S 174 ° 0 min 0,000 mm 0,0 UV-I 0 W/m² 8,3 °C 9,9 °C 0,0 km/h (0 Bft)
02.11.2019 18:08 9,8 °C 90 % 997,2 hPa 0,0 mm 0,0 km/h (0 Bft) S 174 ° 0 min 0,000 mm 0,0 UV-I 0 W/m² 8,2 °C 9,8 °C 0,0 km/h (0 Bft)
02.11.2019 18:09 9,8 °C 90 % 997,2 hPa 0,0 mm 0,0 km/h (0 Bft) S 174 ° 0 min 0,000 mm 0,0 UV-I 0 W/m² 8,2 °C 9,8 °C 0,0 km/h (0 Bft)
02.11.2019 18:10 9,7 °C 90 % 997,2 hPa 0,0 mm 0,0 km/h (0 Bft) S 174 ° 0 min 0,000 mm 0,0 UV-I 0 W/m² 8,1 °C 9,7 °C 0,0 km/h (0 Bft)
02.11.2019 18:11 9,7 °C 90 % 997,2 hPa 0,0 mm 0,0 km/h (0 Bft) S 174 ° 0 min 0,000 mm 0,0 UV-I 0 W/m² 8,1 °C 9,7 °C 0,0 km/h (0 Bft)
02.11.2019 18:12 9,7 °C 90 % 997,2 hPa 0,0 mm 0,0 km/h (0 Bft) S 174 ° 0 min 0,000 mm 0,0 UV-I 0 W/m² 8,1 °C 9,7 °C 0,0 km/h (0 Bft)
02.11.2019 18:13 9,7 °C 90 % 997,2 hPa 0,0 mm 0,0 km/h (0 Bft) S 174 ° 0 min 0,000 mm 0,0 UV-I 0 W/m² 8,1 °C 9,7 °C 0,0 km/h (0 Bft)
02.11.2019 18:14 9,7 °C 90 % 997,2 hPa 0,0 mm 0,0 km/h (0 Bft) S 174 ° 0 min 0,000 mm 0,0 UV-I 0 W/m² 8,1 °C 9,7 °C 0,0 km/h (0 Bft)
02.11.2019 18:15 9,7 °C 90 % 997,2 hPa 0,0 mm 0,0 km/h (0 Bft) S 174 ° 0 min 0,000 mm 0,0 UV-I 0 W/m² 8,1 °C 9,7 °C 0,0 km/h (0 Bft)
02.11.2019 18:16 9,6 °C 90 % 997,2 hPa 0,0 mm 0,0 km/h (0 Bft) S 174 ° 0 min 0,000 mm 0,0 UV-I 0 W/m² 8,0 °C 9,6 °C 0,0 km/h (0 Bft)
02.11.2019 18:17 9,6 °C 90 % 997,2 hPa 0,0 mm 0,0 km/h (0 Bft) S 174 ° 0 min 0,000 mm 0,0 UV-I 0 W/m² 8,0 °C 9,6 °C 0,0 km/h (0 Bft)
02.11.2019 18:18 9,6 °C 90 % 997,3 hPa 0,0 mm 0,0 km/h (0 Bft) S 174 ° 0 min 0,000 mm 0,0 UV-I 0 W/m² 8,0 °C 9,6 °C 0,0 km/h (0 Bft)
02.11.2019 18:19 9,5 °C 90 % 997,3 hPa 0,0 mm 0,0 km/h (0 Bft) S 174 ° 0 min 0,000 mm 0,0 UV-I 0 W/m² 7,9 °C 9,5 °C 0,0 km/h (0 Bft)
02.11.2019 18:20 9,4 °C 90 % 997,3 hPa 0,0 mm 0,0 km/h (0 Bft) S 174 ° 0 min 0,000 mm 0,0 UV-I 0 W/m² 7,8 °C 9,4 °C 0,0 km/h (0 Bft)
02.11.2019 18:21 9,4 °C 90 % 997,3 hPa 0,0 mm 0,0 km/h (0 Bft) S 174 ° 0 min 0,000 mm 0,0 UV-I 0 W/m² 7,8 °C 9,4 °C 0,0 km/h (0 Bft)
02.11.2019 18:22 9,4 °C 90 % 997,4 hPa 0,0 mm 0,0 km/h (0 Bft) S 174 ° 0 min 0,000 mm 0,0 UV-I 0 W/m² 7,8 °C 9,4 °C 0,0 km/h (0 Bft)
02.11.2019 18:23 9,4 °C 90 % 997,4 hPa 0,0 mm 0,0 km/h (0 Bft) S 174 ° 0 min 0,000 mm 0,0 UV-I 0 W/m² 7,8 °C 9,4 °C 0,0 km/h (0 Bft)
02.11.2019 18:24 9,3 °C 90 % 997,4 hPa 0,0 mm 0,4 km/h (0 Bft) S 174 ° 0 min 0,000 mm 0,0 UV-I 0 W/m² 7,7 °C 9,3 °C 3,2 km/h (1 Bft)
02.11.2019 18:25 9,3 °C 91 % 997,4 hPa 0,0 mm 4,1 km/h (1 Bft) S 174 ° 0 min 0,000 mm 0,0 UV-I 0 W/m² 7,9 °C 9,3 °C 8,0 km/h (2 Bft)
02.11.2019 18:26 9,3 °C 91 % 997,5 hPa 0,0 mm 6,2 km/h (2 Bft) S-SW 205 ° 0 min 0,000 mm 0,0 UV-I 0 W/m² 7,9 °C 8,6 °C 8,0 km/h (2 Bft)
02.11.2019 18:27 9,3 °C 91 % 997,5 hPa 0,0 mm 6,6 km/h (2 Bft) S-SW 192 ° 0 min 0,000 mm 0,0 UV-I 0 W/m² 7,9 °C 8,5 °C 8,0 km/h (2 Bft)
02.11.2019 18:28 9,3 °C 92 % 997,5 hPa 0,0 mm 4,3 km/h (1 Bft) S-SW 192 ° 0 min 0,000 mm 0,0 UV-I 0 W/m² 8,1 °C 9,3 °C 6,4 km/h (2 Bft)
02.11.2019 18:29 9,3 °C 92 % 997,5 hPa 0,0 mm 5,2 km/h (1 Bft) S-SW 200 ° 0 min 0,000 mm 0,0 UV-I 0 W/m² 8,1 °C 8,9 °C 6,4 km/h (2 Bft)
02.11.2019 18:30 9,3 °C 92 % 997,5 hPa 0,0 mm 4,6 km/h (1 Bft) S-SW 200 ° 0 min 0,000 mm 0,0 UV-I 0 W/m² 8,1 °C 9,1 °C 4,8 km/h (1 Bft)
02.11.2019 18:31 9,3 °C 92 % 997,5 hPa 0,0 mm 3,7 km/h (1 Bft) S-SW 200 ° 0 min 0,000 mm 0,0 UV-I 0 W/m² 8,1 °C 9,3 °C 4,8 km/h (1 Bft)
02.11.2019 18:32 9,3 °C 92 % 997,5 hPa 0,0 mm 3,0 km/h (1 Bft) S-SW 200 ° 0 min 0,000 mm 0,0 UV-I 0 W/m² 8,1 °C 9,3 °C 4,8 km/h (1 Bft)
02.11.2019 18:33 9,3 °C 92 % 997,4 hPa 0,0 mm 2,7 km/h (1 Bft) S-SW 200 ° 0 min 0,000 mm 0,0 UV-I 0 W/m² 8,1 °C 9,3 °C 3,2 km/h (1 Bft)
02.11.2019 18:34 9,3 °C 92 % 997,4 hPa 0,0 mm 3,6 km/h (1 Bft) S-SW 200 ° 0 min 0,000 mm 0,0 UV-I 0 W/m² 8,1 °C 9,3 °C 4,8 km/h (1 Bft)
02.11.2019 18:35 9,4 °C 92 % 997,4 hPa 0,0 mm 3,0 km/h (1 Bft) S-SW 200 ° 0 min 0,000 mm 0,0 UV-I 0 W/m² 8,2 °C 9,4 °C 4,8 km/h (1 Bft)
02.11.2019 18:36 9,4 °C 92 % 997,4 hPa 0,0 mm 3,0 km/h (1 Bft) S-SW 200 ° 0 min 0,000 mm 0,0 UV-I 0 W/m² 8,2 °C 9,4 °C 3,2 km/h (1 Bft)
02.11.2019 18:37 9,4 °C 92 % 997,3 hPa 0,0 mm 3,4 km/h (1 Bft) S-SW 200 ° 0 min 0,000 mm 0,0 UV-I 0 W/m² 8,2 °C 9,4 °C 4,8 km/h (1 Bft)
02.11.2019 18:38 9,4 °C 92 % 997,2 hPa 0,0 mm 4,3 km/h (1 Bft) S-SW 199 ° 0 min 0,000 mm 0,0 UV-I 0 W/m² 8,2 °C 9,4 °C 4,8 km/h (1 Bft)
02.11.2019 18:39 9,4 °C 92 % 997,3 hPa 0,0 mm 1,9 km/h (1 Bft) S-SW 199 ° 0 min 0,000 mm 0,0 UV-I 0 W/m² 8,2 °C 9,4 °C 4,8 km/h (1 Bft)
02.11.2019 18:40 9,4 °C 93 % 997,2 hPa 0,0 mm 0,5 km/h (0 Bft) S-SW 199 ° 0 min 0,000 mm 0,0 UV-I 0 W/m² 8,3 °C 9,4 °C 1,6 km/h (1 Bft)
02.11.2019 18:41 9,4 °C 93 % 997,1 hPa 0,0 mm 2,4 km/h (1 Bft) S-SW 200 ° 0 min 0,000 mm 0,0 UV-I 0 W/m² 8,3 °C 9,4 °C 4,8 km/h (1 Bft)
02.11.2019 18:42 9,4 °C 93 % 997,1 hPa 0,0 mm 3,0 km/h (1 Bft) S-SW 199 ° 0 min 0,000 mm 0,0 UV-I 0 W/m² 8,3 °C 9,4 °C 4,8 km/h (1 Bft)
02.11.2019 18:43 9,5 °C 93 % 997,2 hPa 0,0 mm 3,7 km/h (1 Bft) S-SW 199 ° 0 min 0,000 mm 0,0 UV-I 0 W/m² 8,4 °C 9,5 °C 4,8 km/h (1 Bft)
02.11.2019 18:44 9,5 °C 93 % 997,2 hPa 0,0 mm 4,1 km/h (1 Bft) S-SW 199 ° 0 min 0,000 mm 0,0 UV-I 0 W/m² 8,4 °C 9,5 °C 4,8 km/h (1 Bft)
02.11.2019 18:45 9,5 °C 93 % 997,2 hPa 0,0 mm 3,8 km/h (1 Bft) S-SW 199 ° 0 min 0,000 mm 0,0 UV-I 0 W/m² 8,4 °C 9,5 °C 4,8 km/h (1 Bft)
02.11.2019 18:46 9,5 °C 93 % 997,2 hPa 0,0 mm 3,8 km/h (1 Bft) S-SW 199 ° 0 min 0,000 mm 0,0 UV-I 0 W/m² 8,4 °C 9,5 °C 6,4 km/h (2 Bft)
02.11.2019 18:47 9,4 °C 93 % 997,2 hPa 0,0 mm 3,0 km/h (1 Bft) S-SW 199 ° 0 min 0,000 mm 0,0 UV-I 0 W/m² 8,3 °C 9,4 °C 4,8 km/h (1 Bft)
02.11.2019 18:48 9,4 °C 93 % 997,2 hPa 0,0 mm 3,3 km/h (1 Bft) S-SW 199 ° 0 min 0,000 mm 0,0 UV-I 0 W/m² 8,3 °C 9,4 °C 4,8 km/h (1 Bft)
02.11.2019 18:49 9,4 °C 93 % 997,2 hPa 0,0 mm 2,7 km/h (1 Bft) S-SW 199 ° 0 min 0,000 mm 0,0 UV-I 0 W/m² 8,3 °C 9,4 °C 3,2 km/h (1 Bft)
02.11.2019 18:50 9,4 °C 93 % 997,2 hPa 0,0 mm 2,4 km/h (1 Bft) S-SW 199 ° 0 min 0,000 mm 0,0 UV-I 0 W/m² 8,3 °C 9,4 °C 4,8 km/h (1 Bft)
02.11.2019 18:51 9,4 °C 93 % 997,1 hPa 0,2 mm 3,2 km/h (1 Bft) S-SW 199 ° 0 min 0,000 mm 0,0 UV-I 0 W/m² 8,3 °C 9,4 °C 4,8 km/h (1 Bft)
02.11.2019 18:52 9,4 °C 93 % 997,1 hPa 0,0 mm 4,0 km/h (1 Bft) S-SW 199 ° 0 min 0,000 mm 0,0 UV-I 0 W/m² 8,3 °C 9,4 °C 4,8 km/h (1 Bft)
02.11.2019 18:53 9,4 °C 93 % 997,0 hPa 0,0 mm 5,1 km/h (1 Bft) S-SW 199 ° 0 min 0,000 mm 0,0 UV-I 0 W/m² 8,3 °C 9,0 °C 6,4 km/h (2 Bft)
02.11.2019 18:54 9,4 °C 93 % 997,0 hPa 0,0 mm 3,6 km/h (1 Bft) S-SW 199 ° 0 min 0,000 mm 0,0 UV-I 0 W/m² 8,3 °C 9,4 °C 4,8 km/h (1 Bft)
02.11.2019 18:55 9,3 °C 93 % 997,0 hPa 0,0 mm 0,9 km/h (0 Bft) S-SW 199 ° 0 min 0,000 mm 0,0 UV-I 0 W/m² 8,2 °C 9,3 °C 1,6 km/h (1 Bft)
02.11.2019 18:56 9,3 °C 93 % 997,0 hPa 0,0 mm 1,2 km/h (1 Bft) S-SW 199 ° 0 min 0,000 mm 0,0 UV-I 0 W/m² 8,2 °C 9,3 °C 4,8 km/h (1 Bft)
02.11.2019 18:57 9,3 °C 93 % 997,0 hPa 0,0 mm 1,2 km/h (1 Bft) S-SW 199 ° 0 min 0,000 mm 0,0 UV-I 0 W/m² 8,2 °C 9,3 °C 4,8 km/h (1 Bft)
02.11.2019 18:58 9,3 °C 93 % 997,0 hPa 0,0 mm 0,4 km/h (0 Bft) S-SW 199 ° 0 min 0,000 mm 0,0 UV-I 0 W/m² 8,2 °C 9,3 °C 1,6 km/h (1 Bft)
02.11.2019 18:59 9,3 °C 93 % 997,0 hPa 0,0 mm 0,0 km/h (0 Bft) S-SW 199 ° 0 min 0,000 mm 0,0 UV-I 0 W/m² 8,2 °C 9,3 °C 0,0 km/h (0 Bft)
02.11.2019 19:00 9,3 °C 93 % 997,0 hPa 0,0 mm 0,0 km/h (0 Bft) S-SW 199 ° 0 min 0,000 mm 0,0 UV-I 0 W/m² 8,2 °C 9,3 °C 0,0 km/h (0 Bft)
02.11.2019 19:01 9,3 °C 93 % 997,0 hPa 0,0 mm 0,0 km/h (0 Bft) S-SW 199 ° 0 min 0,000 mm 0,0 UV-I 0 W/m² 8,2 °C 9,3 °C 0,0 km/h (0 Bft)
02.11.2019 19:02 9,3 °C 93 % 996,9 hPa 0,0 mm 0,0 km/h (0 Bft) S-SW 199 ° 0 min 0,000 mm 0,0 UV-I 0 W/m² 8,2 °C 9,3 °C 0,0 km/h (0 Bft)
02.11.2019 19:03 9,2 °C 93 % 996,9 hPa 0,0 mm 0,0 km/h (0 Bft) S-SW 199 ° 0 min 0,000 mm 0,0 UV-I 0 W/m² 8,1 °C 9,2 °C 0,0 km/h (0 Bft)
02.11.2019 19:04 9,2 °C 93 % 996,9 hPa 0,0 mm 0,0 km/h (0 Bft) S-SW 199 ° 0 min 0,000 mm 0,0 UV-I 0 W/m² 8,1 °C 9,2 °C 0,0 km/h (0 Bft)
02.11.2019 19:05 9,2 °C 93 % 996,9 hPa 0,0 mm 2,8 km/h (1 Bft) S-SW 199 ° 0 min 0,000 mm 0,0 UV-I 0 W/m² 8,1 °C 9,2 °C 4,8 km/h (1 Bft)
02.11.2019 19:06 9,2 °C 93 % 996,9 hPa 0,0 mm 4,4 km/h (1 Bft) S-SW 199 ° 0 min 0,000 mm 0,0 UV-I 0 W/m² 8,1 °C 9,2 °C 6,4 km/h (2 Bft)
02.11.2019 19:07 9,2 °C 93 % 996,9 hPa 0,0 mm 2,7 km/h (1 Bft) S-SW 199 ° 0 min 0,000 mm 0,0 UV-I 0 W/m² 8,1 °C 9,2 °C 4,8 km/h (1 Bft)
02.11.2019 19:08 9,2 °C 93 % 996,9 hPa 0,0 mm 3,2 km/h (1 Bft) S-SW 199 ° 0 min 0,000 mm 0,0 UV-I 0 W/m² 8,1 °C 9,2 °C 4,8 km/h (1 Bft)
02.11.2019 19:09 9,1 °C 93 % 996,9 hPa 0,0 mm 3,7 km/h (1 Bft) S-SW 199 ° 0 min 0,000 mm 0,0 UV-I 0 W/m² 8,0 °C 9,1 °C 4,8 km/h (1 Bft)
02.11.2019 19:10 9,1 °C 93 % 996,9 hPa 0,0 mm 3,3 km/h (1 Bft) S-SW 199 ° 0 min 0,000 mm 0,0 UV-I 0 W/m² 8,0 °C 9,1 °C 4,8 km/h (1 Bft)
02.11.2019 19:11 9,1 °C 93 % 996,9 hPa 0,0 mm 3,1 km/h (1 Bft) S-SW 199 ° 0 min 0,000 mm 0,0 UV-I 0 W/m² 8,0 °C 9,1 °C 4,8 km/h (1 Bft)
02.11.2019 19:12 9,1 °C 93 % 996,9 hPa 0,0 mm 3,2 km/h (1 Bft) S-SW 199 ° 0 min 0,000 mm 0,0 UV-I 0 W/m² 8,0 °C 9,1 °C 4,8 km/h (1 Bft)
02.11.2019 19:13 9,1 °C 93 % 996,9 hPa 0,0 mm 2,3 km/h (1 Bft) S-SW 199 ° 0 min 0,000 mm 0,0 UV-I 0 W/m² 8,0 °C 9,1 °C 3,2 km/h (1 Bft)
02.11.2019 19:14 9,1 °C 93 % 996,9 hPa 0,0 mm 2,3 km/h (1 Bft) S-SW 199 ° 0 min 0,000 mm 0,0 UV-I 0 W/m² 8,0 °C 9,1 °C 3,2 km/h (1 Bft)
02.11.2019 19:15 9,0 °C 93 % 996,8 hPa 0,0 mm 3,0 km/h (1 Bft) S-SW 199 ° 0 min 0,000 mm 0,0 UV-I 0 W/m² 7,9 °C 9,0 °C 4,8 km/h (1 Bft)
02.11.2019 19:16 9,0 °C 93 % 996,9 hPa 0,0 mm 2,5 km/h (1 Bft) S-SW 199 ° 0 min 0,000 mm 0,0 UV-I 0 W/m² 7,9 °C 9,0 °C 4,8 km/h (1 Bft)
02.11.2019 19:17 9,0 °C 93 % 996,9 hPa 0,0 mm 0,9 km/h (0 Bft) S-SW 199 ° 0 min 0,000 mm 0,0 UV-I 0 W/m² 7,9 °C 9,0 °C 3,2 km/h (1 Bft)
02.11.2019 19:18 8,9 °C 93 % 996,8 hPa 0,0 mm 0,0 km/h (0 Bft) S-SW 199 ° 0 min 0,000 mm 0,0 UV-I 0 W/m² 7,8 °C 8,9 °C 0,0 km/h (0 Bft)
02.11.2019 19:19 9,0 °C 93 % 996,8 hPa 0,0 mm 0,0 km/h (0 Bft) S-SW 199 ° 0 min 0,000 mm 0,0 UV-I 0 W/m² 7,9 °C 9,0 °C 0,0 km/h (0 Bft)
02.11.2019 19:20 8,9 °C 93 % 996,8 hPa 0,0 mm 0,0 km/h (0 Bft) S-SW 199 ° 0 min 0,000 mm 0,0 UV-I 0 W/m² 7,8 °C 8,9 °C 0,0 km/h (0 Bft)
02.11.2019 19:21 9,0 °C 93 % 996,8 hPa 0,0 mm 0,0 km/h (0 Bft) S-SW 199 ° 0 min 0,000 mm 0,0 UV-I 0 W/m² 7,9 °C 9,0 °C 0,0 km/h (0 Bft)
02.11.2019 19:22 8,9 °C 93 % 996,8 hPa 0,0 mm 0,0 km/h (0 Bft) S-SW 199 ° 0 min 0,000 mm 0,0 UV-I 0 W/m² 7,8 °C 8,9 °C 0,0 km/h (0 Bft)
02.11.2019 19:23 8,9 °C 93 % 996,8 hPa 0,0 mm 0,8 km/h (0 Bft) S-SW 199 ° 0 min 0,000 mm 0,0 UV-I 0 W/m² 7,8 °C 8,9 °C 3,2 km/h (1 Bft)
02.11.2019 19:24 8,9 °C 93 % 996,8 hPa 0,0 mm 1,4 km/h (1 Bft) S-SW 199 ° 0 min 0,000 mm 0,0 UV-I 0 W/m² 7,8 °C 8,9 °C 1,6 km/h (1 Bft)
02.11.2019 19:25 8,9 °C 93 % 996,7 hPa 0,0 mm 2,5 km/h (1 Bft) S-SW 199 ° 0 min 0,000 mm 0,0 UV-I 0 W/m² 7,8 °C 8,9 °C 4,8 km/h (1 Bft)
02.11.2019 19:26 8,9 °C 93 % 996,7 hPa 0,0 mm 2,9 km/h (1 Bft) S-SW 199 ° 0 min 0,000 mm 0,0 UV-I 0 W/m² 7,8 °C 8,9 °C 4,8 km/h (1 Bft)
02.11.2019 19:27 8,8 °C 93 % 996,7 hPa 0,0 mm 3,5 km/h (1 Bft) S-SW 199 ° 0 min 0,000 mm 0,0 UV-I 0 W/m² 7,7 °C 8,8 °C 4,8 km/h (1 Bft)
02.11.2019 19:28 8,8 °C 93 % 996,7 hPa 0,0 mm 3,8 km/h (1 Bft) S 172 ° 0 min 0,000 mm 0,0 UV-I 0 W/m² 7,7 °C 8,8 °C 6,4 km/h (2 Bft)
02.11.2019 19:29 8,8 °C 93 % 996,7 hPa 0,0 mm 0,9 km/h (0 Bft) S 172 ° 0 min 0,000 mm 0,0 UV-I 0 W/m² 7,7 °C 8,8 °C 3,2 km/h (1 Bft)
02.11.2019 19:30 8,8 °C 93 % 996,7 hPa 0,0 mm 0,0 km/h (0 Bft) S 172 ° 0 min 0,000 mm 0,0 UV-I 0 W/m² 7,7 °C 8,8 °C 0,0 km/h (0 Bft)
02.11.2019 19:31 8,8 °C 93 % 996,7 hPa 0,0 mm 0,0 km/h (0 Bft) S 172 ° 0 min 0,000 mm 0,0 UV-I 0 W/m² 7,7 °C 8,8 °C 0,0 km/h (0 Bft)
02.11.2019 19:32 8,8 °C 93 % 996,6 hPa 0,0 mm 0,7 km/h (0 Bft) S 172 ° 0 min 0,000 mm 0,0 UV-I 0 W/m² 7,7 °C 8,8 °C 3,2 km/h (1 Bft)
02.11.2019 19:33 8,8 °C 93 % 996,6 hPa 0,0 mm 2,5 km/h (1 Bft) S 172 ° 0 min 0,000 mm 0,0 UV-I 0 W/m² 7,7 °C 8,8 °C 3,2 km/h (1 Bft)
02.11.2019 19:34 8,7 °C 93 % 996,6 hPa 0,0 mm 1,2 km/h (1 Bft) S 172 ° 0 min 0,000 mm 0,0 UV-I 0 W/m² 7,6 °C 8,7 °C 3,2 km/h (1 Bft)
02.11.2019 19:35 8,7 °C 93 % 996,6 hPa 0,0 mm 0,0 km/h (0 Bft) S 172 ° 0 min 0,000 mm 0,0 UV-I 0 W/m² 7,6 °C 8,7 °C 0,0 km/h (0 Bft)
02.11.2019 19:36 8,7 °C 93 % 996,6 hPa 0,0 mm 0,0 km/h (0 Bft) S 172 ° 0 min 0,000 mm 0,0 UV-I 0 W/m² 7,6 °C 8,7 °C 0,0 km/h (0 Bft)
02.11.2019 19:37 8,7 °C 93 % 996,7 hPa 0,0 mm 0,0 km/h (0 Bft) S 172 ° 0 min 0,000 mm 0,0 UV-I 0 W/m² 7,6 °C 8,7 °C 0,0 km/h (0 Bft)
02.11.2019 19:38 8,7 °C 93 % 996,7 hPa 0,0 mm 0,0 km/h (0 Bft) S 172 ° 0 min 0,000 mm 0,0 UV-I 0 W/m² 7,6 °C 8,7 °C 0,0 km/h (0 Bft)
02.11.2019 19:39 8,6 °C 93 % 996,7 hPa 0,0 mm 0,0 km/h (0 Bft) S 172 ° 0 min 0,000 mm 0,0 UV-I 0 W/m² 7,5 °C 8,6 °C 0,0 km/h (0 Bft)
02.11.2019 19:40 8,6 °C 93 % 996,6 hPa 0,0 mm 0,4 km/h (0 Bft) S 172 ° 0 min 0,000 mm 0,0 UV-I 0 W/m² 7,5 °C 8,6 °C 1,6 km/h (1 Bft)
02.11.2019 19:41 8,6 °C 93 % 996,7 hPa 0,0 mm 0,6 km/h (0 Bft) S 172 ° 0 min 0,000 mm 0,0 UV-I 0 W/m² 7,5 °C 8,6 °C 1,6 km/h (1 Bft)
02.11.2019 19:42 8,6 °C 93 % 996,7 hPa 0,0 mm 0,0 km/h (0 Bft) S 172 ° 0 min 0,000 mm 0,0 UV-I 0 W/m² 7,5 °C 8,6 °C 0,0 km/h (0 Bft)
02.11.2019 19:43 8,6 °C 93 % 996,7 hPa 0,0 mm 0,0 km/h (0 Bft) S 172 ° 0 min 0,000 mm 0,0 UV-I 0 W/m² 7,5 °C 8,6 °C 0,0 km/h (0 Bft)
02.11.2019 19:44 8,6 °C 93 % 996,6 hPa 0,0 mm 1,0 km/h (0 Bft) S 172 ° 0 min 0,000 mm 0,0 UV-I 0 W/m² 7,5 °C 8,6 °C 4,8 km/h (1 Bft)
02.11.2019 19:45 8,5 °C 93 % 996,6 hPa 0,0 mm 2,8 km/h (1 Bft) S 172 ° 0 min 0,000 mm 0,0 UV-I 0 W/m² 7,4 °C 8,5 °C 4,8 km/h (1 Bft)
02.11.2019 19:46 8,5 °C 93 % 996,6 hPa 0,0 mm 1,4 km/h (1 Bft) S 172 ° 0 min 0,000 mm 0,0 UV-I 0 W/m² 7,4 °C 8,5 °C 3,2 km/h (1 Bft)
02.11.2019 19:47 8,4 °C 93 % 996,6 hPa 0,0 mm 2,4 km/h (1 Bft) S 172 ° 0 min 0,000 mm 0,0 UV-I 0 W/m² 7,3 °C 8,4 °C 3,2 km/h (1 Bft)
02.11.2019 19:48 8,4 °C 93 % 996,6 hPa 0,0 mm 2,2 km/h (1 Bft) S 172 ° 0 min 0,000 mm 0,0 UV-I 0 W/m² 7,3 °C 8,4 °C 3,2 km/h (1 Bft)
02.11.2019 19:49 8,5 °C 93 % 996,7 hPa 0,0 mm 1,7 km/h (1 Bft) S 172 ° 0 min 0,000 mm 0,0 UV-I 0 W/m² 7,4 °C 8,5 °C 3,2 km/h (1 Bft)
02.11.2019 19:50 8,4 °C 93 % 996,7 hPa 0,0 mm 2,5 km/h (1 Bft) S 172 ° 0 min 0,000 mm 0,0 UV-I 0 W/m² 7,3 °C 8,4 °C 3,2 km/h (1 Bft)
02.11.2019 19:51 8,4 °C 93 % 996,7 hPa 0,0 mm 0,9 km/h (0 Bft) S 172 ° 0 min 0,000 mm 0,0 UV-I 0 W/m² 7,3 °C 8,4 °C 1,6 km/h (1 Bft)
02.11.2019 19:52 8,4 °C 93 % 996,7 hPa 0,0 mm 3,2 km/h (1 Bft) S 172 ° 0 min 0,000 mm 0,0 UV-I 0 W/m² 7,3 °C 8,4 °C 4,8 km/h (1 Bft)
02.11.2019 19:53 8,4 °C 93 % 996,7 hPa 0,0 mm 2,1 km/h (1 Bft) S 172 ° 0 min 0,000 mm 0,0 UV-I 0 W/m² 7,3 °C 8,4 °C 4,8 km/h (1 Bft)
02.11.2019 19:54 8,4 °C 93 % 996,8 hPa 0,0 mm 0,1 km/h (0 Bft) S 172 ° 0 min 0,000 mm 0,0 UV-I 0 W/m² 7,3 °C 8,4 °C 1,6 km/h (1 Bft)
02.11.2019 19:55 8,3 °C 93 % 996,9 hPa 0,0 mm 2,7 km/h (1 Bft) S 175 ° 0 min 0,000 mm 0,0 UV-I 0 W/m² 7,2 °C 8,3 °C 4,8 km/h (1 Bft)
02.11.2019 19:56 8,3 °C 93 % 996,9 hPa 0,0 mm 3,8 km/h (1 Bft) SW 227 ° 0 min 0,000 mm 0,0 UV-I 0 W/m² 7,2 °C 8,3 °C 6,4 km/h (2 Bft)
02.11.2019 19:57 8,3 °C 93 % 997,0 hPa 0,0 mm 4,4 km/h (1 Bft) SW 227 ° 0 min 0,000 mm 0,0 UV-I 0 W/m² 7,2 °C 8,3 °C 6,4 km/h (2 Bft)
02.11.2019 19:58 8,3 °C 93 % 997,1 hPa 0,0 mm 4,3 km/h (1 Bft) S 190 ° 0 min 0,000 mm 0,0 UV-I 0 W/m² 7,2 °C 8,3 °C 6,4 km/h (2 Bft)
02.11.2019 19:59 8,3 °C 93 % 997,1 hPa 0,0 mm 8,6 km/h (2 Bft) S 182 ° 0 min 0,000 mm 0,0 UV-I 0 W/m² 7,2 °C 6,9 °C 14,5 km/h (3 Bft)
02.11.2019 20:00 8,3 °C 93 % 997,2 hPa 0,0 mm 14,1 km/h (3 Bft) S 191 ° 0 min 0,000 mm 0,0 UV-I 0 W/m² 7,2 °C 5,9 °C 16,1 km/h (3 Bft)
02.11.2019 20:01 8,4 °C 93 % 997,1 hPa 0,0 mm 9,9 km/h (2 Bft) S 186 ° 0 min 0,000 mm 0,0 UV-I 0 W/m² 7,3 °C 6,7 °C 14,5 km/h (3 Bft)
02.11.2019 20:02 8,4 °C 94 % 997,1 hPa 0,0 mm 7,9 km/h (2 Bft) S-SO 165 ° 0 min 0,000 mm 0,0 UV-I 0 W/m² 7,5 °C 7,2 °C 11,3 km/h (2 Bft)
02.11.2019 20:03 8,4 °C 94 % 997,1 hPa 0,0 mm 5,4 km/h (1 Bft) S-SO 165 ° 0 min 0,000 mm 0,0 UV-I 0 W/m² 7,5 °C 7,8 °C 6,4 km/h (2 Bft)
02.11.2019 20:04 8,4 °C 94 % 997,1 hPa 0,0 mm 6,0 km/h (2 Bft) S-SO 167 ° 0 min 0,000 mm 0,0 UV-I 0 W/m² 7,5 °C 7,6 °C 8,0 km/h (2 Bft)
02.11.2019 20:05 8,4 °C 94 % 997,1 hPa 0,0 mm 7,4 km/h (2 Bft) S-SO 154 ° 0 min 0,000 mm 0,0 UV-I 0 W/m² 7,5 °C 7,3 °C 8,0 km/h (2 Bft)
02.11.2019 20:06 8,4 °C 94 % 997,1 hPa 0,0 mm 4,7 km/h (1 Bft) S-SO 158 ° 0 min 0,000 mm 0,0 UV-I 0 W/m² 7,5 °C 8,0 °C 4,8 km/h (1 Bft)
02.11.2019 20:07 8,4 °C 94 % 997,0 hPa 0,0 mm 5,1 km/h (1 Bft) S-SO 158 ° 0 min 0,000 mm 0,0 UV-I 0 W/m² 7,5 °C 7,9 °C 8,0 km/h (2 Bft)
02.11.2019 20:08 8,5 °C 94 % 997,1 hPa 0,0 mm 4,8 km/h (1 Bft) S-SO 158 ° 0 min 0,000 mm 0,0 UV-I 0 W/m² 7,6 °C 8,1 °C 4,8 km/h (1 Bft)
02.11.2019 20:09 8,4 °C 94 % 997,1 hPa 0,0 mm 5,8 km/h (2 Bft) S-SO 158 ° 0 min 0,000 mm 0,0 UV-I 0 W/m² 7,5 °C 7,7 °C 8,0 km/h (2 Bft)
02.11.2019 20:10 8,5 °C 94 % 997,1 hPa 0,0 mm 6,4 km/h (2 Bft) S-SO 158 ° 0 min 0,000 mm 0,0 UV-I 0 W/m² 7,6 °C 7,6 °C 8,0 km/h (2 Bft)
02.11.2019 20:11 8,4 °C 94 % 997,0 hPa 0,0 mm 8,3 km/h (2 Bft) S 171 ° 0 min 0,000 mm 0,0 UV-I 0 W/m² 7,5 °C 7,1 °C 9,7 km/h (2 Bft)
02.11.2019 20:12 8,4 °C 94 % 997,0 hPa 0,0 mm 6,1 km/h (2 Bft) S 171 ° 0 min 0,000 mm 0,0 UV-I 0 W/m² 7,5 °C 7,6 °C 8,0 km/h (2 Bft)
02.11.2019 20:13 8,4 °C 94 % 996,9 hPa 0,0 mm 6,6 km/h (2 Bft) S 171 ° 0 min 0,000 mm 0,0 UV-I 0 W/m² 7,5 °C 7,5 °C 8,0 km/h (2 Bft)
02.11.2019 20:14 8,5 °C 94 % 996,9 hPa 0,0 mm 4,6 km/h (1 Bft) S 171 ° 0 min 0,000 mm 0,0 UV-I 0 W/m² 7,6 °C 8,2 °C 6,4 km/h (2 Bft)
02.11.2019 20:15 8,5 °C 94 % 996,9 hPa 0,0 mm 4,0 km/h (1 Bft) S 171 ° 0 min 0,000 mm 0,0 UV-I 0 W/m² 7,6 °C 8,5 °C 6,4 km/h (2 Bft)
02.11.2019 20:16 8,5 °C 94 % 996,9 hPa 0,0 mm 3,4 km/h (1 Bft) S 171 ° 0 min 0,000 mm 0,0 UV-I 0 W/m² 7,6 °C 8,5 °C 6,4 km/h (2 Bft)
02.11.2019 20:17 8,5 °C 94 % 996,9 hPa 0,0 mm 2,1 km/h (1 Bft) S 171 ° 0 min 0,000 mm 0,0 UV-I 0 W/m² 7,6 °C 8,5 °C 3,2 km/h (1 Bft)
02.11.2019 20:18 8,6 °C 94 % 997,0 hPa 0,0 mm 0,3 km/h (0 Bft) S 171 ° 0 min 0,000 mm 0,0 UV-I 0 W/m² 7,7 °C 8,6 °C 1,6 km/h (1 Bft)
02.11.2019 20:19 8,6 °C 94 % 997,1 hPa 0,0 mm 0,0 km/h (0 Bft) S 171 ° 0 min 0,000 mm 0,0 UV-I 0 W/m² 7,7 °C 8,6 °C 0,0 km/h (0 Bft)
02.11.2019 20:20 8,6 °C 94 % 997,1 hPa 0,0 mm 0,0 km/h (0 Bft) S 171 ° 0 min 0,000 mm 0,0 UV-I 0 W/m² 7,7 °C 8,6 °C 0,0 km/h (0 Bft)
02.11.2019 20:21 8,6 °C 94 % 997,1 hPa 0,0 mm 0,0 km/h (0 Bft) S 171 ° 0 min 0,000 mm 0,0 UV-I 0 W/m² 7,7 °C 8,6 °C 0,0 km/h (0 Bft)
02.11.2019 20:22 8,6 °C 94 % 997,0 hPa 0,0 mm 0,0 km/h (0 Bft) S 171 ° 0 min 0,000 mm 0,0 UV-I 0 W/m² 7,7 °C 8,6 °C 0,0 km/h (0 Bft)
02.11.2019 20:23 8,6 °C 94 % 997,0 hPa 0,0 mm 2,4 km/h (1 Bft) S 171 ° 0 min 0,000 mm 0,0 UV-I 0 W/m² 7,7 °C 8,6 °C 3,2 km/h (1 Bft)
02.11.2019 20:24 8,6 °C 94 % 997,0 hPa 0,0 mm 3,3 km/h (1 Bft) S 171 ° 0 min 0,000 mm 0,0 UV-I 0 W/m² 7,7 °C 8,6 °C 6,4 km/h (2 Bft)
02.11.2019 20:25 8,5 °C 94 % 997,0 hPa 0,0 mm 3,0 km/h (1 Bft) S 171 ° 0 min 0,000 mm 0,0 UV-I 0 W/m² 7,6 °C 8,5 °C 6,4 km/h (2 Bft)
02.11.2019 20:26 8,6 °C 94 % 997,0 hPa 0,0 mm 3,2 km/h (1 Bft) S 171 ° 0 min 0,000 mm 0,0 UV-I 0 W/m² 7,7 °C 8,6 °C 6,4 km/h (2 Bft)
02.11.2019 20:27 8,5 °C 94 % 997,1 hPa 0,0 mm 4,2 km/h (1 Bft) S 171 ° 0 min 0,000 mm 0,0 UV-I 0 W/m² 7,6 °C 8,5 °C 6,4 km/h (2 Bft)
02.11.2019 20:28 8,4 °C 94 % 997,0 hPa 0,0 mm 3,6 km/h (1 Bft) S 171 ° 0 min 0,000 mm 0,0 UV-I 0 W/m² 7,5 °C 8,4 °C 6,4 km/h (2 Bft)
02.11.2019 20:29 8,5 °C 94 % 997,1 hPa 0,0 mm 3,6 km/h (1 Bft) S 171 ° 0 min 0,000 mm 0,0 UV-I 0 W/m² 7,6 °C 8,5 °C 6,4 km/h (2 Bft)
02.11.2019 20:30 8,4 °C 94 % 997,1 hPa 0,0 mm 3,1 km/h (1 Bft) S 171 ° 0 min 0,000 mm 0,0 UV-I 0 W/m² 7,5 °C 8,4 °C 3,2 km/h (1 Bft)
02.11.2019 20:31 8,4 °C 94 % 997,1 hPa 0,0 mm 4,0 km/h (1 Bft) S 171 ° 0 min 0,000 mm 0,0 UV-I 0 W/m² 7,5 °C 8,4 °C 6,4 km/h (2 Bft)
02.11.2019 20:32 8,4 °C 94 % 997,2 hPa 0,0 mm 2,0 km/h (1 Bft) S 171 ° 0 min 0,000 mm 0,0 UV-I 0 W/m² 7,5 °C 8,4 °C 3,2 km/h (1 Bft)
02.11.2019 20:33 8,4 °C 94 % 997,2 hPa 0,0 mm 0,3 km/h (0 Bft) S 171 ° 0 min 0,000 mm 0,0 UV-I 0 W/m² 7,5 °C 8,4 °C 1,6 km/h (1 Bft)
02.11.2019 20:34 8,4 °C 94 % 997,2 hPa 0,0 mm 0,0 km/h (0 Bft) S 171 ° 0 min 0,000 mm 0,0 UV-I 0 W/m² 7,5 °C 8,4 °C 0,0 km/h (0 Bft)
02.11.2019 20:35 8,4 °C 94 % 997,2 hPa 0,0 mm 0,0 km/h (0 Bft) S 171 ° 0 min 0,000 mm 0,0 UV-I 0 W/m² 7,5 °C 8,4 °C 0,0 km/h (0 Bft)
02.11.2019 20:36 8,4 °C 94 % 997,1 hPa 0,0 mm 0,0 km/h (0 Bft) S 171 ° 0 min 0,000 mm 0,0 UV-I 0 W/m² 7,5 °C 8,4 °C 0,0 km/h (0 Bft)
02.11.2019 20:37 8,4 °C 94 % 997,1 hPa 0,0 mm 0,0 km/h (0 Bft) S 171 ° 0 min 0,000 mm 0,0 UV-I 0 W/m² 7,5 °C 8,4 °C 0,0 km/h (0 Bft)
02.11.2019 20:38 8,4 °C 94 % 997,1 hPa 0,0 mm 0,0 km/h (0 Bft) S 171 ° 0 min 0,000 mm 0,0 UV-I 0 W/m² 7,5 °C 8,4 °C 0,0 km/h (0 Bft)
02.11.2019 20:39 8,4 °C 94 % 997,0 hPa 0,0 mm 0,0 km/h (0 Bft) S 171 ° 0 min 0,000 mm 0,0 UV-I 0 W/m² 7,5 °C 8,4 °C 0,0 km/h (0 Bft)
02.11.2019 20:40 8,4 °C 94 % 997,0 hPa 0,0 mm 0,0 km/h (0 Bft) S 171 ° 0 min 0,000 mm 0,0 UV-I 0 W/m² 7,5 °C 8,4 °C 0,0 km/h (0 Bft)
02.11.2019 20:41 8,4 °C 94 % 996,9 hPa 0,0 mm 0,0 km/h (0 Bft) S 171 ° 0 min 0,000 mm 0,0 UV-I 0 W/m² 7,5 °C 8,4 °C 0,0 km/h (0 Bft)
02.11.2019 20:42 8,4 °C 94 % 996,9 hPa 0,0 mm 0,0 km/h (0 Bft) S 171 ° 0 min 0,000 mm 0,0 UV-I 0 W/m² 7,5 °C 8,4 °C 0,0 km/h (0 Bft)
02.11.2019 20:43 8,3 °C 94 % 996,9 hPa 0,0 mm 0,0 km/h (0 Bft) S 171 ° 0 min 0,000 mm 0,0 UV-I 0 W/m² 7,4 °C 8,3 °C 0,0 km/h (0 Bft)
02.11.2019 20:44 8,3 °C 94 % 996,9 hPa 0,0 mm 0,0 km/h (0 Bft) S 171 ° 0 min 0,000 mm 0,0 UV-I 0 W/m² 7,4 °C 8,3 °C 0,0 km/h (0 Bft)
02.11.2019 20:45 8,3 °C 94 % 996,9 hPa 0,0 mm 0,0 km/h (0 Bft) S 171 ° 0 min 0,000 mm 0,0 UV-I 0 W/m² 7,4 °C 8,3 °C 0,0 km/h (0 Bft)
02.11.2019 20:46 8,3 °C 94 % 997,0 hPa 0,0 mm 0,0 km/h (0 Bft) S 171 ° 0 min 0,000 mm 0,0 UV-I 0 W/m² 7,4 °C 8,3 °C 0,0 km/h (0 Bft)
02.11.2019 20:47 8,3 °C 94 % 996,9 hPa 0,0 mm 0,0 km/h (0 Bft) S 171 ° 0 min 0,000 mm 0,0 UV-I 0 W/m² 7,4 °C 8,3 °C 0,0 km/h (0 Bft)
02.11.2019 20:48 8,3 °C 94 % 996,9 hPa 0,0 mm 0,0 km/h (0 Bft) S 171 ° 0 min 0,000 mm 0,0 UV-I 0 W/m² 7,4 °C 8,3 °C 0,0 km/h (0 Bft)
02.11.2019 20:49 8,3 °C 94 % 996,9 hPa 0,0 mm 0,0 km/h (0 Bft) S 171 ° 0 min 0,000 mm 0,0 UV-I 0 W/m² 7,4 °C 8,3 °C 0,0 km/h (0 Bft)
02.11.2019 20:50 8,3 °C 94 % 996,9 hPa 0,0 mm 0,0 km/h (0 Bft) S 171 ° 0 min 0,000 mm 0,0 UV-I 0 W/m² 7,4 °C 8,3 °C 0,0 km/h (0 Bft)
02.11.2019 20:51 8,3 °C 94 % 996,9 hPa 0,0 mm 0,0 km/h (0 Bft) S 171 ° 0 min 0,000 mm 0,0 UV-I 0 W/m² 7,4 °C 8,3 °C 0,0 km/h (0 Bft)
02.11.2019 20:52 8,3 °C 94 % 996,9 hPa 0,0 mm 0,0 km/h (0 Bft) S 171 ° 0 min 0,000 mm 0,0 UV-I 0 W/m² 7,4 °C 8,3 °C 0,0 km/h (0 Bft)
02.11.2019 20:53 8,3 °C 94 % 996,9 hPa 0,0 mm 0,0 km/h (0 Bft) S 171 ° 0 min 0,000 mm 0,0 UV-I 0 W/m² 7,4 °C 8,3 °C 0,0 km/h (0 Bft)
02.11.2019 20:54 8,2 °C 94 % 996,9 hPa 0,0 mm 0,0 km/h (0 Bft) S 171 ° 0 min 0,000 mm 0,0 UV-I 0 W/m² 7,3 °C 8,2 °C 0,0 km/h (0 Bft)
02.11.2019 20:55 8,2 °C 93 % 997,0 hPa 0,0 mm 0,0 km/h (0 Bft) S 171 ° 0 min 0,000 mm 0,0 UV-I 0 W/m² 7,1 °C 8,2 °C 0,0 km/h (0 Bft)
02.11.2019 20:56 8,2 °C 93 % 996,9 hPa 0,0 mm 0,0 km/h (0 Bft) S 171 ° 0 min 0,000 mm 0,0 UV-I 0 W/m² 7,1 °C 8,2 °C 0,0 km/h (0 Bft)
02.11.2019 20:57 8,2 °C 94 % 996,9 hPa 0,0 mm 0,0 km/h (0 Bft) S 171 ° 0 min 0,000 mm 0,0 UV-I 0 W/m² 7,3 °C 8,2 °C 0,0 km/h (0 Bft)
02.11.2019 20:58 8,1 °C 94 % 997,0 hPa 0,0 mm 0,0 km/h (0 Bft) S 171 ° 0 min 0,000 mm 0,0 UV-I 0 W/m² 7,2 °C 8,1 °C 0,0 km/h (0 Bft)
02.11.2019 20:59 8,1 °C 94 % 997,0 hPa 0,0 mm 0,0 km/h (0 Bft) S 171 ° 0 min 0,000 mm 0,0 UV-I 0 W/m² 7,2 °C 8,1 °C 0,0 km/h (0 Bft)
02.11.2019 21:00 8,1 °C 94 % 997,0 hPa 0,0 mm 0,0 km/h (0 Bft) S 171 ° 0 min 0,000 mm 0,0 UV-I 0 W/m² 7,2 °C 8,1 °C 0,0 km/h (0 Bft)
02.11.2019 21:01 8,1 °C 94 % 997,0 hPa 0,0 mm 0,0 km/h (0 Bft) S 171 ° 0 min 0,000 mm 0,0 UV-I 0 W/m² 7,2 °C 8,1 °C 0,0 km/h (0 Bft)
02.11.2019 21:02 8,1 °C 94 % 997,0 hPa 0,0 mm 0,0 km/h (0 Bft) S 171 ° 0 min 0,000 mm 0,0 UV-I 0 W/m² 7,2 °C 8,1 °C 0,0 km/h (0 Bft)
02.11.2019 21:03 8,1 °C 94 % 997,0 hPa 0,0 mm 0,0 km/h (0 Bft) S 171 ° 0 min 0,000 mm 0,0 UV-I 0 W/m² 7,2 °C 8,1 °C 0,0 km/h (0 Bft)
02.11.2019 21:04 8,1 °C 94 % 996,9 hPa 0,0 mm 0,0 km/h (0 Bft) S 171 ° 0 min 0,000 mm 0,0 UV-I 0 W/m² 7,2 °C 8,1 °C 0,0 km/h (0 Bft)
02.11.2019 21:05 8,1 °C 94 % 996,9 hPa 0,0 mm 0,0 km/h (0 Bft) S 171 ° 0 min 0,000 mm 0,0 UV-I 0 W/m² 7,2 °C 8,1 °C 0,0 km/h (0 Bft)
02.11.2019 21:06 8,1 °C 94 % 996,9 hPa 0,0 mm 0,0 km/h (0 Bft) S 171 ° 0 min 0,000 mm 0,0 UV-I 0 W/m² 7,2 °C 8,1 °C 0,0 km/h (0 Bft)
02.11.2019 21:07 8,1 °C 94 % 996,9 hPa 0,0 mm 0,0 km/h (0 Bft) S 171 ° 0 min 0,000 mm 0,0 UV-I 0 W/m² 7,2 °C 8,1 °C 0,0 km/h (0 Bft)
02.11.2019 21:08 8,0 °C 94 % 996,9 hPa 0,0 mm 0,0 km/h (0 Bft) S 171 ° 0 min 0,000 mm 0,0 UV-I 0 W/m² 7,1 °C 8,0 °C 0,0 km/h (0 Bft)
02.11.2019 21:09 8,0 °C 94 % 996,8 hPa 0,0 mm 0,0 km/h (0 Bft) S 171 ° 0 min 0,000 mm 0,0 UV-I 0 W/m² 7,1 °C 8,0 °C 0,0 km/h (0 Bft)
02.11.2019 21:10 8,0 °C 94 % 996,9 hPa 0,0 mm 0,0 km/h (0 Bft) S 171 ° 0 min 0,000 mm 0,0 UV-I 0 W/m² 7,1 °C 8,0 °C 0,0 km/h (0 Bft)
02.11.2019 21:11 7,9 °C 94 % 996,8 hPa 0,0 mm 0,0 km/h (0 Bft) S 171 ° 0 min 0,000 mm 0,0 UV-I 0 W/m² 7,0 °C 7,9 °C 0,0 km/h (0 Bft)
02.11.2019 21:12 7,9 °C 93 % 996,7 hPa 0,0 mm 0,0 km/h (0 Bft) S 171 ° 0 min 0,000 mm 0,0 UV-I 0 W/m² 6,8 °C 7,9 °C 0,0 km/h (0 Bft)
02.11.2019 21:13 7,9 °C 93 % 996,7 hPa 0,0 mm 0,0 km/h (0 Bft) S 171 ° 0 min 0,000 mm 0,0 UV-I 0 W/m² 6,8 °C 7,9 °C 0,0 km/h (0 Bft)
02.11.2019 21:14 7,9 °C 93 % 996,7 hPa 0,0 mm 0,0 km/h (0 Bft) S 171 ° 0 min 0,000 mm 0,0 UV-I 0 W/m² 6,8 °C 7,9 °C 0,0 km/h (0 Bft)
02.11.2019 21:15 7,9 °C 94 % 996,6 hPa 0,0 mm 0,0 km/h (0 Bft) S 171 ° 0 min 0,000 mm 0,0 UV-I 0 W/m² 7,0 °C 7,9 °C 0,0 km/h (0 Bft)
02.11.2019 21:16 7,9 °C 94 % 996,6 hPa 0,0 mm 0,0 km/h (0 Bft) S 171 ° 0 min 0,000 mm 0,0 UV-I 0 W/m² 7,0 °C 7,9 °C 0,0 km/h (0 Bft)
02.11.2019 21:17 7,9 °C 94 % 996,7 hPa 0,0 mm 0,0 km/h (0 Bft) S 171 ° 0 min 0,000 mm 0,0 UV-I 0 W/m² 7,0 °C 7,9 °C 0,0 km/h (0 Bft)
02.11.2019 21:18 7,9 °C 94 % 996,7 hPa 0,0 mm 0,0 km/h (0 Bft) S 171 ° 0 min 0,000 mm 0,0 UV-I 0 W/m² 7,0 °C 7,9 °C 0,0 km/h (0 Bft)
02.11.2019 21:19 7,9 °C 94 % 996,7 hPa 0,0 mm 0,0 km/h (0 Bft) S 171 ° 0 min 0,000 mm 0,0 UV-I 0 W/m² 7,0 °C 7,9 °C 0,0 km/h (0 Bft)
02.11.2019 21:20 7,9 °C 94 % 996,7 hPa 0,0 mm 0,0 km/h (0 Bft) S 171 ° 0 min 0,000 mm 0,0 UV-I 0 W/m² 7,0 °C 7,9 °C 0,0 km/h (0 Bft)
02.11.2019 21:21 7,9 °C 94 % 996,8 hPa 0,0 mm 0,0 km/h (0 Bft) S 171 ° 0 min 0,000 mm 0,0 UV-I 0 W/m² 7,0 °C 7,9 °C 0,0 km/h (0 Bft)
02.11.2019 21:22 7,9 °C 94 % 996,8 hPa 0,0 mm 0,0 km/h (0 Bft) S 171 ° 0 min 0,000 mm 0,0 UV-I 0 W/m² 7,0 °C 7,9 °C 0,0 km/h (0 Bft)
02.11.2019 21:23 7,8 °C 94 % 996,8 hPa 0,0 mm 0,0 km/h (0 Bft) S 171 ° 0 min 0,000 mm 0,0 UV-I 0 W/m² 6,9 °C 7,8 °C 0,0 km/h (0 Bft)
02.11.2019 21:24 7,8 °C 94 % 996,8 hPa 0,0 mm 0,0 km/h (0 Bft) S 171 ° 0 min 0,000 mm 0,0 UV-I 0 W/m² 6,9 °C 7,8 °C 0,0 km/h (0 Bft)
02.11.2019 21:25 7,8 °C 94 % 996,8 hPa 0,0 mm 0,0 km/h (0 Bft) S 171 ° 0 min 0,000 mm 0,0 UV-I 0 W/m² 6,9 °C 7,8 °C 0,0 km/h (0 Bft)
02.11.2019 21:26 7,8 °C 94 % 996,8 hPa 0,0 mm 0,0 km/h (0 Bft) S 171 ° 0 min 0,000 mm 0,0 UV-I 0 W/m² 6,9 °C 7,8 °C 0,0 km/h (0 Bft)
02.11.2019 21:27 7,8 °C 94 % 996,8 hPa 0,0 mm 0,0 km/h (0 Bft) S 171 ° 0 min 0,000 mm 0,0 UV-I 0 W/m² 6,9 °C 7,8 °C 0,0 km/h (0 Bft)
02.11.2019 21:28 7,8 °C 94 % 996,9 hPa 0,0 mm 0,0 km/h (0 Bft) S 171 ° 0 min 0,000 mm 0,0 UV-I 0 W/m² 6,9 °C 7,8 °C 0,0 km/h (0 Bft)
02.11.2019 21:29 7,8 °C 94 % 996,9 hPa 0,0 mm 0,0 km/h (0 Bft) S 171 ° 0 min 0,000 mm 0,0 UV-I 0 W/m² 6,9 °C 7,8 °C 0,0 km/h (0 Bft)
02.11.2019 21:30 7,8 °C 94 % 996,9 hPa 0,0 mm 0,0 km/h (0 Bft) S 171 ° 0 min 0,000 mm 0,0 UV-I 0 W/m² 6,9 °C 7,8 °C 0,0 km/h (0 Bft)
02.11.2019 21:31 7,8 °C 94 % 996,9 hPa 0,0 mm 0,0 km/h (0 Bft) S 171 ° 0 min 0,000 mm 0,0 UV-I 0 W/m² 6,9 °C 7,8 °C 0,0 km/h (0 Bft)
02.11.2019 21:32 7,8 °C 94 % 996,9 hPa 0,0 mm 0,0 km/h (0 Bft) S 171 ° 0 min 0,000 mm 0,0 UV-I 0 W/m² 6,9 °C 7,8 °C 0,0 km/h (0 Bft)
02.11.2019 21:33 7,8 °C 94 % 996,9 hPa 0,0 mm 0,0 km/h (0 Bft) S 171 ° 0 min 0,000 mm 0,0 UV-I 0 W/m² 6,9 °C 7,8 °C 0,0 km/h (0 Bft)
02.11.2019 21:34 7,8 °C 94 % 996,9 hPa 0,0 mm 0,0 km/h (0 Bft) S 171 ° 0 min 0,000 mm 0,0 UV-I 0 W/m² 6,9 °C 7,8 °C 0,0 km/h (0 Bft)
02.11.2019 21:35 7,8 °C 94 % 996,9 hPa 0,0 mm 0,0 km/h (0 Bft) S 171 ° 0 min 0,000 mm 0,0 UV-I 0 W/m² 6,9 °C 7,8 °C 0,0 km/h (0 Bft)
02.11.2019 21:36 7,8 °C 94 % 996,9 hPa 0,0 mm 0,0 km/h (0 Bft) S 171 ° 0 min 0,000 mm 0,0 UV-I 0 W/m² 6,9 °C 7,8 °C 0,0 km/h (0 Bft)
02.11.2019 21:37 7,7 °C 94 % 996,8 hPa 0,0 mm 0,0 km/h (0 Bft) S 171 ° 0 min 0,000 mm 0,0 UV-I 0 W/m² 6,8 °C 7,7 °C 0,0 km/h (0 Bft)
02.11.2019 21:38 7,7 °C 94 % 996,7 hPa 0,0 mm 0,0 km/h (0 Bft) S 171 ° 0 min 0,000 mm 0,0 UV-I 0 W/m² 6,8 °C 7,7 °C 0,0 km/h (0 Bft)
02.11.2019 21:39 7,7 °C 94 % 996,6 hPa 0,0 mm 0,0 km/h (0 Bft) S 171 ° 0 min 0,000 mm 0,0 UV-I 0 W/m² 6,8 °C 7,7 °C 0,0 km/h (0 Bft)
02.11.2019 21:40 7,7 °C 94 % 996,6 hPa 0,0 mm 0,0 km/h (0 Bft) S 171 ° 0 min 0,000 mm 0,0 UV-I 0 W/m² 6,8 °C 7,7 °C 0,0 km/h (0 Bft)
02.11.2019 21:41 7,7 °C 94 % 996,5 hPa 0,0 mm 0,0 km/h (0 Bft) S 171 ° 0 min 0,000 mm 0,0 UV-I 0 W/m² 6,8 °C 7,7 °C 0,0 km/h (0 Bft)
02.11.2019 21:42 7,7 °C 94 % 996,5 hPa 0,0 mm 0,0 km/h (0 Bft) S 171 ° 0 min 0,000 mm 0,0 UV-I 0 W/m² 6,8 °C 7,7 °C 0,0 km/h (0 Bft)
02.11.2019 21:43 7,6 °C 94 % 996,5 hPa 0,0 mm 0,0 km/h (0 Bft) S 171 ° 0 min 0,000 mm 0,0 UV-I 0 W/m² 6,7 °C 7,6 °C 0,0 km/h (0 Bft)
02.11.2019 21:44 7,6 °C 94 % 996,6 hPa 0,0 mm 0,0 km/h (0 Bft) S 171 ° 0 min 0,000 mm 0,0 UV-I 0 W/m² 6,7 °C 7,6 °C 0,0 km/h (0 Bft)
02.11.2019 21:45 7,6 °C 93 % 996,5 hPa 0,0 mm 0,0 km/h (0 Bft) S 171 ° 0 min 0,000 mm 0,0 UV-I 0 W/m² 6,5 °C 7,6 °C 0,0 km/h (0 Bft)
02.11.2019 21:46 7,6 °C 93 % 996,5 hPa 0,0 mm 0,0 km/h (0 Bft) S 171 ° 0 min 0,000 mm 0,0 UV-I 0 W/m² 6,5 °C 7,6 °C 0,0 km/h (0 Bft)
02.11.2019 21:47 7,6 °C 93 % 996,6 hPa 0,0 mm 0,0 km/h (0 Bft) S 171 ° 0 min 0,000 mm 0,0 UV-I 0 W/m² 6,5 °C 7,6 °C 0,0 km/h (0 Bft)
02.11.2019 21:48 7,6 °C 93 % 996,5 hPa 0,0 mm 0,0 km/h (0 Bft) S 171 ° 0 min 0,000 mm 0,0 UV-I 0 W/m² 6,5 °C 7,6 °C 0,0 km/h (0 Bft)
02.11.2019 21:49 7,6 °C 93 % 996,5 hPa 0,0 mm 0,0 km/h (0 Bft) S 171 ° 0 min 0,000 mm 0,0 UV-I 0 W/m² 6,5 °C 7,6 °C 0,0 km/h (0 Bft)
02.11.2019 21:50 7,6 °C 93 % 996,5 hPa 0,0 mm 0,0 km/h (0 Bft) S 171 ° 0 min 0,000 mm 0,0 UV-I 0 W/m² 6,5 °C 7,6 °C 0,0 km/h (0 Bft)
02.11.2019 21:51 7,5 °C 94 % 996,5 hPa 0,0 mm 0,0 km/h (0 Bft) S 171 ° 0 min 0,000 mm 0,0 UV-I 0 W/m² 6,6 °C 7,5 °C 0,0 km/h (0 Bft)
02.11.2019 21:52 7,6 °C 93 % 996,5 hPa 0,0 mm 0,0 km/h (0 Bft) S 171 ° 0 min 0,000 mm 0,0 UV-I 0 W/m² 6,5 °C 7,6 °C 0,0 km/h (0 Bft)
02.11.2019 21:53 7,5 °C 94 % 996,5 hPa 0,0 mm 0,0 km/h (0 Bft) S 171 ° 0 min 0,000 mm 0,0 UV-I 0 W/m² 6,6 °C 7,5 °C 0,0 km/h (0 Bft)
02.11.2019 21:54 7,5 °C 94 % 996,5 hPa 0,0 mm 0,0 km/h (0 Bft) S 171 ° 0 min 0,000 mm 0,0 UV-I 0 W/m² 6,6 °C 7,5 °C 0,0 km/h (0 Bft)
02.11.2019 21:55 7,5 °C 94 % 996,5 hPa 0,0 mm 0,0 km/h (0 Bft) S 171 ° 0 min 0,000 mm 0,0 UV-I 0 W/m² 6,6 °C 7,5 °C 0,0 km/h (0 Bft)
02.11.2019 21:56 7,5 °C 94 % 996,5 hPa 0,0 mm 0,0 km/h (0 Bft) S 171 ° 0 min 0,000 mm 0,0 UV-I 0 W/m² 6,6 °C 7,5 °C 0,0 km/h (0 Bft)
02.11.2019 21:57 7,4 °C 94 % 996,5 hPa 0,0 mm 0,0 km/h (0 Bft) S 171 ° 0 min 0,000 mm 0,0 UV-I 0 W/m² 6,5 °C 7,4 °C 0,0 km/h (0 Bft)
02.11.2019 21:58 7,4 °C 94 % 996,5 hPa 0,0 mm 0,0 km/h (0 Bft) S 171 ° 0 min 0,000 mm 0,0 UV-I 0 W/m² 6,5 °C 7,4 °C 0,0 km/h (0 Bft)
02.11.2019 21:59 7,4 °C 94 % 996,5 hPa 0,0 mm 0,0 km/h (0 Bft) S 171 ° 0 min 0,000 mm 0,0 UV-I 0 W/m² 6,5 °C 7,4 °C 0,0 km/h (0 Bft)
02.11.2019 22:00 7,4 °C 94 % 996,4 hPa 0,0 mm 0,0 km/h (0 Bft) S 171 ° 0 min 0,000 mm 0,0 UV-I 0 W/m² 6,5 °C 7,4 °C 0,0 km/h (0 Bft)
02.11.2019 22:01 7,4 °C 94 % 996,4 hPa 0,0 mm 0,0 km/h (0 Bft) S 171 ° 0 min 0,000 mm 0,0 UV-I 0 W/m² 6,5 °C 7,4 °C 0,0 km/h (0 Bft)
02.11.2019 22:02 7,4 °C 94 % 996,3 hPa 0,0 mm 0,0 km/h (0 Bft) S 171 ° 0 min 0,000 mm 0,0 UV-I 0 W/m² 6,5 °C 7,4 °C 0,0 km/h (0 Bft)
02.11.2019 22:03 7,4 °C 94 % 996,3 hPa 0,0 mm 0,0 km/h (0 Bft) S 171 ° 0 min 0,000 mm 0,0 UV-I 0 W/m² 6,5 °C 7,4 °C 0,0 km/h (0 Bft)
02.11.2019 22:04 7,4 °C 94 % 996,3 hPa 0,0 mm 0,0 km/h (0 Bft) S 171 ° 0 min 0,000 mm 0,0 UV-I 0 W/m² 6,5 °C 7,4 °C 0,0 km/h (0 Bft)
02.11.2019 22:05 7,3 °C 94 % 996,2 hPa 0,0 mm 0,0 km/h (0 Bft) S 171 ° 0 min 0,000 mm 0,0 UV-I 0 W/m² 6,4 °C 7,3 °C 0,0 km/h (0 Bft)
02.11.2019 22:06 7,3 °C 94 % 996,2 hPa 0,0 mm 0,0 km/h (0 Bft) S 171 ° 0 min 0,000 mm 0,0 UV-I 0 W/m² 6,4 °C 7,3 °C 0,0 km/h (0 Bft)
02.11.2019 22:07 7,3 °C 94 % 996,2 hPa 0,0 mm 0,0 km/h (0 Bft) S 171 ° 0 min 0,000 mm 0,0 UV-I 0 W/m² 6,4 °C 7,3 °C 0,0 km/h (0 Bft)
02.11.2019 22:08 7,3 °C 94 % 996,2 hPa 0,0 mm 0,0 km/h (0 Bft) S 171 ° 0 min 0,000 mm 0,0 UV-I 0 W/m² 6,4 °C 7,3 °C 0,0 km/h (0 Bft)
02.11.2019 22:09 7,3 °C 94 % 996,2 hPa 0,0 mm 0,0 km/h (0 Bft) S 171 ° 0 min 0,000 mm 0,0 UV-I 0 W/m² 6,4 °C 7,3 °C 0,0 km/h (0 Bft)
02.11.2019 22:10 7,3 °C 94 % 996,2 hPa 0,0 mm 0,0 km/h (0 Bft) S 171 ° 0 min 0,000 mm 0,0 UV-I 0 W/m² 6,4 °C 7,3 °C 0,0 km/h (0 Bft)
02.11.2019 22:11 7,3 °C 94 % 996,2 hPa 0,0 mm 0,0 km/h (0 Bft) S 171 ° 0 min 0,000 mm 0,0 UV-I 0 W/m² 6,4 °C 7,3 °C 0,0 km/h (0 Bft)
02.11.2019 22:12 7,3 °C 94 % 996,2 hPa 0,0 mm 0,0 km/h (0 Bft) S 171 ° 0 min 0,000 mm 0,0 UV-I 0 W/m² 6,4 °C 7,3 °C 0,0 km/h (0 Bft)
02.11.2019 22:13 7,3 °C 94 % 996,1 hPa 0,0 mm 0,0 km/h (0 Bft) S 171 ° 0 min 0,000 mm 0,0 UV-I 0 W/m² 6,4 °C 7,3 °C 0,0 km/h (0 Bft)
02.11.2019 22:14 7,3 °C 94 % 996,1 hPa 0,0 mm 0,0 km/h (0 Bft) S 171 ° 0 min 0,000 mm 0,0 UV-I 0 W/m² 6,4 °C 7,3 °C 0,0 km/h (0 Bft)
02.11.2019 22:15 7,3 °C 94 % 996,1 hPa 0,0 mm 0,0 km/h (0 Bft) S 171 ° 0 min 0,000 mm 0,0 UV-I 0 W/m² 6,4 °C 7,3 °C 0,0 km/h (0 Bft)
02.11.2019 22:16 7,3 °C 94 % 996,0 hPa 0,0 mm 0,0 km/h (0 Bft) S 171 ° 0 min 0,000 mm 0,0 UV-I 0 W/m² 6,4 °C 7,3 °C 0,0 km/h (0 Bft)
02.11.2019 22:17 7,2 °C 94 % 996,0 hPa 0,0 mm 0,0 km/h (0 Bft) S 171 ° 0 min 0,000 mm 0,0 UV-I 0 W/m² 6,3 °C 7,2 °C 0,0 km/h (0 Bft)
02.11.2019 22:18 7,2 °C 94 % 996,0 hPa 0,0 mm 0,0 km/h (0 Bft) S 171 ° 0 min 0,000 mm 0,0 UV-I 0 W/m² 6,3 °C 7,2 °C 0,0 km/h (0 Bft)
02.11.2019 22:19 7,2 °C 94 % 995,9 hPa 0,0 mm 0,0 km/h (0 Bft) S 171 ° 0 min 0,000 mm 0,0 UV-I 0 W/m² 6,3 °C 7,2 °C 0,0 km/h (0 Bft)
02.11.2019 22:20 7,2 °C 94 % 995,9 hPa 0,0 mm 0,0 km/h (0 Bft) S 171 ° 0 min 0,000 mm 0,0 UV-I 0 W/m² 6,3 °C 7,2 °C 0,0 km/h (0 Bft)
02.11.2019 22:21 7,2 °C 94 % 995,9 hPa 0,0 mm 0,0 km/h (0 Bft) S 171 ° 0 min 0,000 mm 0,0 UV-I 0 W/m² 6,3 °C 7,2 °C 0,0 km/h (0 Bft)
02.11.2019 22:22 7,2 °C 94 % 995,8 hPa 0,0 mm 0,0 km/h (0 Bft) S 171 ° 0 min 0,000 mm 0,0 UV-I 0 W/m² 6,3 °C 7,2 °C 0,0 km/h (0 Bft)
02.11.2019 22:23 7,2 °C 94 % 995,8 hPa 0,0 mm 0,0 km/h (0 Bft) S 171 ° 0 min 0,000 mm 0,0 UV-I 0 W/m² 6,3 °C 7,2 °C 0,0 km/h (0 Bft)
02.11.2019 22:24 7,2 °C 94 % 995,7 hPa 0,0 mm 0,0 km/h (0 Bft) S 171 ° 0 min 0,000 mm 0,0 UV-I 0 W/m² 6,3 °C 7,2 °C 0,0 km/h (0 Bft)
02.11.2019 22:25 7,2 °C 93 % 995,7 hPa 0,0 mm 0,0 km/h (0 Bft) S 171 ° 0 min 0,000 mm 0,0 UV-I 0 W/m² 6,1 °C 7,2 °C 0,0 km/h (0 Bft)
02.11.2019 22:26 7,2 °C 94 % 995,6 hPa 0,0 mm 0,0 km/h (0 Bft) S 171 ° 0 min 0,000 mm 0,0 UV-I 0 W/m² 6,3 °C 7,2 °C 0,0 km/h (0 Bft)
02.11.2019 22:27 7,1 °C 94 % 995,6 hPa 0,0 mm 0,0 km/h (0 Bft) S 171 ° 0 min 0,000 mm 0,0 UV-I 0 W/m² 6,2 °C 7,1 °C 0,0 km/h (0 Bft)
02.11.2019 22:28 7,1 °C 94 % 995,6 hPa 0,0 mm 0,0 km/h (0 Bft) S 171 ° 0 min 0,000 mm 0,0 UV-I 0 W/m² 6,2 °C 7,1 °C 0,0 km/h (0 Bft)
02.11.2019 22:29 7,1 °C 94 % 995,6 hPa 0,0 mm 0,0 km/h (0 Bft) S 171 ° 0 min 0,000 mm 0,0 UV-I 0 W/m² 6,2 °C 7,1 °C 0,0 km/h (0 Bft)
02.11.2019 22:30 7,1 °C 94 % 995,5 hPa 0,0 mm 0,0 km/h (0 Bft) S 171 ° 0 min 0,000 mm 0,0 UV-I 0 W/m² 6,2 °C 7,1 °C 0,0 km/h (0 Bft)
02.11.2019 22:31 7,1 °C 94 % 995,5 hPa 0,0 mm 0,0 km/h (0 Bft) S 171 ° 0 min 0,000 mm 0,0 UV-I 0 W/m² 6,2 °C 7,1 °C 0,0 km/h (0 Bft)
02.11.2019 22:32 7,1 °C 94 % 995,4 hPa 0,0 mm 0,0 km/h (0 Bft) S 171 ° 0 min 0,000 mm 0,0 UV-I 0 W/m² 6,2 °C 7,1 °C 0,0 km/h (0 Bft)
02.11.2019 22:33 7,1 °C 94 % 995,4 hPa 0,0 mm 0,0 km/h (0 Bft) S 171 ° 0 min 0,000 mm 0,0 UV-I 0 W/m² 6,2 °C 7,1 °C 0,0 km/h (0 Bft)
02.11.2019 22:34 7,1 °C 94 % 995,4 hPa 0,0 mm 0,0 km/h (0 Bft) S 171 ° 0 min 0,000 mm 0,0 UV-I 0 W/m² 6,2 °C 7,1 °C 0,0 km/h (0 Bft)
02.11.2019 22:35 7,0 °C 94 % 995,3 hPa 0,0 mm 0,0 km/h (0 Bft) S 171 ° 0 min 0,000 mm 0,0 UV-I 0 W/m² 6,1 °C 7,0 °C 0,0 km/h (0 Bft)
02.11.2019 22:36 7,0 °C 94 % 995,3 hPa 0,0 mm 0,0 km/h (0 Bft) S 171 ° 0 min 0,000 mm 0,0 UV-I 0 W/m² 6,1 °C 7,0 °C 0,0 km/h (0 Bft)
02.11.2019 22:37 7,0 °C 94 % 995,4 hPa 0,0 mm 0,0 km/h (0 Bft) S 171 ° 0 min 0,000 mm 0,0 UV-I 0 W/m² 6,1 °C 7,0 °C 0,0 km/h (0 Bft)
02.11.2019 22:38 6,9 °C 94 % 995,3 hPa 0,0 mm 0,0 km/h (0 Bft) S 171 ° 0 min 0,000 mm 0,0 UV-I 0 W/m² 6,0 °C 6,9 °C 0,0 km/h (0 Bft)
02.11.2019 22:39 6,9 °C 94 % 995,4 hPa 0,0 mm 0,0 km/h (0 Bft) S 171 ° 0 min 0,000 mm 0,0 UV-I 0 W/m² 6,0 °C 6,9 °C 0,0 km/h (0 Bft)
02.11.2019 22:40 6,9 °C 93 % 995,4 hPa 0,0 mm 0,0 km/h (0 Bft) S 171 ° 0 min 0,000 mm 0,0 UV-I 0 W/m² 5,8 °C 6,9 °C 0,0 km/h (0 Bft)
02.11.2019 22:41 6,9 °C 93 % 995,5 hPa 0,0 mm 0,0 km/h (0 Bft) S 171 ° 0 min 0,000 mm 0,0 UV-I 0 W/m² 5,8 °C 6,9 °C 0,0 km/h (0 Bft)
02.11.2019 22:42 6,9 °C 93 % 995,3 hPa 0,0 mm 0,0 km/h (0 Bft) S 171 ° 0 min 0,000 mm 0,0 UV-I 0 W/m² 5,8 °C 6,9 °C 0,0 km/h (0 Bft)
02.11.2019 22:43 6,9 °C 93 % 995,4 hPa 0,0 mm 0,0 km/h (0 Bft) S 171 ° 0 min 0,000 mm 0,0 UV-I 0 W/m² 5,8 °C 6,9 °C 0,0 km/h (0 Bft)
02.11.2019 22:44 6,8 °C 93 % 995,3 hPa 0,0 mm 0,0 km/h (0 Bft) S 171 ° 0 min 0,000 mm 0,0 UV-I 0 W/m² 5,7 °C 6,8 °C 0,0 km/h (0 Bft)
02.11.2019 22:45 6,9 °C 93 % 995,3 hPa 0,0 mm 0,0 km/h (0 Bft) S 171 ° 0 min 0,000 mm 0,0 UV-I 0 W/m² 5,8 °C 6,9 °C 0,0 km/h (0 Bft)
02.11.2019 22:46 6,8 °C 93 % 995,3 hPa 0,0 mm 0,0 km/h (0 Bft) S 171 ° 0 min 0,000 mm 0,0 UV-I 0 W/m² 5,7 °C 6,8 °C 0,0 km/h (0 Bft)
02.11.2019 22:47 6,8 °C 93 % 995,2 hPa 0,0 mm 0,0 km/h (0 Bft) S 171 ° 0 min 0,000 mm 0,0 UV-I 0 W/m² 5,7 °C 6,8 °C 0,0 km/h (0 Bft)
02.11.2019 22:48 6,8 °C 93 % 995,2 hPa 0,0 mm 0,0 km/h (0 Bft) S 171 ° 0 min 0,000 mm 0,0 UV-I 0 W/m² 5,7 °C 6,8 °C 0,0 km/h (0 Bft)
02.11.2019 22:49 6,8 °C 94 % 995,3 hPa 0,0 mm 0,0 km/h (0 Bft) S 171 ° 0 min 0,000 mm 0,0 UV-I 0 W/m² 5,9 °C 6,8 °C 0,0 km/h (0 Bft)
02.11.2019 22:50 6,8 °C 94 % 995,2 hPa 0,0 mm 0,0 km/h (0 Bft) S 171 ° 0 min 0,000 mm 0,0 UV-I 0 W/m² 5,9 °C 6,8 °C 0,0 km/h (0 Bft)
02.11.2019 22:51 6,8 °C 94 % 995,2 hPa 0,0 mm 0,0 km/h (0 Bft) S 171 ° 0 min 0,000 mm 0,0 UV-I 0 W/m² 5,9 °C 6,8 °C 0,0 km/h (0 Bft)
02.11.2019 22:52 6,8 °C 94 % 995,2 hPa 0,0 mm 0,0 km/h (0 Bft) S 171 ° 0 min 0,000 mm 0,0 UV-I 0 W/m² 5,9 °C 6,8 °C 0,0 km/h (0 Bft)
02.11.2019 22:53 6,8 °C 94 % 995,2 hPa 0,0 mm 0,0 km/h (0 Bft) S 171 ° 0 min 0,000 mm 0,0 UV-I 0 W/m² 5,9 °C 6,8 °C 0,0 km/h (0 Bft)
02.11.2019 22:54 6,8 °C 94 % 995,1 hPa 0,0 mm 0,0 km/h (0 Bft) S 171 ° 0 min 0,000 mm 0,0 UV-I 0 W/m² 5,9 °C 6,8 °C 0,0 km/h (0 Bft)
02.11.2019 22:55 6,7 °C 94 % 995,2 hPa 0,0 mm 0,0 km/h (0 Bft) S 171 ° 0 min 0,000 mm 0,0 UV-I 0 W/m² 5,8 °C 6,7 °C 0,0 km/h (0 Bft)
02.11.2019 22:56 6,8 °C 94 % 995,1 hPa 0,0 mm 0,0 km/h (0 Bft) S 171 ° 0 min 0,000 mm 0,0 UV-I 0 W/m² 5,9 °C 6,8 °C 0,0 km/h (0 Bft)
02.11.2019 22:57 6,7 °C 94 % 995,1 hPa 0,0 mm 0,0 km/h (0 Bft) S 171 ° 0 min 0,000 mm 0,0 UV-I 0 W/m² 5,8 °C 6,7 °C 0,0 km/h (0 Bft)
02.11.2019 22:58 6,7 °C 94 % 995,1 hPa 0,0 mm 0,0 km/h (0 Bft) S 171 ° 0 min 0,000 mm 0,0 UV-I 0 W/m² 5,8 °C 6,7 °C 0,0 km/h (0 Bft)
02.11.2019 22:59 6,7 °C 94 % 995,1 hPa 0,0 mm 0,0 km/h (0 Bft) S 171 ° 0 min 0,000 mm 0,0 UV-I 0 W/m² 5,8 °C 6,7 °C 0,0 km/h (0 Bft)
02.11.2019 23:00 6,8 °C 94 % 995,1 hPa 0,0 mm 0,0 km/h (0 Bft) S 171 ° 0 min 0,000 mm 0,0 UV-I 0 W/m² 5,9 °C 6,8 °C 0,0 km/h (0 Bft)
02.11.2019 23:01 6,7 °C 94 % 995,1 hPa 0,0 mm 0,0 km/h (0 Bft) S 171 ° 0 min 0,000 mm 0,0 UV-I 0 W/m² 5,8 °C 6,7 °C 0,0 km/h (0 Bft)
02.11.2019 23:02 6,7 °C 94 % 995,1 hPa 0,0 mm 0,0 km/h (0 Bft) S 171 ° 0 min 0,000 mm 0,0 UV-I 0 W/m² 5,8 °C 6,7 °C 0,0 km/h (0 Bft)
02.11.2019 23:03 6,7 °C 94 % 995,1 hPa 0,0 mm 0,0 km/h (0 Bft) S 171 ° 0 min 0,000 mm 0,0 UV-I 0 W/m² 5,8 °C 6,7 °C 0,0 km/h (0 Bft)
02.11.2019 23:04 6,7 °C 94 % 995,1 hPa 0,0 mm 0,0 km/h (0 Bft) S 171 ° 0 min 0,000 mm 0,0 UV-I 0 W/m² 5,8 °C 6,7 °C 0,0 km/h (0 Bft)
02.11.2019 23:05 6,7 °C 94 % 995,1 hPa 0,0 mm 0,0 km/h (0 Bft) S 171 ° 0 min 0,000 mm 0,0 UV-I 0 W/m² 5,8 °C 6,7 °C 0,0 km/h (0 Bft)
02.11.2019 23:06 6,7 °C 94 % 995,1 hPa 0,0 mm 0,0 km/h (0 Bft) S 171 ° 0 min 0,000 mm 0,0 UV-I 0 W/m² 5,8 °C 6,7 °C 0,0 km/h (0 Bft)
02.11.2019 23:07 6,7 °C 94 % 995,1 hPa 0,0 mm 0,0 km/h (0 Bft) S 171 ° 0 min 0,000 mm 0,0 UV-I 0 W/m² 5,8 °C 6,7 °C 0,0 km/h (0 Bft)
02.11.2019 23:08 6,7 °C 94 % 995,1 hPa 0,0 mm 0,0 km/h (0 Bft) S 171 ° 0 min 0,000 mm 0,0 UV-I 0 W/m² 5,8 °C 6,7 °C 0,0 km/h (0 Bft)
02.11.2019 23:09 6,7 °C 94 % 995,1 hPa 0,0 mm 0,0 km/h (0 Bft) S 171 ° 0 min 0,000 mm 0,0 UV-I 0 W/m² 5,8 °C 6,7 °C 0,0 km/h (0 Bft)
02.11.2019 23:10 6,7 °C 94 % 995,1 hPa 0,0 mm 0,0 km/h (0 Bft) S 171 ° 0 min 0,000 mm 0,0 UV-I 0 W/m² 5,8 °C 6,7 °C 0,0 km/h (0 Bft)
02.11.2019 23:11 6,7 °C 94 % 995,0 hPa 0,0 mm 0,0 km/h (0 Bft) S 171 ° 0 min 0,000 mm 0,0 UV-I 0 W/m² 5,8 °C 6,7 °C 0,0 km/h (0 Bft)
02.11.2019 23:12 6,7 °C 94 % 995,0 hPa 0,0 mm 0,0 km/h (0 Bft) S 171 ° 0 min 0,000 mm 0,0 UV-I 0 W/m² 5,8 °C 6,7 °C 0,0 km/h (0 Bft)
02.11.2019 23:13 6,7 °C 94 % 995,0 hPa 0,0 mm 0,0 km/h (0 Bft) S 171 ° 0 min 0,000 mm 0,0 UV-I 0 W/m² 5,8 °C 6,7 °C 0,0 km/h (0 Bft)
02.11.2019 23:14 6,7 °C 94 % 995,0 hPa 0,0 mm 0,0 km/h (0 Bft) S 171 ° 0 min 0,000 mm 0,0 UV-I 0 W/m² 5,8 °C 6,7 °C 0,0 km/h (0 Bft)
02.11.2019 23:15 6,7 °C 94 % 995,0 hPa 0,0 mm 0,0 km/h (0 Bft) S 171 ° 0 min 0,000 mm 0,0 UV-I 0 W/m² 5,8 °C 6,7 °C 0,0 km/h (0 Bft)
02.11.2019 23:16 6,7 °C 94 % 995,0 hPa 0,0 mm 0,0 km/h (0 Bft) S 171 ° 0 min 0,000 mm 0,0 UV-I 0 W/m² 5,8 °C 6,7 °C 0,0 km/h (0 Bft)
02.11.2019 23:17 6,7 °C 94 % 995,0 hPa 0,0 mm 0,0 km/h (0 Bft) S 171 ° 0 min 0,000 mm 0,0 UV-I 0 W/m² 5,8 °C 6,7 °C 0,0 km/h (0 Bft)
02.11.2019 23:18 6,7 °C 94 % 994,9 hPa 0,0 mm 0,0 km/h (0 Bft) S 171 ° 0 min 0,000 mm 0,0 UV-I 0 W/m² 5,8 °C 6,7 °C 0,0 km/h (0 Bft)
02.11.2019 23:19 6,7 °C 94 % 994,9 hPa 0,0 mm 0,0 km/h (0 Bft) S 171 ° 0 min 0,000 mm 0,0 UV-I 0 W/m² 5,8 °C 6,7 °C 0,0 km/h (0 Bft)
02.11.2019 23:20 6,7 °C 94 % 994,9 hPa 0,0 mm 0,0 km/h (0 Bft) S 171 ° 0 min 0,000 mm 0,0 UV-I 0 W/m² 5,8 °C 6,7 °C 0,0 km/h (0 Bft)
02.11.2019 23:21 6,6 °C 94 % 995,0 hPa 0,0 mm 0,0 km/h (0 Bft) S 171 ° 0 min 0,000 mm 0,0 UV-I 0 W/m² 5,7 °C 6,6 °C 0,0 km/h (0 Bft)
02.11.2019 23:22 6,6 °C 94 % 994,9 hPa 0,0 mm 0,0 km/h (0 Bft) S 171 ° 0 min 0,000 mm 0,0 UV-I 0 W/m² 5,7 °C 6,6 °C 0,0 km/h (0 Bft)
02.11.2019 23:23 6,6 °C 94 % 994,8 hPa 0,0 mm 0,0 km/h (0 Bft) S 171 ° 0 min 0,000 mm 0,0 UV-I 0 W/m² 5,7 °C 6,6 °C 0,0 km/h (0 Bft)
02.11.2019 23:24 6,6 °C 94 % 994,9 hPa 0,0 mm 0,0 km/h (0 Bft) S 171 ° 0 min 0,000 mm 0,0 UV-I 0 W/m² 5,7 °C 6,6 °C 0,0 km/h (0 Bft)
02.11.2019 23:25 6,6 °C 94 % 994,9 hPa 0,0 mm 0,0 km/h (0 Bft) S 171 ° 0 min 0,000 mm 0,0 UV-I 0 W/m² 5,7 °C 6,6 °C 0,0 km/h (0 Bft)
02.11.2019 23:26 6,6 °C 94 % 994,9 hPa 0,0 mm 0,0 km/h (0 Bft) S 171 ° 0 min 0,000 mm 0,0 UV-I 0 W/m² 5,7 °C 6,6 °C 0,0 km/h (0 Bft)
02.11.2019 23:27 6,6 °C 94 % 994,8 hPa 0,0 mm 0,0 km/h (0 Bft) S 171 ° 0 min 0,000 mm 0,0 UV-I 0 W/m² 5,7 °C 6,6 °C 0,0 km/h (0 Bft)
02.11.2019 23:28 6,5 °C 94 % 994,9 hPa 0,0 mm 0,0 km/h (0 Bft) S 171 ° 0 min 0,000 mm 0,0 UV-I 0 W/m² 5,6 °C 6,5 °C 0,0 km/h (0 Bft)
02.11.2019 23:29 6,5 °C 94 % 994,9 hPa 0,0 mm 0,0 km/h (0 Bft) S 171 ° 0 min 0,000 mm 0,0 UV-I 0 W/m² 5,6 °C 6,5 °C 0,0 km/h (0 Bft)
02.11.2019 23:30 6,5 °C 94 % 994,9 hPa 0,0 mm 0,0 km/h (0 Bft) S 171 ° 0 min 0,000 mm 0,0 UV-I 0 W/m² 5,6 °C 6,5 °C 0,0 km/h (0 Bft)
02.11.2019 23:31 6,5 °C 94 % 994,8 hPa 0,0 mm 0,0 km/h (0 Bft) S 171 ° 0 min 0,000 mm 0,0 UV-I 0 W/m² 5,6 °C 6,5 °C 0,0 km/h (0 Bft)
02.11.2019 23:32 6,4 °C 94 % 994,8 hPa 0,0 mm 0,0 km/h (0 Bft) S 171 ° 0 min 0,000 mm 0,0 UV-I 0 W/m² 5,5 °C 6,4 °C 0,0 km/h (0 Bft)
02.11.2019 23:33 6,5 °C 94 % 994,7 hPa 0,0 mm 0,0 km/h (0 Bft) S 171 ° 0 min 0,000 mm 0,0 UV-I 0 W/m² 5,6 °C 6,5 °C 0,0 km/h (0 Bft)
02.11.2019 23:34 6,4 °C 94 % 994,6 hPa 0,0 mm 0,0 km/h (0 Bft) S 171 ° 0 min 0,000 mm 0,0 UV-I 0 W/m² 5,5 °C 6,4 °C 0,0 km/h (0 Bft)
02.11.2019 23:35 6,4 °C 94 % 994,6 hPa 0,0 mm 0,0 km/h (0 Bft) S 171 ° 0 min 0,000 mm 0,0 UV-I 0 W/m² 5,5 °C 6,4 °C 0,0 km/h (0 Bft)
02.11.2019 23:36 6,4 °C 94 % 994,5 hPa 0,0 mm 0,0 km/h (0 Bft) S 171 ° 0 min 0,000 mm 0,0 UV-I 0 W/m² 5,5 °C 6,4 °C 0,0 km/h (0 Bft)
02.11.2019 23:37 6,4 °C 94 % 994,4 hPa 0,0 mm 0,0 km/h (0 Bft) S 171 ° 0 min 0,000 mm 0,0 UV-I 0 W/m² 5,5 °C 6,4 °C 0,0 km/h (0 Bft)
02.11.2019 23:38 6,4 °C 94 % 994,5 hPa 0,0 mm 0,0 km/h (0 Bft) S 171 ° 0 min 0,000 mm 0,0 UV-I 0 W/m² 5,5 °C 6,4 °C 0,0 km/h (0 Bft)
02.11.2019 23:39 6,5 °C 94 % 994,5 hPa 0,0 mm 2,9 km/h (1 Bft) S 171 ° 0 min 0,000 mm 0,0 UV-I 0 W/m² 5,6 °C 6,5 °C 6,4 km/h (2 Bft)
02.11.2019 23:40 6,6 °C 94 % 994,4 hPa 0,0 mm 2,3 km/h (1 Bft) S 171 ° 0 min 0,000 mm 0,0 UV-I 0 W/m² 5,7 °C 6,6 °C 3,2 km/h (1 Bft)
02.11.2019 23:41 6,6 °C 94 % 994,5 hPa 0,0 mm 0,5 km/h (0 Bft) S 171 ° 0 min 0,000 mm 0,0 UV-I 0 W/m² 5,7 °C 6,6 °C 1,6 km/h (1 Bft)
02.11.2019 23:42 6,6 °C 94 % 994,3 hPa 0,0 mm 1,3 km/h (1 Bft) S 171 ° 0 min 0,000 mm 0,0 UV-I 0 W/m² 5,7 °C 6,6 °C 1,6 km/h (1 Bft)
02.11.2019 23:43 6,7 °C 94 % 994,3 hPa 0,0 mm 1,2 km/h (1 Bft) S 171 ° 0 min 0,000 mm 0,0 UV-I 0 W/m² 5,8 °C 6,7 °C 1,6 km/h (1 Bft)
02.11.2019 23:44 6,7 °C 94 % 994,3 hPa 0,0 mm 1,1 km/h (1 Bft) S 171 ° 0 min 0,000 mm 0,0 UV-I 0 W/m² 5,8 °C 6,7 °C 3,2 km/h (1 Bft)
02.11.2019 23:45 6,8 °C 94 % 994,3 hPa 0,0 mm 0,0 km/h (0 Bft) S 171 ° 0 min 0,000 mm 0,0 UV-I 0 W/m² 5,9 °C 6,8 °C 0,0 km/h (0 Bft)
02.11.2019 23:46 6,8 °C 94 % 994,3 hPa 0,0 mm 0,0 km/h (0 Bft) S 171 ° 0 min 0,000 mm 0,0 UV-I 0 W/m² 5,9 °C 6,8 °C 0,0 km/h (0 Bft)
02.11.2019 23:47 6,8 °C 94 % 994,2 hPa 0,0 mm 0,2 km/h (0 Bft) S 171 ° 0 min 0,000 mm 0,0 UV-I 0 W/m² 5,9 °C 6,8 °C 1,6 km/h (1 Bft)
02.11.2019 23:48 6,8 °C 94 % 994,2 hPa 0,0 mm 2,1 km/h (1 Bft) S 171 ° 0 min 0,000 mm 0,0 UV-I 0 W/m² 5,9 °C 6,8 °C 3,2 km/h (1 Bft)
02.11.2019 23:49 6,8 °C 94 % 994,2 hPa 0,0 mm 0,9 km/h (0 Bft) S 171 ° 0 min 0,000 mm 0,0 UV-I 0 W/m² 5,9 °C 6,8 °C 3,2 km/h (1 Bft)
02.11.2019 23:50 6,8 °C 94 % 994,2 hPa 0,0 mm 2,0 km/h (1 Bft) S 171 ° 0 min 0,000 mm 0,0 UV-I 0 W/m² 5,9 °C 6,8 °C 3,2 km/h (1 Bft)
02.11.2019 23:51 6,8 °C 94 % 994,1 hPa 0,0 mm 0,6 km/h (0 Bft) S 171 ° 0 min 0,000 mm 0,0 UV-I 0 W/m² 5,9 °C 6,8 °C 3,2 km/h (1 Bft)
02.11.2019 23:52 6,8 °C 94 % 994,1 hPa 0,0 mm 0,0 km/h (0 Bft) S 171 ° 0 min 0,000 mm 0,0 UV-I 0 W/m² 5,9 °C 6,8 °C 0,0 km/h (0 Bft)
02.11.2019 23:53 6,8 °C 94 % 994,0 hPa 0,0 mm 0,0 km/h (0 Bft) S 171 ° 0 min 0,000 mm 0,0 UV-I 0 W/m² 5,9 °C 6,8 °C 0,0 km/h (0 Bft)
02.11.2019 23:54 6,7 °C 94 % 994,0 hPa 0,0 mm 0,0 km/h (0 Bft) S 171 ° 0 min 0,000 mm 0,0 UV-I 0 W/m² 5,8 °C 6,7 °C 0,0 km/h (0 Bft)
02.11.2019 23:55 6,7 °C 94 % 993,9 hPa 0,0 mm 0,0 km/h (0 Bft) S 171 ° 0 min 0,000 mm 0,0 UV-I 0 W/m² 5,8 °C 6,7 °C 0,0 km/h (0 Bft)
02.11.2019 23:56 6,7 °C 94 % 993,9 hPa 0,0 mm 0,0 km/h (0 Bft) S 171 ° 0 min 0,000 mm 0,0 UV-I 0 W/m² 5,8 °C 6,7 °C 0,0 km/h (0 Bft)
02.11.2019 23:57 6,7 °C 94 % 993,9 hPa 0,0 mm 0,0 km/h (0 Bft) S 171 ° 0 min 0,000 mm 0,0 UV-I 0 W/m² 5,8 °C 6,7 °C 0,0 km/h (0 Bft)
02.11.2019 23:58 6,7 °C 94 % 993,8 hPa 0,0 mm 0,0 km/h (0 Bft) S 171 ° 0 min 0,000 mm 0,0 UV-I 0 W/m² 5,8 °C 6,7 °C 0,0 km/h (0 Bft)
02.11.2019 23:59 6,6 °C 94 % 993,8 hPa 0,0 mm 0,0 km/h (0 Bft) S 171 ° 0 min 0,000 mm 0,0 UV-I 0 W/m² 5,7 °C 6,6 °C 0,0 km/h (0 Bft)
_ Min-Zeit 23:38 14:14 23:59 - 23:59 - - - - - - 23:38 20:00 23:59
Minimum _ 6,4 °C 74 % 993,8 hPa - 0,0 km/h (0 Bft) - - - - - - 5,5 °C 5,9 °C 0,0 km/h (0 Bft)
_ Max-Zeit 14:16 10:07 00:04 18:51 20:00 - - 23:59 14:01 13:38 13:38 12:49 14:16 20:00
Maximum _ 14,9 °C 96 % 1004,0 hPa 0,2 mm 14,1 km/h
S (3 Bft)
- - 0 min 0,127 mm 1,9 UV-I 438 W/m² 12,2 °C 14,9 °C 16,1 km/h
S (3 Bft)
Durchschnitt _ 9,9 °C 92 % 999,0 hPa #0,6 mm 0,8 km/h (0 Bft) S - #0 min. #0,559 mm 1,0 UV-I 48 W/m² 8,6 °C 9,9 °C 1,5 km/h (1 Bft)